GFSGBSN_sfc_temp_000.txt.gz
Temp
65 64 64 66 66 66 66 65 65 65 66 66 65 65 64 64 64 63 63 63 64 64 64 63 64 63 59 49 50 66 72 72 67 64 60 57 52 50 47 50 52 49 54 59 61 62 63
64 65 65 65 64 65 65 65 65 65 65 66 65 64 64 64 63 63 63 63 63 64 63 63 63 62 53 43 62 66 65 63 64 61 58 57 54 55 51 50 50 54 56 57 59 61 62
64 64 64 64 65 63 65 65 64 64 65 66 65 64 63 63 63 63 63 63 63 63 63 63 63 60 50 48 63 62 64 61 64 62 57 59 59 53 54 49 55 55 50 54 55 57 58
62 63 63 64 64 63 63 64 64 64 65 65 65 64 63 63 63 62 62 62 62 62 63 63 63 55 45 63 62 61 62 60 63 64 62 62 63 57 55 57 51 46 46 42 52 57 58
62 62 62 62 63 63 63 63 64 64 64 65 64 63 62 62 62 61 61 61 61 62 62 62 54 50 43 64 56 60 60 57 59 60 60 67 61 54 51 47 43 42 36 40 46 56 55
62 63 62 61 62 62 63 62 63 63 64 64 63 63 62 62 61 61 61 60 61 59 59 60 57 48 51 51 57 59 60 60 55 55 54 52 50 42 41 42 35 40 38 42 42 49 53
61 62 62 61 61 61 62 62 61 62 63 63 63 62 61 61 60 60 57 51 46 44 50 45 47 48 54 57 61 56 59 56 54 48 39 45 39 36 39 41 42 42 40 39 43 52 49
61 61 60 60 60 60 61 61 61 59 62 63 63 61 61 61 61 60 53 46 47 50 40 50 50 51 56 58 50 54 59 48 47 39 41 39 36 43 45 44 42 41 38 38 44 51 48
60 60 59 59 60 60 60 60 61 59 61 62 62 61 61 60 60 56 51 51 54 52 40 45 49 48 51 55 49 49 54 49 46 42 42 35 41 47 44 41 39 39 37 38 38 47 51
59 60 60 58 59 59 59 59 59 58 59 61 62 61 60 59 53 50 50 54 53 55 34 39 42 48 52 54 46 57 57 51 45 39 41 40 45 42 42 40 41 34 44 44 43 39 33
59 59 59 58 58 57 58 58 58 59 57 58 60 61 59 59 49 48 52 53 53 50 15 41 42 56 54 47 50 49 59 52 41 39 39 36 38 38 37 40 45 38 47 44 43 39 36
58 58 58 57 57 56 57 57 56 57 57 56 58 60 58 55 51 52 53 55 51 30 18 36 44 41 43 46 48 51 50 54 51 43 43 39 46 44 42 46 46 46 42 42 41 37 30
58 58 57 57 56 55 56 56 56 57 56 56 56 58 57 57 48 54 55 47 30 23 41 36 38 40 41 40 42 45 40 39 35 31 31 36 37 42 45 39 43 43 37 28 25 25 27
57 57 57 58 57 55 55 55 55 56 56 55 55 57 58 56 55 55 50 38 23 35 34 41 40 40 36 41 40 42 39 35 41 37 33 29 26 37 43 40 37 38 38 29 20 21 27
56 57 56 57 57 55 55 54 55 55 55 55 55 54 52 52 56 54 44 31 28 36 41 38 40 35 35 39 40 39 37 36 41 38 31 29 30 42 43 44 44 36 32 42 34 34 29
56 56 57 56 57 55 54 53 54 54 54 54 50 49 49 55 57 50 39 34 36 44 43 43 35 37 32 36 35 35 36 41 39 43 43 34 24 38 41 45 44 40 44 31 33 22 23
56 56 56 57 56 56 53 53 54 54 54 54 49 43 50 56 54 43 33 33 40 46 46 42 38 37 36 34 35 34 34 40 42 42 42 37 33 32 37 35 36 36 35 38 38 35 28
56 56 56 56 56 55 53 52 53 53 54 51 47 38 51 53 40 40 37 42 47 44 47 45 44 40 37 37 34 32 33 39 47 45 35 41 36 29 34 42 44 43 39 40 33 31 37
55 55 56 55 55 55 53 53 54 54 53 50 45 45 51 51 35 36 42 43 46 45 45 45 41 43 43 41 35 37 40 48 49 44 39 42 35 28 30 36 39 38 42 44 44 42 33
54 55 55 55 55 55 54 53 53 53 53 51 45 40 44 45 46 42 40 41 41 48 47 48 45 45 42 41 42 39 40 48 51 49 50 47 37 33 29 33 39 36 40 43 40 35 36
53 54 55 55 55 55 54 53 53 53 53 51 47 42 46 37 40 42 43 43 40 41 46 47 41 41 41 36 38 38 43 46 48 48 46 42 32 33 36 37 36 40 41 41 37 41 36
53 54 54 55 55 55 54 53 53 53 53 49 44 44 47 43 46 42 42 41 42 44 44 41 40 45 42 40 41 38 44 44 43 45 41 41 32 34 33 41 40 39 42 44 43 40 39
53 53 54 54 54 54 54 53 53 52 52 45 49 48 49 44 43 40 41 42 42 44 46 48 45 44 43 43 50 48 49 49 48 44 40 37 34 34 33 42 42 37 42 43 38 39 39
53 53 54 54 54 54 53 53 53 52 51 47 49 46 44 41 42 43 45 44 42 43 43 45 48 44 50 54 54 52 50 46 47 47 47 38 37 38 34 38 29 41 51 48 43 45 45
53 54 53 54 54 53 53 53 53 52 53 48 49 47 43 41 45 44 45 43 42 43 43 46 48 51 53 50 44 40 40 40 39 45 41 43 41 34 31 30 37 42 45 46 45 45 48
53 53 53 53 53 53 53 53 53 52 52 50 49 49 46 43 42 49 44 44 40 37 39 44 48 49 50 46 42 35 32 34 33 36 43 45 43 40 33 28 30 39 44 47 47 38 48
53 53 53 53 53 53 53 53 53 52 52 50 50 52 48 43 47 46 43 42 44 41 39 42 43 43 48 42 38 36 34 38 32 32 33 38 37 32 32 32 35 44 45 46 38 40 45
53 52 52 52 53 53 53 53 53 53 52 50 49 52 50 45 47 50 50 43 43 43 39 43 42 43 42 39 38 38 39 36 35 35 36 36 36 36 37 30 28 45 45 41 45 43 43
52 52 52 52 52 52 52 53 53 53 52 52 48 51 52 47 46 51 52 52 50 50 45 44 43 44 46 42 41 42 36 36 42 31 39 37 41 40 38 37 45 43 44 44 46 44 42

GFSGBSN_sfc_temp_003.txt.gz
Temp
64 64 64 65 65 64 63 65 65 64 65 66 66 65 65 64 65 64 64 63 64 64 63 63 63 63 59 52 51 64 71 70 66 64 58 55 50 48 44 48 50 47 50 56 58 59 60
62 63 63 64 64 64 64 63 64 64 65 65 66 65 64 64 64 63 63 63 63 64 63 63 63 62 53 42 61 63 63 62 62 60 57 56 53 53 49 48 47 51 52 54 56 57 57
63 63 63 62 62 63 63 63 62 63 64 65 66 65 64 63 63 63 63 63 63 63 63 63 63 60 50 49 61 60 63 58 61 59 56 57 56 52 52 48 53 52 46 51 53 54 54
63 62 63 63 62 62 63 63 62 62 63 64 65 65 63 63 63 63 62 63 62 62 62 63 62 54 45 61 60 60 60 58 60 61 60 61 60 54 53 57 50 46 43 38 49 54 55
62 62 62 62 61 61 61 62 62 62 61 63 64 64 63 62 62 62 61 62 61 61 62 62 53 49 43 63 55 59 59 57 57 58 58 66 61 54 52 46 42 42 35 37 43 54 53
61 61 61 61 60 60 60 61 61 61 62 60 62 63 63 62 61 61 61 61 61 59 58 59 56 46 50 50 56 58 58 59 54 53 53 51 50 45 44 42 33 35 35 40 38 47 50
61 61 61 61 61 60 60 60 60 61 61 60 60 62 63 62 61 60 58 51 46 44 50 44 46 47 52 56 59 55 58 55 53 48 39 44 38 37 42 40 43 39 38 40 45 49 45
60 60 60 60 60 60 59 59 59 60 60 60 59 61 62 61 61 60 53 45 46 49 40 49 49 50 54 56 49 53 58 47 44 38 40 38 33 41 44 42 40 39 39 39 45 50 48
60 60 60 59 59 59 58 58 58 59 59 59 58 59 61 61 60 56 51 49 53 51 39 44 47 47 49 53 49 48 53 48 41 37 37 35 39 46 43 39 37 37 34 39 40 44 46
59 59 59 59 59 58 57 56 57 58 58 58 57 57 61 59 54 54 50 53 53 53 30 36 41 46 50 52 45 56 55 48 41 36 39 40 45 42 39 37 39 33 41 42 40 36 30
59 59 58 58 58 58 56 56 56 57 57 56 57 57 60 58 50 48 52 52 52 48 14 40 41 56 53 46 50 47 55 51 41 37 39 35 36 37 36 38 42 37 44 41 40 36 33
58 58 57 57 57 58 56 56 55 56 56 56 56 56 59 53 52 53 54 54 50 29 17 36 43 41 43 46 49 49 48 53 50 42 41 38 44 41 39 43 44 44 40 39 38 34 26
57 57 57 57 57 57 55 54 54 55 55 56 56 56 55 56 48 54 55 48 31 24 39 35 39 41 42 40 43 45 42 39 36 31 31 37 37 39 43 37 41 41 35 27 25 25 25
58 57 56 57 57 56 56 55 53 54 55 55 56 54 56 56 55 56 51 39 21 34 33 41 40 39 36 39 39 40 39 35 41 35 32 28 25 36 41 38 35 36 35 26 21 20 23
56 56 56 56 56 57 56 54 54 54 54 55 54 50 51 53 56 56 45 27 29 34 39 36 39 35 35 40 39 39 38 38 38 40 30 26 27 39 42 45 43 34 31 39 32 34 27
55 55 55 56 56 56 56 55 53 53 53 54 48 44 48 55 57 51 39 31 34 43 41 40 33 39 34 36 35 36 37 38 39 42 43 35 28 37 41 43 43 38 42 29 30 22 21
55 55 55 56 55 56 56 55 53 53 53 52 45 40 50 55 54 44 32 31 38 45 45 40 38 37 37 35 34 35 35 38 41 40 42 38 31 30 37 35 34 36 33 35 34 29 20
55 55 55 55 55 55 55 55 54 53 53 49 43 35 50 53 39 40 35 38 45 42 44 43 43 42 39 35 32 31 31 38 44 42 36 39 34 28 32 41 45 42 36 35 28 22 31
54 55 54 54 54 55 55 55 54 54 53 46 41 43 50 51 33 35 41 42 44 43 41 43 41 44 45 38 32 34 38 46 45 43 39 41 34 27 30 35 38 35 37 39 39 37 29
54 54 54 54 54 55 55 54 54 53 53 49 44 36 42 44 45 40 39 38 39 48 47 48 46 46 41 38 41 37 38 46 47 47 48 44 36 32 28 32 37 32 36 40 37 30 32
53 54 54 54 55 55 55 54 54 53 53 50 44 40 41 36 38 41 42 43 39 38 47 48 43 43 40 37 38 36 40 44 47 48 43 40 32 33 36 38 36 36 37 38 36 38 33
54 54 54 54 54 55 54 54 53 52 52 48 43 42 43 40 44 42 42 40 41 43 43 42 40 44 43 39 40 36 42 43 43 43 41 42 33 33 32 36 35 34 36 40 41 42 42
54 54 54 54 54 54 54 54 53 52 51 43 45 49 47 43 42 40 41 41 42 46 45 46 44 43 42 44 46 47 45 47 48 43 39 36 33 33 30 38 36 31 36 39 42 45 43
53 54 54 54 54 54 54 53 53 53 51 47 45 44 43 38 42 43 44 44 43 44 42 45 47 44 49 53 49 47 47 45 47 46 44 36 34 34 32 36 29 40 49 49 45 44 44
53 54 54 53 53 53 54 53 53 53 53 47 48 46 45 40 44 44 45 44 44 44 43 43 46 49 51 48 42 38 39 41 40 41 42 44 39 35 33 31 38 40 43 43 40 39 46
53 54 53 53 53 53 53 53 53 53 53 48 47 50 46 43 42 48 45 44 40 40 41 42 46 49 48 44 41 35 33 32 31 36 40 40 40 38 36 28 29 39 45 49 48 38 48
53 53 53 53 53 53 53 53 53 53 53 49 47 51 47 40 47 47 44 42 45 40 37 40 44 43 46 41 38 35 35 36 30 30 32 36 38 33 34 32 34 42 45 47 36 39 45
53 53 52 52 52 52 53 53 53 53 52 49 47 50 48 45 47 49 49 44 42 43 39 43 41 42 41 38 38 37 35 35 32 33 33 35 37 31 32 28 26 43 43 41 44 40 43
53 52 52 52 52 52 52 53 53 53 52 51 45 51 52 47 45 49 49 50 52 51 46 44 43 43 44 41 41 41 36 35 36 31 36 35 39 36 37 36 43 43 42 42 44 42 39

GFSGBSN_sfc_temp_006.txt.gz
Temp
64 64 63 64 64 63 63 64 64 63 63 65 65 66 65 65 64 65 64 63 63 64 63 63 63 63 58 52 53 63 69 67 65 63 61 59 49 48 44 45 47 45 48 53 55 56 56
63 63 63 63 63 63 62 62 63 63 62 63 65 65 64 64 64 64 63 63 63 63 63 63 63 62 52 42 60 62 64 61 61 60 56 56 52 52 46 46 45 49 49 50 53 53 55
62 62 62 62 62 61 61 61 61 62 63 61 63 64 64 63 64 63 63 63 63 63 63 63 63 59 49 48 59 59 63 57 59 59 54 56 56 50 50 46 50 49 44 48 50 52 51
62 62 62 61 61 61 60 60 60 61 61 62 61 62 63 63 63 63 63 62 62 62 62 63 62 54 44 60 58 59 59 57 59 59 59 59 58 52 49 51 50 45 43 36 46 50 52
61 61 61 61 61 61 61 61 59 60 61 61 61 60 61 63 62 62 62 62 61 61 61 62 53 48 42 62 54 58 58 56 56 57 57 65 56 49 47 41 38 40 32 35 42 50 50
61 61 61 61 61 61 61 61 59 59 60 60 60 59 60 61 62 61 61 61 61 59 58 58 56 44 49 49 55 57 57 58 53 53 52 51 47 41 43 37 28 32 34 38 41 46 46
61 61 61 60 60 60 60 60 59 58 59 59 59 59 58 59 62 61 58 53 47 46 50 44 45 46 51 55 58 54 56 54 51 47 39 43 37 36 41 40 41 36 35 35 40 48 45
60 60 60 59 59 59 60 59 58 58 58 59 59 58 58 58 61 60 56 48 47 49 40 48 48 49 53 55 48 51 57 47 44 36 38 39 34 40 43 41 40 40 37 36 40 46 45
59 60 59 58 58 59 59 59 59 57 57 57 58 57 58 57 59 55 53 48 52 52 38 43 47 46 48 52 46 47 52 46 39 36 38 34 38 44 42 38 36 34 33 34 34 42 44
58 59 59 58 58 58 58 58 57 56 56 56 57 57 57 56 54 53 49 53 52 52 25 35 40 45 48 50 43 54 54 47 41 37 38 36 43 41 37 36 37 32 39 39 38 33 26
59 59 58 58 58 57 57 56 55 55 55 54 56 56 57 56 51 49 52 52 52 45 14 39 40 54 50 45 48 45 54 50 37 37 37 34 35 36 35 37 40 36 42 39 38 34 30
57 57 57 57 57 57 56 56 55 55 54 54 54 56 56 52 52 53 55 55 49 26 14 35 41 42 42 44 48 47 49 53 51 42 41 37 42 41 38 42 43 43 37 37 36 36 25
57 57 56 56 56 56 56 56 56 54 53 53 55 56 54 54 48 54 56 48 29 20 38 34 38 41 42 40 42 44 41 39 36 31 31 37 37 42 43 36 40 39 33 25 24 24 22
57 56 56 55 55 55 56 56 57 54 54 54 54 55 53 54 54 55 51 37 21 33 32 41 41 41 37 41 42 41 39 36 41 38 32 27 23 36 41 38 34 35 34 25 18 22 22
56 55 55 55 55 56 56 56 57 54 52 52 54 50 49 52 54 54 44 31 29 34 39 36 39 35 35 39 39 38 38 38 42 39 31 29 26 37 40 43 43 34 29 37 31 33 25
56 55 55 55 55 56 56 56 56 55 52 52 47 46 46 52 54 49 39 32 35 42 41 40 32 37 32 35 34 34 35 37 41 43 44 35 28 35 38 42 43 37 40 29 29 20 17
55 55 55 55 54 55 55 56 56 56 53 53 45 40 48 53 51 42 32 33 38 44 44 39 37 35 39 37 37 35 33 37 40 39 42 36 33 30 37 33 34 34 32 32 34 30 18
54 54 55 55 54 55 55 55 55 55 53 50 42 35 50 53 37 38 33 38 44 40 43 45 43 43 39 36 32 30 31 36 43 41 36 40 35 27 31 39 43 40 36 34 27 21 26
54 54 55 54 54 54 55 55 55 54 54 45 39 43 50 50 33 35 38 40 42 40 41 42 40 44 45 39 32 33 35 44 44 41 37 40 33 27 28 34 38 35 37 38 36 33 25
54 54 54 54 54 54 55 55 54 54 54 48 40 36 42 44 43 40 38 37 37 45 43 45 44 43 41 39 38 34 35 44 44 44 47 45 36 31 27 31 34 32 34 37 35 27 29
54 54 54 54 54 54 54 54 53 53 53 48 43 37 40 33 38 41 42 40 38 38 44 46 43 43 40 36 38 35 39 41 44 47 45 40 31 33 35 37 34 35 34 35 32 34 30
54 54 54 54 54 54 54 54 53 52 52 45 41 40 42 39 43 39 38 38 38 42 43 41 39 43 42 39 40 36 39 40 39 43 41 41 32 33 32 36 35 33 36 36 36 37 37
53 54 54 54 54 54 54 54 53 52 51 42 43 45 45 43 41 37 37 38 40 45 46 45 45 43 41 44 47 48 48 45 45 43 38 36 33 32 29 36 36 30 35 37 39 40 40
53 53 54 54 53 53 53 53 53 53 52 46 45 44 42 37 42 40 43 42 41 44 41 43 46 44 49 52 51 47 43 43 43 44 45 35 33 33 30 33 28 39 43 43 40 43 44
53 53 54 54 53 53 53 53 53 54 53 47 47 44 44 39 44 42 44 42 45 44 43 44 46 48 51 49 41 37 38 37 39 42 42 43 36 33 31 31 37 39 43 39 38 39 46
54 54 54 53 53 53 53 53 53 53 54 48 47 48 46 41 40 48 44 43 40 40 41 44 45 46 49 44 39 34 29 35 31 35 36 40 42 35 34 30 27 37 43 47 47 36 47
54 53 53 53 53 53 52 53 53 53 53 49 47 49 46 43 45 49 44 43 45 42 40 39 40 42 45 40 37 35 33 37 29 30 35 35 34 32 33 33 33 41 42 47 36 39 43
53 53 53 52 52 52 52 52 53 53 53 49 46 50 47 44 46 50 49 43 42 42 39 42 42 42 41 37 37 37 36 34 31 33 33 33 32 31 31 28 27 42 42 37 43 41 41
53 52 52 52 52 52 52 53 52 53 53 51 44 50 51 45 44 48 49 49 50 51 46 44 43 43 44 41 39 41 37 33 33 29 34 33 38 35 36 35 43 41 42 44 43 42 38

GFSGBSN_sfc_temp_009.txt.gz
Temp
63 63 62 62 62 63 62 61 61 62 62 63 64 63 65 65 64 65 65 64 64 64 64 63 63 63 59 52 54 65 68 67 66 63 62 59 53 51 47 49 51 49 51 55 57 57 57
62 62 62 62 62 62 62 62 61 61 61 62 63 62 62 64 64 64 64 64 63 63 63 63 63 62 54 45 61 63 65 64 62 63 60 60 55 55 50 49 49 52 51 52 54 55 56
62 62 62 62 62 62 62 62 62 61 60 61 62 61 60 62 63 63 64 63 63 63 63 63 62 59 50 49 61 60 62 61 62 62 57 59 58 54 53 48 53 52 47 50 51 53 54
62 62 62 62 61 61 61 61 61 61 60 60 61 61 59 60 62 63 63 63 63 63 62 63 62 55 45 60 60 60 61 60 61 62 60 60 60 55 52 54 50 47 47 40 50 52 54
61 61 61 61 61 61 61 61 60 60 60 59 60 60 60 58 60 62 61 62 62 61 62 61 54 49 43 62 54 58 60 57 58 59 60 64 58 51 50 43 40 42 36 38 44 52 53
61 61 61 61 60 60 60 60 60 60 60 59 59 59 59 58 58 60 60 61 61 59 58 58 56 46 49 49 55 56 58 59 55 54 54 53 49 43 44 41 31 34 35 38 40 48 49
60 59 60 60 59 59 60 60 60 60 59 58 57 58 58 58 57 59 58 53 47 46 50 44 45 46 51 55 58 54 57 55 53 49 41 46 40 36 41 42 42 40 38 37 41 48 44
60 60 60 60 59 59 59 59 59 58 58 57 57 56 58 58 58 57 56 48 48 50 40 48 48 48 53 54 48 51 57 47 46 38 41 40 35 43 44 43 41 40 37 38 44 46 45
60 60 60 59 59 59 58 58 58 56 56 56 56 55 56 57 58 54 52 50 52 54 40 43 47 46 48 52 47 47 52 47 41 37 38 35 39 45 42 39 38 40 37 39 39 42 45
60 59 59 58 58 57 57 58 57 56 54 54 55 55 56 56 51 53 49 53 52 53 27 36 40 45 48 50 44 54 54 48 42 38 42 40 45 41 37 36 39 34 41 40 38 35 30
59 59 58 58 57 57 56 57 57 56 57 54 54 55 55 55 49 49 51 54 51 47 15 38 40 54 50 45 47 45 54 50 38 37 38 36 37 36 36 38 40 37 42 39 38 35 32
59 58 57 57 56 56 56 56 56 57 57 55 55 55 55 52 51 50 53 53 50 28 15 34 40 41 41 43 46 47 48 53 50 41 42 39 43 41 39 42 43 44 39 38 37 35 26
58 58 57 56 56 56 56 56 57 57 57 53 52 54 53 54 46 53 52 47 30 20 38 34 36 42 42 38 42 43 41 39 36 31 31 38 39 42 43 37 40 40 33 26 25 25 25
57 57 56 56 56 55 55 56 57 57 56 53 52 54 53 53 52 51 49 36 24 33 32 42 42 41 37 41 41 42 39 36 41 38 32 24 25 38 42 39 35 35 34 27 20 22 26
57 57 55 55 56 55 56 56 57 57 55 52 53 46 48 49 52 49 41 30 29 33 39 39 40 35 35 40 41 40 39 38 42 41 32 28 29 38 39 42 43 33 30 39 29 31 25
57 55 55 55 55 55 55 55 56 56 54 53 46 46 46 52 52 46 35 32 34 41 42 41 33 37 33 36 35 37 36 38 40 43 45 37 27 36 39 41 41 38 40 29 29 21 20
55 55 55 55 55 55 54 55 56 56 54 53 44 40 48 52 50 40 32 32 38 43 44 39 36 34 35 34 36 34 34 38 40 39 43 39 33 31 37 34 34 34 32 33 32 30 23
55 55 55 55 54 55 54 55 55 55 54 50 41 35 48 50 36 34 34 38 44 40 44 43 43 41 37 38 35 36 32 36 42 41 35 39 35 28 30 39 43 41 37 36 27 25 28
55 55 55 55 54 54 54 55 55 54 54 46 38 41 49 47 33 34 38 40 42 40 40 42 40 43 43 38 33 34 35 43 42 40 36 40 33 24 26 34 39 34 37 38 37 35 27
55 55 55 55 54 54 55 54 54 54 54 48 40 35 41 43 42 36 36 37 37 44 42 44 42 43 40 39 41 34 35 42 43 43 47 45 35 28 29 33 33 31 35 36 33 28 30
54 54 55 55 54 54 54 54 54 53 53 48 42 37 40 34 37 40 41 39 37 37 43 44 41 43 40 36 38 36 37 40 42 45 44 40 31 33 35 37 35 34 34 34 32 33 29
54 54 54 55 55 54 54 54 54 53 53 44 38 39 40 38 42 40 37 35 37 39 41 39 39 44 43 39 41 36 38 38 39 41 41 42 33 33 32 36 35 32 35 35 35 36 36
54 54 54 54 54 54 54 53 54 54 52 42 43 45 41 42 41 37 34 40 38 43 43 46 44 44 41 44 48 48 48 48 45 42 39 36 33 32 29 39 34 31 35 35 36 39 37
54 54 54 54 54 54 53 53 53 54 52 46 44 43 41 37 40 39 40 41 41 43 40 44 46 43 48 51 49 48 46 43 43 42 44 37 33 33 30 33 27 38 45 43 40 42 43
54 55 55 54 54 53 53 53 53 54 54 46 47 43 42 38 41 41 40 41 40 41 43 44 46 46 50 45 39 38 38 38 37 40 40 43 38 33 30 31 36 41 43 40 38 38 45
54 54 54 54 53 53 53 53 53 53 54 48 46 48 44 40 39 47 43 41 37 38 41 44 45 47 45 41 39 33 30 32 31 33 37 41 41 35 33 29 28 39 43 47 46 37 46
54 54 53 53 53 53 53 53 53 53 53 48 46 49 44 42 43 44 41 40 45 43 40 40 40 40 44 40 36 34 33 35 29 30 33 35 35 33 33 32 35 42 44 47 36 39 42
53 53 53 53 53 53 53 53 53 53 53 49 45 49 43 44 44 48 47 42 41 41 40 42 41 41 40 36 36 36 33 34 30 33 33 33 31 30 34 31 27 42 42 37 43 42 43
53 52 52 52 52 52 52 52 52 52 53 52 43 48 48 45 46 48 50 50 52 51 46 44 43 43 43 40 39 40 37 35 32 29 34 32 37 35 36 36 43 43 43 45 43 42 41

GFSGBSN_sfc_temp_012.txt.gz
Temp
63 63 63 63 63 62 62 62 62 62 62 62 61 62 62 62 63 64 64 65 65 64 64 63 63 63 64 57 58 70 69 70 72 69 65 63 61 61 56 58 59 57 61 63 65 64 64
63 63 63 62 62 62 62 62 62 61 61 62 61 61 61 61 61 62 63 64 64 64 64 63 63 63 61 52 68 70 69 69 70 67 65 63 60 62 58 57 56 59 58 60 62 62 64
62 62 62 62 62 62 62 61 61 61 61 62 61 60 61 60 60 61 63 64 64 64 63 63 63 64 56 58 69 70 69 65 67 68 61 63 63 61 61 55 60 58 53 59 61 62 60
62 62 62 62 61 61 61 61 61 61 61 61 61 60 60 60 59 59 61 62 63 63 63 63 63 62 53 65 69 66 68 67 68 69 67 66 66 61 58 59 57 53 53 49 59 59 61
62 61 60 61 62 60 60 60 60 61 61 61 60 60 59 59 59 57 58 61 62 62 62 63 60 57 51 64 58 66 69 64 66 67 67 67 65 58 56 51 49 51 47 48 52 59 59
61 62 62 61 60 59 60 60 60 60 60 60 59 58 58 58 59 56 57 60 61 61 62 61 58 51 55 53 59 61 66 66 62 62 59 58 57 52 51 48 43 46 44 48 49 55 55
61 61 61 61 59 60 60 59 59 59 59 57 57 57 57 57 58 57 55 54 47 47 54 52 52 52 54 59 63 58 64 61 61 58 48 52 44 41 49 51 52 47 46 46 51 55 51
61 61 60 60 59 60 59 58 58 58 58 56 55 56 56 57 57 57 53 48 54 59 45 53 54 54 56 59 51 55 63 54 53 47 51 45 39 51 52 51 48 47 44 45 51 54 51
60 60 60 59 59 58 58 58 57 58 57 55 55 56 56 56 57 54 49 50 56 56 49 47 52 52 53 56 52 51 58 54 50 45 46 45 46 50 47 46 43 45 44 45 44 50 52
59 60 58 58 58 57 57 57 57 57 57 57 55 55 56 56 52 53 48 56 54 52 37 40 44 50 53 56 49 59 61 55 48 45 47 46 52 45 44 43 46 41 49 46 43 40 36
59 58 58 58 57 56 57 57 56 56 57 57 56 55 55 55 51 48 50 53 51 48 26 43 42 58 55 50 51 49 60 54 45 45 45 42 42 42 39 42 47 42 47 45 44 41 39
59 58 57 56 56 56 56 56 56 57 57 57 56 54 53 52 52 55 54 51 48 32 26 37 43 41 42 47 48 50 50 56 54 46 46 46 50 48 47 48 48 49 44 43 43 38 28
58 58 57 56 56 56 56 56 56 57 57 56 53 52 51 53 47 56 52 44 30 30 42 34 38 41 42 41 43 46 43 40 40 32 33 42 44 48 49 42 47 45 38 32 27 26 30
57 56 56 56 56 56 55 56 56 57 57 55 52 54 53 54 56 55 47 36 28 39 40 45 43 43 40 44 42 44 41 37 45 42 36 34 34 43 47 44 42 40 40 33 26 31 36
56 56 56 56 56 56 55 55 55 56 56 55 53 49 50 54 55 50 39 32 34 40 44 41 41 37 37 43 44 42 40 40 44 44 35 32 33 45 46 49 47 38 32 45 34 38 29
56 56 56 56 56 55 55 55 56 56 55 54 47 45 48 52 54 46 35 35 39 46 47 46 37 42 36 38 40 40 40 47 46 50 51 42 32 43 45 47 46 43 46 32 32 24 25
56 56 56 56 55 55 55 56 56 56 55 54 45 40 49 53 50 38 33 35 42 49 50 44 41 40 42 40 42 40 42 45 48 47 50 46 39 37 40 37 40 37 33 35 37 35 27
56 56 56 56 55 54 55 55 55 55 54 51 42 34 49 51 36 37 35 40 46 45 49 47 48 46 43 43 40 41 41 44 50 48 41 47 40 31 36 48 50 48 42 40 29 29 32
56 55 55 56 55 55 55 55 55 54 53 47 38 40 49 49 35 36 39 43 45 44 45 46 45 48 48 43 38 43 43 49 49 48 45 46 35 29 34 40 45 38 43 43 38 36 30
56 55 55 55 55 55 54 54 54 54 54 50 39 35 40 44 47 41 41 41 41 48 46 48 46 49 46 43 45 41 41 46 50 49 48 48 41 33 33 37 42 33 38 39 34 30 34
55 55 55 55 55 55 54 54 54 54 54 47 42 38 42 35 40 46 46 44 41 41 48 50 45 46 45 40 41 41 43 44 46 47 48 45 32 35 38 40 38 36 36 36 32 36 32
55 56 56 55 55 55 54 54 54 54 53 45 38 39 46 42 46 46 43 42 42 43 46 43 44 47 47 43 44 41 44 44 44 47 45 45 34 35 32 39 39 34 37 37 36 36 39
55 55 55 55 55 54 54 54 54 54 52 43 44 46 44 43 43 44 43 44 44 47 47 49 48 46 43 46 51 52 52 50 48 46 43 38 34 32 31 42 40 33 36 37 37 38 40
55 55 55 55 54 54 54 53 53 54 53 45 45 43 42 38 43 44 45 46 45 47 45 47 49 46 50 55 56 53 52 50 48 46 49 39 34 34 30 35 29 41 45 44 41 42 44
55 55 54 54 54 53 53 53 53 53 54 46 47 44 42 41 46 45 46 46 47 49 47 47 49 52 55 52 44 40 41 41 44 46 46 47 39 33 31 32 40 44 43 43 41 43 50
54 54 54 54 53 53 53 53 53 53 53 47 46 48 45 42 44 50 47 47 45 45 45 47 50 53 52 46 42 33 36 40 39 40 45 44 42 36 34 30 31 44 49 50 50 42 51
53 53 53 53 53 53 53 53 53 52 53 48 46 48 44 40 51 52 47 46 50 48 45 46 46 46 48 43 38 35 36 43 39 38 37 36 35 33 34 33 41 49 50 50 41 44 50
53 53 53 53 52 52 52 52 52 52 52 49 45 48 42 40 47 52 54 49 47 50 45 47 45 44 42 37 37 38 38 44 41 44 43 42 38 35 38 34 34 51 50 46 51 52 50
53 52 52 52 52 52 52 52 52 52 52 51 42 48 48 40 46 52 54 55 56 57 51 47 47 46 46 40 40 40 39 43 43 41 45 40 47 47 45 48 53 54 54 56 51 50 50

GFSGBSN_sfc_temp_015.txt.gz
Temp
63 63 63 63 63 63 63 63 62 62 62 62 62 62 62 62 62 62 62 63 64 65 64 64 64 64 63 55 56 73 69 71 74 71 68 67 65 65 60 64 65 61 64 69 70 68 68
63 63 63 62 62 62 62 62 62 61 62 62 62 62 61 61 61 61 61 62 63 65 64 64 63 63 62 51 71 74 74 73 74 69 66 67 65 68 63 62 61 65 64 65 67 67 67
62 63 62 61 61 62 61 61 61 61 61 62 61 61 61 60 60 60 60 60 62 64 64 63 63 65 60 60 74 74 73 72 73 72 65 68 67 61 61 57 64 62 56 62 64 65 64
62 62 63 62 62 61 60 60 60 60 61 61 61 60 60 60 59 59 59 59 59 62 63 63 63 65 56 69 74 69 73 70 73 74 68 67 67 62 62 63 60 55 58 52 64 64 66
63 63 62 61 62 61 60 60 60 60 60 60 60 59 59 59 59 58 59 58 59 61 63 63 62 61 55 65 62 70 72 67 70 71 70 69 63 59 59 53 52 55 50 54 58 66 63
62 62 61 61 61 60 60 59 60 59 58 58 58 57 57 57 57 57 58 57 57 60 61 62 63 53 60 57 63 66 71 70 65 65 62 61 60 54 55 53 45 50 49 53 53 61 59
61 61 61 60 60 59 59 58 59 59 57 57 57 57 56 57 56 57 55 50 49 48 51 52 54 56 58 63 66 62 68 66 64 60 50 55 46 45 53 55 56 53 51 51 57 61 56
60 60 60 60 60 58 58 59 58 58 57 57 57 56 56 56 57 57 55 44 46 52 44 57 58 58 62 64 54 59 68 57 53 47 52 45 41 54 58 56 53 51 48 48 55 59 55
59 59 60 59 58 58 57 57 57 57 57 57 57 56 55 56 56 55 53 47 52 51 46 49 57 56 55 59 55 53 61 59 53 48 48 45 50 54 53 50 47 49 47 48 49 54 54
59 59 59 59 58 57 57 57 56 56 56 56 57 57 55 55 52 54 51 54 52 51 36 39 45 53 56 58 51 62 64 58 52 47 49 48 55 49 49 46 50 44 55 52 48 45 41
59 58 57 57 57 56 56 56 56 57 57 57 57 56 55 54 47 48 53 52 50 47 27 44 46 61 58 53 53 52 64 56 48 50 50 46 46 46 44 47 51 46 50 48 47 43 41
59 57 57 57 56 56 56 56 56 57 57 57 56 53 53 51 52 54 58 51 48 32 27 37 44 43 45 52 51 53 52 58 58 50 51 50 54 51 50 52 52 51 47 45 44 38 29
58 57 57 57 57 57 56 56 56 56 57 56 56 53 53 53 44 59 53 48 31 30 44 35 39 43 44 43 45 46 44 43 42 33 35 44 46 50 52 45 49 47 38 33 30 27 31
57 57 57 57 56 56 56 56 57 57 56 55 54 53 53 53 58 57 46 39 28 42 42 46 42 43 39 43 45 45 42 39 48 47 41 34 36 46 50 46 44 41 40 35 29 34 39
57 56 56 57 57 56 56 56 56 56 55 55 54 53 49 55 58 53 42 30 34 44 46 41 41 37 38 43 44 45 43 42 48 49 38 38 36 50 51 51 50 41 34 46 35 40 32
56 56 56 57 56 56 56 56 56 56 55 55 47 47 48 56 54 48 39 34 39 50 50 48 38 42 36 40 40 42 42 50 46 52 54 45 35 46 49 50 50 46 49 32 33 25 28
56 57 56 56 56 56 55 56 55 55 55 54 47 39 47 56 54 43 34 35 44 52 52 47 45 43 44 41 45 42 44 49 53 52 53 48 42 39 43 40 43 40 37 36 40 36 29
56 56 56 55 56 55 55 55 55 55 54 51 41 34 49 56 38 41 37 38 48 47 50 50 52 50 48 47 45 46 46 48 54 54 45 50 42 33 39 50 53 49 43 42 30 32 34
56 56 56 55 55 55 55 55 55 55 54 49 40 40 49 48 36 38 38 42 48 45 48 49 47 51 52 48 42 47 48 53 53 51 48 49 38 31 35 44 50 43 46 46 42 38 30
56 56 56 56 55 55 55 54 54 55 55 49 41 35 41 47 48 44 39 44 43 50 49 52 50 52 49 47 50 46 45 49 53 53 49 51 42 35 35 38 44 34 40 43 38 31 35
56 56 56 56 55 55 54 54 54 54 54 49 44 40 44 37 44 44 46 46 43 44 50 53 48 49 49 44 45 44 48 48 50 51 50 47 33 38 41 43 42 39 39 40 33 35 30
56 56 56 55 55 55 54 54 54 54 54 47 39 39 47 48 51 48 47 47 46 46 49 47 48 50 50 47 47 43 47 48 47 49 47 47 35 36 32 41 41 37 43 42 38 38 36
55 55 55 55 54 54 54 54 54 54 53 44 46 47 43 46 49 49 48 48 47 50 50 52 51 49 47 49 53 54 55 54 52 47 43 41 35 33 32 44 42 36 38 38 39 41 38
55 55 55 54 54 54 54 54 54 53 53 46 46 45 41 41 49 49 49 50 49 50 47 50 53 49 51 58 57 56 55 53 52 48 48 39 34 35 32 37 30 44 48 46 42 47 49
54 54 54 54 54 54 53 53 53 53 53 46 46 44 42 43 47 50 50 49 51 52 50 50 52 55 58 54 47 44 43 42 46 48 46 45 39 34 31 34 42 45 49 44 40 43 52
54 54 54 53 53 53 53 53 53 53 53 48 47 47 44 40 48 54 51 52 47 48 48 50 54 57 55 49 44 36 36 42 40 39 46 46 44 36 34 30 31 46 54 54 52 42 53
54 53 53 53 52 52 52 52 52 53 53 49 46 48 43 40 53 54 51 50 54 52 50 50 49 49 53 42 38 38 37 46 39 41 38 38 37 33 33 32 40 52 54 54 41 45 53
54 53 53 53 52 52 52 52 52 52 52 50 45 48 42 38 43 53 58 54 53 54 48 50 47 48 45 41 41 41 40 45 43 49 46 43 39 37 36 32 33 56 55 47 53 56 55
53 53 53 52 52 52 52 52 52 52 52 52 43 48 48 39 41 51 58 60 61 61 55 53 49 49 49 42 40 41 38 44 45 39 52 43 50 46 47 49 59 60 56 59 57 54 55

GFSGBSN_sfc_temp_018.txt.gz
Temp
63 63 63 63 63 62 62 62 62 62 62 62 62 62 62 62 62 62 62 62 62 64 63 64 64 64 62 53 56 71 70 71 72 68 65 65 62 60 55 60 62 58 61 66 67 66 65
63 63 63 63 63 62 62 61 61 61 61 62 62 62 61 61 61 61 61 61 61 62 62 64 64 63 57 49 72 74 73 72 70 66 63 66 64 66 61 61 59 62 62 62 64 64 64
63 63 63 63 62 62 62 61 60 60 60 61 61 61 61 60 60 60 60 60 60 61 62 64 64 63 57 57 74 72 72 71 73 68 63 66 67 62 62 55 62 61 53 57 59 61 60
62 63 62 62 62 61 61 60 59 59 60 61 60 59 59 59 59 59 59 59 59 59 60 62 64 61 53 71 72 70 72 70 72 72 67 66 66 61 59 61 59 52 52 44 59 61 62
62 62 62 62 62 62 61 59 59 59 60 59 59 58 58 58 58 58 58 58 59 59 60 62 59 57 51 64 62 69 71 66 69 70 65 66 63 58 58 51 46 49 41 46 52 61 59
62 61 61 61 60 59 59 59 59 58 59 58 58 58 57 57 57 57 57 58 58 59 58 59 62 51 58 55 63 67 70 70 63 61 59 58 55 50 50 46 36 43 43 48 48 55 55
60 60 61 61 60 60 59 58 58 58 58 58 57 57 57 56 56 56 55 52 47 47 51 48 51 55 58 63 66 62 67 64 63 57 49 54 46 41 48 50 51 51 47 45 51 58 52
61 60 60 59 58 58 58 58 57 58 57 57 57 57 57 56 57 57 54 45 45 46 42 52 58 59 61 63 53 58 67 55 53 46 51 46 39 51 55 56 51 48 44 43 50 56 51
60 60 58 58 58 58 58 57 57 57 57 57 57 57 57 55 56 53 51 49 50 49 42 47 55 55 56 60 54 53 61 57 50 46 45 44 48 54 51 49 46 45 43 44 44 50 51
60 60 58 59 58 58 58 57 57 57 57 57 57 57 56 55 50 50 48 53 50 50 35 39 44 53 56 58 51 61 63 58 51 45 48 46 54 50 47 46 48 40 50 49 47 40 32
59 59 58 58 58 58 57 57 57 57 57 57 57 57 55 52 46 45 52 52 50 45 26 40 44 62 57 52 51 52 63 57 48 48 48 43 46 45 43 46 50 44 49 46 44 38 33
59 58 57 57 57 58 57 57 56 57 57 57 56 56 56 50 47 51 55 51 45 29 26 36 43 44 45 51 51 53 53 57 58 51 51 49 53 49 48 52 50 50 46 42 40 34 20
58 58 57 57 57 57 57 56 57 57 56 56 56 54 53 54 45 55 53 45 30 26 40 34 38 44 44 44 45 46 43 42 39 33 34 43 44 48 51 43 47 46 38 24 23 25 21
58 57 57 57 57 57 57 56 57 57 56 55 55 54 54 53 54 54 48 35 24 35 38 45 43 43 40 44 43 43 41 38 45 43 36 30 32 44 49 44 41 41 39 26 22 21 27
58 57 57 57 56 57 56 57 57 56 55 54 54 53 50 52 55 52 42 29 30 37 44 40 42 37 37 43 43 41 40 40 45 47 34 33 35 49 49 49 47 39 31 40 31 32 22
57 57 57 56 56 56 56 56 56 54 54 54 49 48 47 55 55 49 38 34 34 49 47 47 36 42 34 38 40 40 40 46 46 50 51 44 32 45 47 48 47 43 46 31 31 15 20
57 57 57 57 56 56 56 56 56 54 54 55 49 40 48 55 53 43 33 33 40 51 51 47 43 42 42 38 42 40 41 48 50 49 51 47 38 37 40 38 38 38 35 36 35 30 21
57 57 57 56 56 55 55 55 55 54 55 51 45 35 50 54 37 38 35 37 47 46 51 51 52 50 44 44 42 42 43 47 53 51 43 49 41 27 34 46 48 45 39 38 29 24 29
57 57 56 56 56 55 55 55 55 55 55 49 41 41 50 47 34 36 39 42 48 46 49 49 48 52 51 45 41 46 47 51 51 49 45 47 35 24 28 39 45 39 42 43 41 37 28
56 56 56 56 55 55 55 54 54 55 55 51 42 35 42 44 45 40 38 41 40 49 50 52 50 52 49 46 49 43 44 48 51 50 50 50 41 30 25 30 37 32 37 41 38 29 31
56 56 56 56 55 55 54 54 54 54 54 51 46 41 46 38 43 43 45 44 43 44 51 53 48 50 48 42 44 43 46 45 49 49 48 44 32 33 37 40 39 37 37 39 34 35 30
56 55 55 55 55 55 54 54 54 54 54 48 41 39 43 47 49 46 45 44 44 47 48 47 47 50 49 45 46 43 46 46 44 47 43 45 33 35 32 38 38 34 38 40 40 38 37
55 55 55 55 55 54 54 54 54 54 52 43 46 48 42 47 47 45 45 47 47 49 49 52 51 48 47 47 51 51 51 52 49 45 42 39 35 32 28 40 37 32 38 40 41 43 41
55 55 54 55 54 54 53 53 53 53 52 44 45 44 40 41 46 48 50 50 48 49 46 50 52 49 49 55 54 53 50 51 50 46 47 38 34 33 30 32 23 40 47 47 43 45 47
55 54 54 54 54 53 53 53 53 53 53 45 46 42 41 38 48 49 49 49 49 49 48 49 51 52 55 50 43 41 40 42 43 47 45 45 37 33 30 27 36 42 47 44 39 40 48
54 55 54 54 53 53 53 53 53 53 53 47 46 46 42 39 44 51 49 50 43 44 44 48 52 53 51 45 41 33 34 38 35 37 45 44 42 35 34 28 25 44 49 51 48 36 49
54 54 53 53 53 53 52 52 53 53 52 48 45 47 42 39 47 46 48 47 51 49 45 47 47 45 48 41 36 36 34 41 35 36 35 36 36 32 32 31 35 48 50 52 35 38 48
53 53 53 53 53 53 53 52 52 52 52 49 45 48 41 37 40 48 51 49 50 48 44 46 43 44 43 38 38 38 37 41 37 43 40 37 35 33 34 31 27 49 48 40 46 48 49
53 53 53 52 53 52 52 53 53 53 52 51 42 49 47 38 39 47 48 50 55 54 51 49 46 46 45 40 39 40 36 38 38 33 46 38 43 42 39 39 51 52 50 50 50 47 47

GFSGBSN_sfc_temp_021.txt.gz
Temp
63 64 64 63 63 63 63 62 62 61 61 61 61 62 62 62 62 61 62 62 62 62 62 63 64 64 59 52 53 68 72 74 71 67 61 58 55 54 50 53 55 52 56 61 62 62 61
63 63 63 63 63 62 63 63 61 60 60 59 61 62 61 61 60 60 60 61 61 61 61 62 63 63 54 47 67 71 69 66 65 64 60 59 57 59 54 54 53 57 57 57 59 59 59
62 62 63 63 63 62 61 60 60 60 60 61 60 60 60 60 59 60 60 60 60 61 60 60 62 61 53 54 69 69 71 67 67 64 59 62 65 60 56 52 57 56 50 53 54 57 55
62 62 62 61 62 62 61 61 59 59 59 59 59 59 59 59 59 59 58 59 59 60 59 59 62 58 48 67 66 68 70 68 67 69 65 63 65 60 55 56 55 50 48 39 52 57 57
61 61 61 61 61 60 60 59 59 59 58 59 59 58 58 58 57 57 57 58 58 59 59 59 56 53 47 66 62 66 66 64 65 65 62 65 59 56 56 49 44 43 35 40 46 58 56
60 61 61 60 60 60 60 59 58 58 59 59 58 57 57 57 57 57 57 57 58 58 57 58 58 48 54 53 61 65 65 66 60 60 56 55 51 47 47 45 33 37 36 42 42 51 53
60 61 60 59 60 60 59 59 59 59 58 58 58 57 57 57 57 57 53 47 43 45 50 47 48 51 56 62 65 60 64 62 59 54 46 50 43 40 44 43 46 43 41 39 45 53 48
60 60 60 59 60 60 59 59 59 58 59 58 57 57 58 58 56 56 50 42 44 44 36 51 54 56 59 61 52 57 64 53 52 45 50 45 39 46 50 51 48 44 40 38 45 51 48
60 61 60 59 59 58 59 58 58 58 58 58 58 57 57 56 55 50 47 46 50 50 35 46 51 54 54 58 51 52 58 54 48 46 46 39 45 51 50 47 44 40 38 39 40 45 45
59 60 59 58 59 58 58 58 57 57 58 58 57 57 57 56 48 46 45 50 50 49 31 39 44 53 55 56 48 59 60 55 50 45 46 45 52 49 45 44 45 36 46 45 43 36 29
60 60 59 58 58 57 58 58 57 57 57 57 56 56 56 56 46 42 47 50 49 43 24 39 43 59 55 49 50 52 61 57 46 46 45 40 46 45 41 44 47 41 46 43 41 34 30
59 59 58 57 57 57 57 58 57 57 57 56 56 55 55 51 47 48 51 50 45 29 24 36 44 45 44 48 49 51 53 57 56 50 48 46 50 47 45 49 48 48 42 40 37 30 17
58 58 58 57 57 57 57 57 57 57 56 55 55 55 53 52 45 51 51 44 28 22 37 35 38 43 43 41 44 46 44 42 37 32 34 43 42 46 49 41 44 42 33 18 18 21 20
58 58 58 58 57 57 57 57 57 56 55 54 54 55 53 53 53 50 46 34 23 35 34 43 43 43 38 42 41 44 41 37 41 39 29 26 25 40 46 41 37 36 35 21 19 17 24
57 58 57 58 57 57 57 57 57 55 55 55 54 46 48 49 52 49 40 26 27 35 42 40 42 37 37 43 40 41 40 40 41 41 30 26 32 45 46 47 45 36 29 38 27 27 17
58 58 57 57 57 57 56 56 56 55 56 55 43 42 45 52 53 47 37 31 32 45 45 46 33 40 33 38 36 39 38 43 43 46 44 42 31 42 44 46 45 40 42 25 23 12 17
57 57 57 57 56 56 56 56 56 56 56 55 42 39 47 53 50 41 32 32 40 50 49 44 38 39 39 38 38 37 37 44 46 45 46 45 36 34 43 36 35 35 31 33 32 26 18
57 57 57 57 56 55 55 55 55 55 56 49 42 34 47 50 35 37 33 35 43 46 49 50 49 44 40 40 38 37 36 44 50 51 41 47 38 26 31 41 44 40 36 35 27 21 25
57 57 56 56 55 55 55 55 55 55 56 46 36 40 48 44 31 34 39 43 46 43 46 48 46 48 47 40 37 42 43 47 50 50 41 45 32 22 29 36 40 37 39 40 39 34 27
56 56 56 56 55 55 55 54 54 54 55 47 41 30 37 40 39 39 39 39 40 48 48 50 48 49 45 44 45 41 39 45 48 48 51 49 37 27 24 28 35 31 36 38 37 29 30
56 56 55 55 55 55 54 54 54 54 54 46 42 35 41 29 35 37 40 41 41 42 48 49 46 47 45 40 41 39 41 42 46 48 46 45 28 30 35 37 36 34 35 37 33 35 30
56 55 55 55 54 54 54 53 54 54 53 43 39 38 42 37 42 38 40 39 41 43 45 44 44 47 45 41 43 40 42 40 39 41 40 41 25 33 26 36 35 31 36 38 39 39 38
55 55 55 55 54 54 53 53 53 53 50 42 45 46 42 39 39 36 38 42 43 45 47 48 47 45 42 44 46 46 50 49 47 41 39 39 32 27 22 36 33 29 35 39 42 43 41
54 55 55 55 54 53 53 53 53 53 52 44 44 43 40 35 39 41 48 46 44 45 43 47 49 45 47 52 50 47 44 44 46 45 44 37 34 33 28 30 22 39 44 45 41 44 45
54 55 55 54 54 53 53 53 53 53 53 44 45 41 40 36 38 45 48 44 44 44 44 45 48 48 50 47 40 37 36 41 43 44 43 44 36 33 30 29 33 40 44 41 39 40 45
54 54 54 54 53 53 53 53 53 53 53 41 45 45 40 37 40 45 44 45 39 36 40 44 48 50 48 42 38 30 31 37 34 36 44 42 42 35 33 27 23 40 45 48 45 36 46
53 54 53 54 53 53 53 53 53 53 52 43 40 46 41 37 41 43 43 44 49 42 39 41 42 43 45 38 34 31 29 38 31 33 35 36 35 33 32 31 34 44 46 48 33 37 43
53 53 53 53 53 53 53 53 53 53 52 44 39 43 40 36 37 44 47 42 44 47 43 43 41 42 39 35 35 34 33 36 34 37 36 35 33 32 34 30 26 47 45 40 45 44 44
52 53 52 53 53 53 53 53 53 53 52 50 35 43 44 37 37 45 46 48 48 49 45 47 43 42 42 37 36 37 34 36 34 30 42 37 39 37 37 36 46 48 49 46 46 44 43

GFSGBSN_sfc_temp_024.txt.gz
Temp
63 63 63 63 63 63 63 62 61 60 61 61 60 61 61 62 61 61 60 61 62 62 62 62 62 63 58 50 52 68 71 72 71 66 60 57 53 52 48 51 52 48 51 57 59 59 58
63 63 62 62 62 63 62 61 60 60 60 60 60 60 60 60 60 59 59 60 61 61 61 61 61 61 55 45 67 69 67 67 67 63 58 57 55 56 52 52 50 54 55 55 56 56 57
62 62 62 62 61 60 60 60 60 60 60 60 59 59 59 59 59 59 59 59 60 60 60 61 61 59 52 51 67 67 67 63 63 63 57 58 58 55 55 50 56 55 48 51 53 55 54
62 62 62 61 61 60 61 60 59 60 60 59 59 59 58 58 58 58 58 58 59 59 59 61 60 56 48 65 67 66 68 65 66 65 63 62 63 57 54 54 53 49 46 40 51 54 56
62 62 61 61 60 61 61 60 60 60 60 59 59 59 58 58 58 58 57 58 58 58 59 60 53 53 48 65 59 65 65 62 64 61 61 65 61 54 52 45 40 42 34 38 44 54 54
61 61 61 61 61 60 60 60 59 59 60 59 58 58 58 58 57 57 57 57 57 57 56 58 55 47 52 52 60 63 63 64 60 56 56 55 51 47 45 42 32 36 34 38 40 49 50
61 61 61 60 59 59 59 60 59 58 58 59 59 58 57 57 58 56 52 45 42 42 47 46 48 50 53 60 64 60 64 60 56 54 45 50 43 40 44 45 43 46 43 37 42 50 46
61 60 60 59 59 59 58 59 59 58 58 57 58 58 58 58 57 56 49 40 42 44 37 46 52 53 59 60 52 57 63 52 50 43 48 45 40 47 50 49 46 42 37 36 43 48 45
60 61 60 59 58 59 58 58 59 58 58 58 57 57 57 57 55 50 44 45 50 50 36 43 50 53 54 58 51 51 58 53 49 46 46 42 45 51 48 47 43 38 37 36 38 43 42
59 60 59 59 58 58 57 58 58 57 58 58 57 56 56 56 47 47 43 49 50 49 30 38 43 50 55 55 47 58 61 54 50 45 46 45 49 46 42 43 43 35 43 43 41 36 28
59 59 59 59 57 58 57 58 58 58 57 56 56 56 56 55 45 43 46 49 47 44 21 39 43 59 54 48 49 51 61 56 45 46 45 39 43 43 40 43 46 40 45 42 39 32 28
59 59 58 59 58 58 58 58 58 57 56 55 55 54 55 48 47 48 48 49 43 29 22 35 43 44 45 47 48 52 53 57 55 47 47 43 49 46 44 47 46 47 41 37 34 29 18
58 58 58 58 58 58 57 58 57 56 56 56 56 56 52 52 44 49 49 43 28 22 36 35 38 43 42 41 44 46 44 43 38 34 34 42 41 45 47 40 43 41 33 18 17 14 19
58 58 58 58 58 57 57 57 57 56 56 56 56 54 52 52 50 48 46 32 22 33 34 43 42 43 37 41 43 43 42 38 43 38 34 28 25 39 44 40 37 35 34 21 19 17 22
58 58 58 58 57 57 57 56 56 56 56 56 54 47 48 48 51 50 39 27 27 32 40 39 43 36 35 39 40 41 40 39 40 40 31 26 30 43 44 45 43 34 26 36 26 24 15
57 58 57 57 56 56 56 56 56 56 56 56 42 43 45 52 52 46 35 31 32 39 46 45 31 37 31 34 35 38 38 43 41 44 42 37 27 40 43 45 43 39 40 25 19 10 16
57 57 57 57 56 56 56 56 55 56 56 54 43 38 47 51 49 40 31 32 39 48 47 44 37 37 40 38 35 35 36 41 45 44 45 40 33 33 40 35 34 33 28 30 29 25 17
57 57 56 56 55 55 55 55 55 55 55 48 38 29 46 47 34 37 33 36 42 43 46 45 44 41 39 38 35 34 34 39 47 46 39 43 34 21 31 39 42 38 34 33 22 20 22
57 56 56 56 55 55 54 54 55 55 55 42 35 36 45 43 28 36 38 40 44 43 44 44 43 44 43 38 34 38 41 46 48 46 41 43 31 19 28 35 37 34 37 37 35 34 22
56 56 56 55 55 54 54 54 54 54 55 44 36 29 36 39 40 38 35 37 39 47 46 47 44 46 42 41 42 39 38 45 47 49 50 47 34 26 23 26 32 28 34 36 34 24 27
56 55 55 55 55 54 53 53 54 54 54 44 37 34 38 30 35 35 37 39 39 40 47 47 44 44 42 39 39 37 39 41 45 49 47 43 27 27 33 36 34 33 34 35 29 34 27
55 55 55 55 55 54 53 53 53 53 53 44 37 38 42 37 38 37 38 37 39 41 43 42 42 44 45 40 40 37 40 38 38 39 41 40 24 33 30 34 34 30 34 36 37 39 38
55 55 55 55 54 54 53 53 53 53 49 43 43 46 42 38 36 34 36 39 41 43 45 46 45 43 41 43 45 45 46 45 43 39 36 36 31 28 23 33 32 27 32 36 39 41 38
54 54 55 55 54 54 53 53 53 53 50 40 44 42 39 33 35 38 42 44 43 43 41 44 46 43 46 50 49 47 45 46 45 44 44 37 34 33 26 29 20 37 42 43 39 42 42
54 54 54 55 54 54 53 53 53 53 53 39 44 41 39 35 38 39 41 42 43 42 42 43 45 46 49 46 39 36 35 41 42 44 42 43 37 32 28 28 33 38 41 40 37 39 44
53 54 54 54 54 53 53 53 53 53 53 39 44 42 40 36 35 41 42 45 37 35 39 42 46 48 46 41 37 30 29 34 34 36 43 42 41 35 33 26 24 38 43 46 44 33 44
52 53 53 53 53 53 53 53 53 53 53 41 38 41 36 36 40 38 37 41 43 38 36 39 40 41 44 36 33 31 28 39 33 33 34 35 35 32 33 30 32 43 44 46 32 36 44
52 52 53 52 53 53 53 53 53 53 53 44 38 41 35 31 35 42 44 42 42 42 38 41 40 40 37 34 33 33 32 34 32 35 36 36 33 33 34 30 27 46 42 39 45 43 44
51 52 52 53 52 52 53 53 53 52 53 48 39 41 42 36 32 40 44 44 44 48 43 45 41 40 40 35 34 35 32 35 32 28 37 35 39 35 35 36 46 47 46 46 45 43 42

GFSGBSN_sfc_temp_027.txt.gz
Temp
63 63 63 62 63 62 61 61 60 60 61 61 60 60 60 60 60 59 60 60 61 61 61 61 62 62 57 49 51 67 71 72 69 65 59 56 51 51 47 50 51 48 50 56 58 58 55
63 63 62 63 62 61 61 62 61 60 60 60 60 60 60 59 60 59 59 60 60 61 61 61 61 61 53 44 65 68 68 66 65 61 57 56 53 55 50 49 49 53 54 55 55 55 55
62 63 62 62 61 61 61 61 61 60 61 61 59 59 59 59 59 58 59 59 59 60 60 60 61 57 50 51 65 65 67 65 64 62 55 58 58 54 52 49 55 53 47 49 51 54 53
61 62 62 62 62 60 60 61 60 60 60 61 60 59 59 58 58 58 58 58 59 59 59 60 60 53 47 63 65 63 64 60 61 62 61 60 61 55 52 54 51 47 45 39 49 53 54
61 62 61 61 60 60 60 60 60 59 59 59 59 58 58 58 58 58 58 58 58 58 59 59 53 51 46 65 58 63 65 59 60 60 60 64 58 52 50 44 39 40 34 37 44 52 51
61 62 61 61 60 59 59 59 59 59 59 58 58 58 58 58 57 57 57 57 57 56 54 56 54 46 50 51 59 62 64 63 59 55 55 54 50 44 42 39 33 35 35 36 38 46 47
60 60 61 60 59 59 59 58 58 60 58 58 57 58 58 58 58 57 52 44 41 41 45 43 46 47 50 59 63 58 63 59 56 52 46 50 44 41 41 42 43 42 38 37 41 48 44
60 60 60 60 60 59 59 58 58 58 58 58 58 58 57 57 57 56 48 39 42 44 36 48 48 50 57 58 51 55 62 52 49 44 46 44 40 47 50 47 47 45 38 35 41 45 43
60 60 60 60 60 59 59 59 59 59 58 58 57 56 56 56 55 50 44 43 51 46 37 44 49 49 53 57 49 51 58 54 47 44 45 41 44 48 47 44 43 39 35 35 37 41 40
60 60 60 59 60 59 59 58 58 58 56 56 55 54 54 55 48 47 43 49 50 46 30 38 43 50 54 54 46 58 61 54 48 43 46 45 49 45 44 43 43 34 42 42 39 35 28
59 59 59 59 59 58 58 58 57 57 57 57 57 56 53 55 45 43 46 48 48 42 21 37 43 54 54 47 48 51 59 56 46 45 45 39 44 42 40 42 48 42 44 40 37 31 27
59 59 59 59 58 58 57 57 57 57 57 56 56 55 54 47 47 48 48 48 42 28 23 34 42 44 44 46 47 51 52 57 55 46 47 44 48 47 44 45 45 47 39 35 31 29 18
58 58 58 58 58 57 57 57 57 57 57 56 55 55 51 51 43 50 47 40 28 22 35 34 38 43 43 42 44 46 45 42 38 34 33 41 41 46 47 40 43 40 32 19 18 16 20
58 58 58 58 57 57 57 57 56 57 56 56 55 53 50 49 47 47 44 34 24 31 35 42 43 43 37 42 43 43 40 37 41 38 34 32 29 39 43 40 37 34 34 22 19 16 22
57 58 57 57 57 56 57 56 56 56 56 56 53 45 46 47 50 47 39 26 27 32 41 39 42 35 35 40 41 39 39 37 39 38 31 30 29 42 43 43 42 34 25 34 25 22 16
57 57 57 57 56 56 56 56 56 56 56 55 42 41 44 50 49 42 33 32 34 39 45 41 30 36 33 35 36 36 39 43 43 43 41 36 27 39 41 44 42 37 39 25 20 12 16
57 57 57 56 55 55 55 55 55 55 56 54 40 38 47 49 46 36 31 33 40 47 45 41 35 36 36 35 36 35 36 40 45 42 42 39 33 34 38 34 33 34 28 29 28 24 17
57 56 56 56 55 54 54 54 55 55 55 47 37 30 45 46 33 37 34 37 43 41 44 43 42 39 36 37 35 33 34 38 45 44 38 41 32 22 31 38 41 37 33 31 21 19 20
56 56 56 56 55 54 54 54 54 55 55 41 35 35 44 43 29 36 38 38 41 41 42 43 40 42 40 37 33 35 38 44 46 44 39 42 28 17 26 32 36 32 35 35 32 27 18
56 56 55 55 55 54 54 54 54 54 55 43 36 30 36 38 37 36 34 36 38 45 43 45 42 43 40 38 39 36 37 43 46 47 50 46 33 26 22 26 30 26 33 35 31 22 24
55 55 56 55 55 54 54 53 53 53 53 42 36 35 37 31 34 35 35 38 38 38 44 44 41 42 41 36 36 35 38 39 44 49 44 41 26 27 32 35 33 33 34 33 28 32 26
55 55 55 55 55 54 53 53 53 53 52 41 36 39 42 36 36 35 37 36 38 40 42 41 40 42 41 38 39 35 39 37 38 40 41 38 26 32 26 33 32 30 33 34 35 35 35
54 55 55 55 55 54 53 53 53 53 49 39 40 45 41 38 34 33 35 39 40 42 44 44 43 40 40 42 43 45 44 44 43 39 36 35 32 29 25 32 31 27 32 34 35 38 37
54 54 54 54 54 54 54 53 53 53 48 42 43 41 39 32 33 35 38 40 41 41 39 43 44 41 44 48 48 46 44 43 43 40 42 34 34 32 27 29 20 36 39 40 38 40 40
54 54 54 53 52 53 53 53 53 53 52 38 41 37 38 35 39 36 38 38 41 41 40 41 43 45 47 45 38 35 36 40 42 43 42 43 37 30 28 28 31 36 39 38 37 38 43
53 53 53 53 53 53 53 53 53 53 53 38 42 38 37 35 33 40 37 37 35 34 38 41 44 46 45 40 37 30 27 31 33 36 42 42 41 34 32 27 22 36 42 44 43 33 44
52 53 53 53 52 52 53 53 53 53 52 41 37 39 34 34 40 40 34 38 40 36 36 37 39 40 42 35 32 30 28 35 32 33 33 35 35 32 32 30 31 42 44 45 31 35 42
52 52 52 52 53 51 52 53 53 53 53 45 38 40 35 29 32 38 41 37 40 39 35 39 39 39 36 33 32 32 31 33 31 35 32 35 33 32 33 31 26 44 43 38 43 42 43
51 50 50 51 52 53 52 52 53 53 53 47 36 42 42 34 32 38 41 42 41 43 40 42 40 38 39 34 33 33 32 34 32 28 35 34 36 33 34 36 45 46 44 45 44 42 41

GFSGBSN_sfc_temp_030.txt.gz
Temp
63 63 63 62 62 62 61 61 62 61 61 61 62 60 60 60 60 60 59 60 60 60 61 61 61 61 56 49 49 64 69 70 68 64 60 57 53 50 47 49 50 48 50 54 57 57 55
63 62 62 62 62 62 61 61 61 60 60 61 62 60 60 59 59 59 59 59 60 60 61 61 60 61 51 44 63 65 66 66 64 60 56 57 55 55 51 49 49 52 53 53 54 55 54
62 62 63 62 62 61 60 60 60 60 59 60 60 60 59 59 59 59 59 59 59 60 60 60 59 57 48 49 64 63 65 64 65 61 55 57 58 54 52 48 53 52 46 47 50 52 52
62 62 62 62 61 60 60 59 59 60 59 59 59 59 58 59 58 58 58 58 59 59 59 60 60 54 46 60 59 60 64 59 60 61 60 59 60 55 51 52 50 46 45 38 48 51 53
61 61 61 61 61 61 60 59 59 58 59 59 59 58 58 59 58 57 57 57 58 58 59 59 51 49 46 59 55 61 62 58 58 59 59 63 57 51 49 43 41 39 33 36 43 51 50
61 61 60 61 60 60 60 60 60 59 59 59 58 58 58 58 58 58 57 57 57 55 54 56 54 44 50 49 54 60 60 61 58 57 55 53 52 43 40 43 32 37 33 35 37 44 45
61 61 60 60 60 60 60 60 59 59 59 59 58 58 58 57 57 57 51 44 40 39 43 40 44 48 50 57 61 56 60 57 54 52 45 49 43 40 43 42 41 41 37 36 39 46 42
61 60 60 60 59 60 59 59 59 58 58 58 57 55 54 56 55 55 47 40 40 43 34 47 47 50 54 56 49 53 61 50 49 42 46 43 40 46 46 46 44 42 37 34 40 44 41
60 60 60 60 60 59 59 59 58 59 58 58 57 57 53 54 54 50 44 42 47 46 36 41 47 47 51 54 49 49 56 52 47 44 44 41 43 48 49 46 44 41 37 34 36 40 39
60 59 59 59 59 59 58 58 58 58 57 57 56 56 55 54 48 47 42 48 47 45 29 34 41 47 52 54 46 57 57 52 47 42 45 41 47 46 44 43 44 37 41 41 38 34 29
59 60 59 59 59 58 58 58 58 58 57 56 56 55 55 54 45 44 44 48 47 41 20 38 43 54 53 46 47 50 57 54 44 43 44 39 41 41 41 41 46 40 43 39 36 31 27
59 59 58 58 58 57 57 57 57 57 57 56 55 55 53 49 47 49 46 46 41 23 20 35 42 45 43 46 46 51 51 54 52 44 45 42 49 46 44 44 47 46 39 35 31 28 18
58 58 58 58 57 57 57 57 56 57 57 57 56 54 50 49 40 47 45 40 25 24 35 34 38 42 41 41 44 46 44 42 39 34 33 40 40 45 47 40 42 41 36 21 19 15 19
58 58 57 57 57 56 56 56 56 56 56 56 55 53 50 48 48 48 44 34 22 33 35 43 41 41 36 40 42 43 41 38 41 38 33 30 31 41 44 40 37 33 33 22 19 15 21
57 57 57 57 56 56 56 56 56 56 56 56 53 44 44 48 51 48 38 28 27 32 41 40 41 36 35 39 41 39 36 36 38 37 30 26 29 41 43 42 41 33 25 32 23 21 17
57 57 57 57 56 55 55 55 56 56 55 55 41 40 41 49 48 41 31 33 34 39 43 40 31 35 29 35 35 37 35 40 40 41 40 34 28 38 41 43 41 37 39 26 21 13 17
57 57 56 56 56 55 55 55 55 55 55 53 39 36 45 47 44 37 29 33 41 46 44 39 33 33 33 33 34 35 35 39 42 40 43 37 32 33 38 33 33 34 28 28 27 24 17
56 56 56 56 55 55 54 54 55 55 55 46 36 31 44 45 34 38 35 38 43 41 43 42 41 38 34 34 31 32 34 37 44 44 38 39 32 21 31 36 39 35 32 30 20 18 20
56 56 56 56 55 55 54 54 54 54 54 42 34 34 43 43 30 34 38 39 40 40 41 40 39 41 39 35 33 35 37 43 45 43 39 40 28 19 27 33 35 32 34 34 31 26 16
56 56 56 56 55 54 54 54 54 54 54 41 35 30 36 38 36 38 37 35 37 43 42 43 40 41 39 36 38 35 36 42 44 45 49 45 32 27 23 27 31 26 32 33 31 17 24
55 55 55 55 55 55 54 53 53 53 53 42 35 35 39 32 33 31 33 36 36 37 42 42 39 40 39 33 35 34 37 38 43 48 42 41 25 26 31 34 32 32 32 32 28 30 24
55 55 55 55 55 55 54 53 53 53 52 40 36 37 42 38 34 32 35 35 37 39 39 38 38 40 39 36 37 34 38 36 36 41 38 38 29 32 23 32 31 29 32 34 33 35 34
54 54 55 55 54 54 54 53 53 53 49 42 42 44 40 38 32 31 33 35 38 41 42 42 42 39 38 40 41 42 43 43 41 38 35 36 30 24 20 30 30 26 31 33 35 36 36
54 54 54 54 53 53 53 53 53 53 47 40 41 40 38 31 31 33 37 38 38 40 38 41 42 40 43 47 45 45 41 41 41 38 40 34 31 30 20 27 19 34 38 39 38 39 39
54 53 54 54 52 53 53 53 53 53 51 38 38 36 37 33 37 34 36 36 39 39 39 40 42 43 45 44 38 35 37 40 41 42 42 43 37 28 22 28 31 36 37 37 37 38 42
53 53 53 53 53 51 52 53 53 53 52 39 38 37 35 34 30 40 38 35 33 32 36 39 43 45 44 39 37 30 27 30 31 35 42 41 40 31 31 26 22 36 41 44 42 34 43
53 52 52 52 53 53 51 51 53 53 52 41 38 38 33 27 34 36 36 37 40 35 33 35 38 39 41 36 33 30 27 33 29 30 32 34 35 32 31 27 31 40 44 45 31 35 42
52 52 52 51 52 52 53 51 52 52 53 44 39 40 35 29 32 36 39 36 36 41 35 37 37 38 35 33 32 31 29 31 30 32 33 33 31 31 33 28 25 43 42 39 44 41 42
51 51 51 51 50 52 52 52 50 52 53 47 40 43 42 35 33 39 41 42 39 40 37 40 37 37 38 33 31 32 31 31 30 27 32 30 34 31 33 33 43 45 45 47 45 44 40

GFSGBSN_sfc_temp_033.txt.gz
Temp
64 63 63 63 62 62 62 61 61 60 61 61 61 60 60 60 60 60 60 60 60 61 60 61 61 60 56 48 50 63 66 69 68 65 60 57 54 53 50 51 52 51 52 56 59 58 58
63 63 63 63 62 62 62 61 60 60 60 60 60 59 59 59 59 59 59 59 60 60 59 61 60 59 50 41 61 60 63 65 64 62 59 58 56 57 53 52 52 54 55 56 57 57 58
63 62 62 62 62 61 61 60 60 60 60 59 59 59 58 59 58 59 59 59 59 59 59 59 58 56 47 48 62 58 63 62 65 62 57 59 62 56 54 50 55 53 49 52 53 55 55
62 62 61 62 62 61 60 60 61 61 61 61 59 59 58 57 58 58 58 58 59 59 59 60 60 53 43 62 60 59 62 59 64 64 62 61 62 57 55 55 52 48 49 42 52 52 55
61 61 61 62 62 60 60 60 60 59 59 59 59 58 58 58 58 58 58 58 58 59 59 58 51 48 42 60 54 60 62 57 59 59 58 63 60 54 53 46 42 44 37 39 46 53 52
61 62 61 61 61 61 60 60 59 59 59 59 59 58 56 57 58 58 58 58 56 55 54 55 52 43 49 48 54 60 61 59 56 54 54 54 51 45 44 43 34 36 38 40 42 49 48
61 61 61 60 60 60 60 59 59 59 59 58 58 57 57 55 56 55 51 45 41 39 43 40 43 45 50 55 58 56 59 57 57 52 44 49 42 40 45 45 44 43 41 40 44 49 47
61 61 61 60 60 60 59 58 59 59 58 58 58 57 56 54 55 55 46 40 39 42 34 47 48 48 52 56 48 52 56 51 48 42 47 44 39 46 48 46 45 43 39 39 44 47 46
60 61 60 60 59 59 58 58 58 59 58 57 57 57 56 54 55 49 45 42 47 47 36 42 46 45 50 53 48 48 52 50 45 42 45 41 45 49 47 44 43 41 39 38 40 43 43
60 60 60 59 59 58 58 57 58 58 58 57 56 56 55 54 48 47 41 47 46 46 30 35 41 47 51 53 45 56 52 50 46 38 44 42 47 47 45 43 45 38 45 43 41 38 34
59 59 59 58 58 58 58 57 58 58 57 57 56 55 55 54 43 41 44 47 46 42 22 36 41 52 51 47 48 48 55 54 44 42 43 38 43 42 42 44 47 40 44 40 39 35 34
59 59 58 58 57 57 57 57 57 57 57 57 56 55 54 47 45 45 46 47 43 24 22 34 43 43 43 46 46 48 49 53 51 44 44 41 47 44 42 44 44 45 40 37 34 33 26
58 58 58 58 57 57 57 57 56 57 56 56 56 55 50 48 39 46 45 39 23 22 36 35 37 43 41 41 43 46 42 40 39 33 33 38 41 46 44 38 43 43 39 26 24 23 27
58 58 57 57 57 56 56 56 57 56 56 56 55 52 50 48 49 49 45 29 25 34 35 42 40 41 37 39 41 44 42 36 41 40 34 32 30 41 45 41 37 38 37 27 24 23 27
57 57 57 57 57 56 56 56 56 56 56 56 53 43 43 46 50 47 35 30 24 33 42 40 39 35 35 39 40 39 37 36 40 41 33 30 30 43 43 43 43 36 30 36 25 24 23
57 57 57 57 56 56 56 55 56 55 55 54 40 39 41 47 46 44 34 34 35 40 42 39 31 35 29 35 35 36 36 40 39 42 41 36 28 40 41 44 42 39 39 29 25 19 22
56 57 57 57 56 55 55 55 55 55 55 53 39 37 44 46 44 37 32 33 39 44 43 38 33 32 32 33 34 33 35 40 43 41 42 38 34 35 39 36 34 35 32 31 31 27 23
56 56 57 56 56 55 55 55 55 55 55 45 36 32 44 44 35 37 34 38 42 40 42 41 40 37 34 35 33 33 34 38 45 44 38 40 33 27 33 38 41 38 35 33 27 23 24
56 56 56 56 56 55 55 54 54 55 54 43 34 34 43 42 34 35 39 40 41 40 40 40 38 40 38 35 32 35 38 43 45 44 40 41 30 21 28 34 37 35 35 35 32 29 22
55 56 56 56 55 55 54 54 54 54 54 41 34 29 36 37 35 34 33 34 36 42 41 42 39 40 37 35 37 35 36 41 43 44 48 45 33 28 24 28 32 28 33 34 32 24 26
55 55 55 55 55 55 54 54 54 54 53 41 34 35 39 31 32 32 32 35 35 36 41 41 38 39 37 32 33 32 36 38 42 47 42 40 27 28 33 35 33 33 34 32 28 31 28
55 55 55 55 54 54 54 53 54 53 52 40 35 36 42 39 33 30 34 33 35 37 37 36 37 39 38 35 37 34 37 35 36 39 38 38 29 31 25 34 33 30 33 34 34 35 34
54 55 54 55 54 54 54 53 53 52 49 40 42 44 40 38 31 29 32 34 37 39 40 41 41 39 37 39 41 41 41 42 41 38 35 37 31 25 22 32 31 27 31 33 35 36 37
55 54 54 54 54 53 53 53 53 53 47 39 37 40 37 33 31 32 35 35 36 38 37 40 41 39 42 45 44 44 41 40 41 38 40 34 33 28 23 28 20 35 39 39 37 39 39
54 54 54 54 54 53 51 52 53 53 50 39 37 35 37 28 34 32 36 34 36 38 37 39 41 43 45 42 37 34 35 39 40 42 42 43 37 28 23 24 31 36 37 36 36 39 42
54 54 53 53 53 53 51 50 52 53 50 41 38 38 34 31 29 39 38 38 31 30 35 38 42 44 42 39 38 30 27 30 31 35 42 41 39 31 31 25 21 37 41 45 44 36 45
54 53 53 53 52 52 52 52 50 52 52 43 39 40 34 30 32 33 32 36 41 37 32 34 36 38 40 36 35 33 27 33 28 31 33 34 35 31 31 29 30 40 43 45 34 38 44
53 52 52 52 52 51 51 52 52 50 52 45 41 40 37 31 33 36 38 34 35 39 36 36 38 37 34 34 34 34 29 31 29 32 35 33 31 32 33 28 25 43 41 39 46 44 45
52 51 52 52 52 50 51 52 52 50 51 48 39 42 43 36 35 40 42 42 40 40 36 38 36 35 37 33 31 31 30 30 29 26 32 30 34 32 33 33 41 43 45 46 46 45 43

GFSGBSN_sfc_temp_036.txt.gz
Temp
64 63 63 62 63 63 63 62 60 61 61 62 61 60 60 59 60 60 60 60 60 61 61 60 61 60 59 51 54 65 62 68 69 68 65 63 60 57 55 58 59 58 60 64 66 64 65
63 63 62 62 62 62 61 62 61 61 62 62 62 60 59 59 59 59 59 58 60 60 60 60 60 59 54 42 68 63 59 66 66 67 64 64 63 64 59 58 58 61 60 63 64 64 63
62 63 62 62 62 61 61 62 60 61 60 60 60 60 59 59 58 58 59 59 59 59 59 59 59 59 51 50 66 63 59 62 66 68 61 66 69 62 63 55 63 60 55 59 60 63 62
62 63 63 61 61 61 61 61 61 60 60 60 60 60 59 58 58 57 57 58 58 59 59 58 59 56 46 64 67 60 62 61 68 70 67 67 69 64 62 63 59 56 56 48 60 62 62
62 62 61 62 61 61 61 61 59 60 60 60 59 59 58 56 58 58 58 59 59 59 59 59 55 52 46 64 55 60 59 57 64 65 65 66 66 60 59 54 49 54 48 50 52 60 61
62 62 62 61 61 61 61 60 60 59 60 59 59 59 58 55 57 57 58 57 57 56 58 59 57 45 52 52 58 56 59 60 59 58 56 56 55 53 56 53 42 45 48 49 50 54 56
61 62 61 61 60 60 60 60 59 59 59 59 58 58 57 56 56 56 56 55 49 47 50 46 47 44 52 60 61 54 60 56 59 54 45 51 47 43 51 55 54 53 50 48 52 54 53
61 61 61 60 60 59 60 59 59 59 59 58 57 57 56 56 56 55 55 47 46 48 41 50 48 48 52 58 52 54 60 50 52 45 50 44 41 54 56 54 52 52 48 47 49 53 53
60 61 60 60 59 59 59 58 58 59 59 57 57 56 56 55 55 54 50 47 54 52 42 44 45 45 50 58 52 50 55 47 49 45 46 42 48 55 52 50 49 49 47 45 47 50 51
60 60 59 59 59 58 58 58 58 58 58 57 56 56 56 55 53 52 47 52 54 53 34 36 41 46 52 55 46 55 54 49 44 42 46 44 51 51 50 49 53 44 50 48 46 46 44
59 59 59 59 58 58 58 58 58 57 57 57 56 56 56 55 52 48 48 53 54 50 27 37 41 54 54 47 48 47 54 49 41 41 44 39 44 47 47 49 54 47 51 48 46 45 43
59 59 58 58 58 57 57 57 57 57 56 56 56 56 54 54 53 50 53 53 50 33 26 35 44 43 46 45 47 49 49 52 50 42 44 41 47 45 45 45 53 50 48 45 45 44 35
58 59 58 58 58 57 57 57 57 57 57 56 56 55 54 54 50 54 53 49 34 30 37 36 39 44 43 41 43 46 43 42 39 33 33 36 37 42 45 40 45 47 45 34 33 32 36
58 58 58 58 57 57 57 56 56 56 56 56 56 54 54 55 57 54 51 41 31 35 38 45 46 47 39 42 41 42 40 39 47 45 37 37 31 39 42 39 37 42 45 39 31 33 38
57 58 57 58 57 57 57 56 56 56 55 55 53 54 53 55 55 54 45 34 32 34 44 44 46 41 40 44 46 46 44 43 46 48 40 38 34 46 46 47 45 38 37 44 36 35 36
57 57 57 57 57 56 56 56 56 56 55 54 51 51 52 54 54 50 44 35 37 43 46 47 39 42 38 41 42 45 44 47 44 48 50 42 33 43 44 48 48 46 47 37 36 29 32
57 57 57 57 57 56 56 56 56 55 55 53 52 50 52 53 52 50 34 36 42 48 49 45 42 41 41 41 42 42 42 45 49 47 50 47 43 37 44 41 42 41 41 40 42 38 35
56 56 57 56 56 56 55 55 55 55 55 51 47 44 53 53 46 46 38 41 44 47 50 48 48 45 43 42 41 42 42 45 51 51 45 46 43 33 37 43 46 45 44 45 39 31 35
56 56 56 56 55 55 55 55 55 55 54 48 44 46 54 51 42 43 45 45 46 47 47 47 45 47 47 43 40 43 43 48 50 50 47 48 40 30 31 39 43 40 44 43 40 39 32
55 55 56 56 55 55 55 54 54 54 54 50 45 42 49 50 47 46 44 43 44 48 47 48 47 48 46 43 46 42 43 46 49 49 49 50 41 36 35 35 41 34 40 41 41 33 37
55 55 55 55 55 55 54 54 54 54 53 50 44 37 41 40 43 43 43 43 42 43 48 49 46 47 46 41 42 42 44 45 47 48 48 48 34 35 39 40 39 39 39 39 34 41 36
55 55 55 55 55 54 54 53 54 53 52 49 41 40 45 42 40 41 42 43 42 44 45 45 44 47 48 44 46 42 45 45 45 47 46 45 34 35 33 38 38 35 40 41 40 41 41
55 55 54 55 54 53 53 53 53 53 51 45 45 47 42 41 40 42 43 42 43 45 48 48 49 48 46 48 51 52 53 53 51 47 44 43 35 33 32 37 37 33 38 40 42 43 43
54 54 55 54 54 54 53 52 53 53 49 45 43 41 39 38 41 40 39 40 41 43 42 48 50 49 50 54 54 54 52 50 50 48 50 42 38 37 32 35 27 42 46 46 44 46 47
54 54 54 54 53 53 53 52 51 53 51 46 44 41 39 36 39 39 39 38 42 45 45 46 49 51 56 51 46 42 42 43 43 45 47 49 44 35 32 33 40 45 42 42 42 44 49
54 54 54 53 53 52 53 53 52 52 50 47 44 43 40 34 39 39 39 41 38 42 45 46 50 53 52 49 43 36 33 39 36 39 46 46 48 40 34 27 29 44 49 51 51 41 51
54 54 53 53 53 52 52 52 52 51 50 48 45 45 40 34 40 39 39 39 42 40 40 43 45 47 49 45 40 37 36 41 35 35 35 38 37 34 36 32 40 50 50 52 37 43 52
54 53 53 53 53 52 50 52 51 50 50 48 46 46 43 37 40 40 42 40 41 41 36 39 42 42 41 39 39 39 40 41 38 43 40 39 36 34 37 32 29 51 48 44 51 52 51
54 53 52 52 52 51 51 51 52 51 50 49 43 46 46 38 39 44 45 47 46 45 39 39 35 39 45 42 43 44 40 41 42 35 44 37 44 41 42 42 52 52 52 54 54 52 51

GFSGBSN_sfc_temp_039.txt.gz
Temp
64 63 63 63 63 63 62 63 62 62 62 62 61 61 60 60 60 60 60 60 60 60 61 60 60 60 60 53 56 67 65 70 67 69 65 64 63 61 56 62 64 59 66 69 70 66 67
63 63 63 62 62 62 62 62 62 61 61 61 61 61 60 59 60 59 59 58 59 60 60 60 60 60 56 45 70 69 62 67 64 65 67 68 66 67 61 62 61 64 65 65 67 65 66
63 63 63 62 62 62 61 62 61 61 61 61 62 60 59 59 59 58 58 58 59 59 60 59 59 61 53 52 70 66 61 64 65 66 65 71 72 65 65 57 66 63 59 61 63 64 63
63 63 63 62 62 61 61 61 61 60 60 61 60 60 59 58 57 58 58 58 58 58 59 59 59 59 48 66 71 65 61 60 67 68 71 72 73 67 62 64 60 56 58 50 60 61 64
62 62 62 62 61 61 61 61 60 60 60 60 59 59 59 57 58 58 58 58 59 59 59 59 57 54 48 66 59 65 64 56 62 65 71 70 64 62 62 55 51 54 47 51 54 63 62
62 62 62 61 61 61 60 60 60 60 60 59 59 58 58 58 57 57 58 57 57 57 59 61 59 48 55 53 60 60 64 59 56 61 57 54 54 54 54 53 43 47 48 54 53 57 59
61 61 61 60 60 60 60 59 60 60 60 58 58 57 57 57 57 56 57 57 51 48 53 48 48 47 51 62 61 56 61 54 60 54 47 50 46 45 52 57 59 58 53 53 57 58 55
61 61 61 60 60 60 59 59 59 59 59 58 57 57 57 57 56 56 60 52 48 48 43 52 51 49 53 54 48 53 59 48 53 44 54 44 39 55 59 59 57 54 52 51 55 58 54
60 61 60 60 60 59 59 59 58 58 58 58 57 57 56 56 56 58 53 50 57 56 38 43 46 45 50 52 47 48 51 48 51 47 48 43 46 57 55 53 52 53 51 50 49 52 56
60 60 60 59 59 59 58 58 58 58 58 57 57 57 56 56 54 56 49 54 56 54 34 35 40 48 52 52 45 54 53 47 45 46 49 45 53 53 51 50 55 48 56 53 49 47 44
59 59 59 59 59 58 58 58 58 58 57 57 57 57 56 58 56 52 52 57 57 50 27 39 42 57 57 51 49 47 55 49 42 43 43 39 45 48 48 52 58 50 55 52 49 47 46
59 59 59 59 58 58 58 58 57 57 57 56 56 56 56 57 59 57 58 57 52 33 26 37 46 46 47 51 47 49 48 52 47 44 44 42 47 49 52 51 56 55 51 50 49 46 35
58 59 58 58 58 57 57 57 57 57 56 56 56 56 56 59 54 60 57 49 34 32 39 37 41 45 44 43 43 45 43 39 35 33 33 38 37 44 47 46 52 52 47 35 33 32 36
58 58 58 58 58 57 57 57 57 57 56 55 55 55 58 60 62 58 51 42 32 36 41 48 48 46 39 43 42 43 41 39 43 43 36 34 30 36 41 44 42 47 47 39 31 35 40
57 58 58 58 58 57 57 57 57 56 56 55 54 60 57 61 60 54 45 35 33 36 47 46 49 43 42 47 44 45 47 42 45 49 38 37 33 40 41 43 48 39 37 48 40 42 39
57 57 57 57 57 57 57 57 56 56 55 55 55 57 58 59 59 51 46 36 40 48 50 50 42 46 43 45 45 47 47 50 48 52 53 47 33 43 43 44 42 41 49 37 39 30 34
57 57 57 57 56 56 56 56 56 56 55 55 55 53 57 59 57 53 37 36 47 52 52 48 46 45 47 45 47 47 46 49 52 51 55 52 46 39 46 41 39 38 36 41 44 41 35
56 56 56 56 56 55 55 55 55 55 55 55 52 46 57 59 49 53 44 47 46 51 54 51 51 49 48 48 46 47 46 50 55 55 49 50 45 35 39 47 49 49 47 48 39 35 40
55 56 56 56 56 55 55 55 55 55 54 49 49 52 59 57 45 47 49 49 51 50 51 51 49 50 51 48 43 47 48 52 54 53 50 52 42 31 34 42 46 42 47 47 46 42 35
55 56 56 55 55 55 54 54 54 54 54 52 50 42 56 58 56 52 49 48 47 51 51 52 50 52 50 47 50 46 46 49 52 53 49 53 45 38 37 37 44 37 43 46 42 35 40
55 55 56 55 55 55 54 54 54 54 54 53 51 44 45 44 50 50 49 48 46 46 51 52 49 50 49 45 46 46 49 47 50 49 52 51 36 37 43 44 42 41 42 43 37 41 39
55 55 55 55 55 54 54 53 53 53 54 54 42 38 46 47 46 47 44 47 46 48 48 48 46 50 51 48 50 46 49 49 47 50 49 49 35 38 34 42 42 38 43 44 43 43 44
55 55 55 54 54 54 53 53 53 53 54 49 48 50 42 45 46 46 48 47 47 48 51 52 51 51 48 51 55 56 58 57 54 49 47 46 37 34 34 41 39 34 41 43 45 47 47
55 55 54 54 54 53 53 53 52 53 52 51 47 43 42 42 45 44 44 45 45 47 45 51 54 51 52 59 59 58 56 55 54 53 54 46 40 39 33 37 27 44 50 49 46 48 50
54 54 54 54 54 53 53 53 53 53 52 51 48 44 41 38 44 45 44 44 46 50 47 49 53 55 60 55 49 44 43 44 47 50 51 53 46 37 33 35 43 47 47 45 44 45 52
55 54 54 54 53 53 53 52 52 51 51 52 49 47 42 36 41 42 41 45 41 45 48 50 54 57 56 52 46 37 35 42 37 42 50 50 50 42 37 30 31 45 51 54 53 42 53
55 54 54 53 53 53 52 52 52 51 51 51 49 48 43 36 45 43 41 40 46 42 40 47 46 49 53 46 40 37 38 45 37 37 37 39 41 35 36 33 41 53 53 55 39 42 54
55 54 53 53 53 52 52 52 52 51 51 48 49 49 45 40 43 45 44 41 43 43 38 40 44 45 43 41 39 42 41 45 43 46 42 39 36 36 38 33 30 54 51 45 52 56 55
54 53 53 52 53 53 52 52 51 52 51 48 42 49 48 39 42 49 48 49 46 46 40 42 37 38 40 41 46 47 44 48 45 39 50 40 46 43 45 44 54 56 56 57 57 55 54

GFSGBSN_sfc_temp_042.txt.gz
Temp
64 64 64 64 63 62 62 63 62 61 62 62 62 63 61 60 60 60 60 60 60 60 59 59 58 57 56 49 52 69 72 70 69 65 64 60 60 58 53 57 60 56 61 65 67 64 62
64 64 64 63 63 62 62 62 62 61 61 62 62 62 61 60 60 59 58 59 59 58 60 60 60 60 53 42 68 70 66 66 63 62 63 62 62 64 59 60 57 61 62 63 65 62 63
63 63 63 63 62 62 62 62 61 61 61 61 61 61 60 60 58 57 58 59 58 58 59 60 60 59 51 50 68 65 62 60 64 62 62 66 68 63 61 56 63 62 55 59 59 60 60
63 63 63 62 62 61 61 61 61 61 61 60 60 60 59 58 58 58 58 58 59 58 59 59 59 57 46 66 67 65 59 59 64 64 64 68 70 64 61 61 58 55 53 46 57 60 61
62 62 62 61 61 61 60 60 61 61 60 60 59 59 59 59 58 58 58 58 59 59 59 59 56 53 46 66 58 64 61 56 62 62 61 70 64 58 59 49 46 49 42 45 51 61 59
62 62 61 61 61 61 60 60 60 60 60 59 59 58 58 58 58 58 58 58 58 57 58 61 59 47 53 52 60 62 62 59 56 56 55 57 53 48 49 46 35 41 42 48 47 55 56
61 61 61 61 61 60 60 60 59 60 60 58 58 57 57 58 57 57 56 55 48 47 52 45 45 47 49 56 64 56 59 54 54 50 46 50 43 40 46 51 51 51 48 46 52 57 53
61 61 61 60 60 60 60 60 59 59 59 58 58 57 57 57 58 59 55 50 48 49 41 53 52 51 54 55 48 50 56 48 49 43 49 43 40 50 54 54 53 52 46 47 51 55 52
60 61 60 60 60 60 59 59 59 59 58 57 57 57 57 57 57 56 50 48 55 55 37 44 47 45 49 50 47 47 51 49 47 46 46 42 46 56 54 51 50 49 45 46 45 50 51
60 60 60 60 59 59 59 59 58 58 58 57 57 57 57 56 51 56 50 55 56 55 33 37 42 47 51 50 44 53 53 48 46 44 48 46 51 50 49 49 53 44 53 52 48 42 36
59 59 59 59 59 58 58 58 58 58 57 57 56 57 57 56 52 52 53 58 57 49 25 39 43 52 51 45 46 46 54 48 45 46 45 40 44 43 44 49 54 49 53 49 47 41 39
59 59 58 59 58 59 58 58 58 58 57 56 56 56 56 57 55 57 58 57 50 32 24 37 44 44 44 47 47 48 47 50 50 44 45 42 47 46 47 52 54 55 48 46 44 41 27
58 58 58 59 59 58 58 58 58 57 57 56 55 56 54 58 52 59 56 46 32 28 40 38 40 46 45 42 44 44 41 39 37 33 33 36 37 44 46 45 50 49 41 27 26 25 25
58 58 58 58 58 58 57 57 57 57 56 55 55 55 56 58 60 57 49 38 28 36 40 48 46 46 41 44 42 43 40 37 41 41 35 33 29 38 42 43 39 43 41 30 25 24 28
57 57 57 58 58 57 57 57 57 56 56 55 55 57 56 58 59 54 41 33 31 36 48 46 47 42 42 45 44 41 40 38 42 45 36 34 32 40 41 45 45 40 32 43 33 35 26
57 57 57 57 57 57 57 56 56 56 55 55 51 54 55 59 58 49 41 35 39 49 51 51 42 46 41 45 44 44 42 44 46 49 50 43 31 38 40 43 44 40 45 35 30 21 25
56 57 57 57 56 56 56 56 56 56 55 55 51 49 53 58 55 46 36 36 47 53 52 47 46 45 47 44 46 46 45 48 51 50 52 49 40 35 38 36 36 36 34 36 37 32 25
56 56 57 56 56 55 55 55 55 55 55 54 48 42 54 56 44 47 40 47 49 51 53 52 50 48 46 46 44 44 44 47 53 52 46 47 39 32 37 45 49 44 41 40 30 28 29
55 56 56 56 55 55 55 55 55 55 54 48 44 48 55 54 40 44 48 49 51 50 51 50 49 50 50 46 40 46 45 50 52 50 44 47 35 28 31 38 43 40 44 43 41 37 32
55 56 56 56 55 55 54 54 54 54 55 49 46 39 49 51 51 48 46 47 46 50 51 52 50 51 47 45 48 43 44 48 50 51 50 50 41 32 26 31 38 33 40 43 37 28 34
55 55 55 55 55 55 54 54 54 54 54 49 48 41 44 38 44 44 48 48 46 45 50 52 48 48 47 42 44 43 46 44 48 48 47 45 31 32 38 42 38 37 39 41 33 36 30
55 55 55 55 55 54 54 53 53 53 54 49 41 38 43 42 46 44 43 46 46 48 48 47 45 49 49 45 46 43 46 44 42 45 45 45 32 34 29 41 39 33 39 40 41 41 40
55 55 55 55 54 54 53 53 53 53 53 46 46 48 42 42 43 42 42 44 45 48 50 51 49 48 46 48 51 51 51 51 48 44 42 41 32 28 26 38 35 28 36 39 41 42 42
54 55 55 54 54 54 53 53 53 53 52 48 45 43 39 38 42 41 44 44 44 46 43 48 51 49 49 54 53 51 48 49 49 46 48 40 35 32 24 29 18 39 45 46 43 45 45
54 55 55 54 54 54 53 53 53 52 52 48 47 42 39 35 39 41 41 43 44 47 45 48 51 51 54 50 45 39 39 40 46 46 45 47 40 34 30 25 35 40 42 42 41 41 49
55 55 54 54 53 53 53 52 53 52 52 49 47 46 41 35 36 41 38 42 37 38 43 47 52 53 50 45 41 35 32 37 35 39 45 48 46 37 35 26 23 40 46 50 48 37 49
55 55 54 53 53 53 53 52 52 52 51 48 47 47 41 35 42 41 37 36 42 39 37 43 42 46 48 40 38 35 34 40 34 34 34 35 35 30 33 30 34 46 49 50 34 37 48
54 54 54 53 53 53 53 53 52 52 52 47 45 48 41 37 40 45 45 38 39 40 34 39 39 42 40 35 35 34 34 37 35 39 37 35 31 33 35 31 25 48 46 39 45 48 48
54 54 53 52 52 52 52 52 52 52 52 49 41 46 46 38 39 46 46 47 45 43 38 39 36 38 36 36 37 38 36 39 38 31 42 34 39 36 37 36 47 49 46 49 50 49 48

GFSGBSN_sfc_temp_045.txt.gz
Temp
64 64 64 63 63 62 62 62 62 62 62 62 61 62 62 61 60 60 59 60 60 59 59 59 58 56 53 44 46 65 71 70 66 62 59 57 54 51 47 51 56 52 57 62 63 61 58
64 63 63 63 62 62 61 62 62 62 62 62 61 61 60 60 60 59 59 59 59 59 60 60 60 58 49 39 63 64 63 67 64 61 59 58 57 57 51 53 52 57 58 59 61 61 63
63 63 63 62 62 62 62 61 61 62 61 61 60 60 60 60 59 59 59 59 59 59 60 60 60 58 49 46 61 62 62 59 62 61 56 61 61 58 56 52 58 57 52 56 55 58 58
63 63 62 62 62 61 61 60 61 61 61 61 60 60 59 59 59 59 58 59 59 59 59 59 59 54 44 62 60 60 61 58 58 60 62 64 63 60 56 58 56 52 51 43 54 57 59
62 63 62 62 61 61 61 61 60 61 61 60 60 59 59 59 58 58 58 59 59 59 59 59 52 48 42 65 56 59 60 55 55 56 58 66 61 57 54 45 42 47 37 42 49 57 56
62 62 61 61 61 61 61 60 60 60 60 59 59 58 58 58 58 58 58 59 58 57 56 59 57 43 50 48 54 58 58 58 52 53 52 54 50 46 47 40 34 37 40 44 44 52 54
61 62 61 61 61 60 60 60 60 60 59 59 58 58 58 58 58 58 54 49 43 42 47 46 45 44 49 55 59 53 57 54 53 51 43 49 42 40 44 44 45 45 43 42 48 55 50
61 61 61 60 60 60 60 60 59 59 59 59 58 57 58 58 58 58 52 45 46 46 38 50 50 49 52 54 46 51 56 46 47 42 45 42 37 45 49 49 47 45 41 41 47 53 51
60 60 60 60 60 59 60 60 59 59 58 58 57 57 57 57 57 52 46 47 53 51 38 43 47 44 48 51 46 46 50 49 47 39 43 41 44 51 49 46 45 43 41 40 43 48 49
60 60 59 60 60 59 59 59 59 59 58 57 57 57 57 57 49 49 46 52 53 50 32 37 42 47 49 49 42 52 52 47 45 40 46 44 48 48 47 45 46 39 48 48 45 40 34
59 59 59 59 59 59 59 59 58 58 58 57 56 56 56 57 46 47 50 54 52 46 22 41 43 52 49 43 46 46 52 49 43 44 45 39 43 43 43 44 49 44 50 46 43 37 36
59 59 59 59 59 58 58 58 58 58 57 56 56 56 56 52 48 53 55 52 48 30 23 35 41 42 41 43 46 48 47 52 49 45 43 41 47 44 43 48 50 51 46 43 40 35 23
58 58 58 58 59 58 58 58 57 57 57 56 56 55 54 55 47 54 52 46 29 24 39 37 40 44 43 42 43 44 42 40 38 34 33 38 38 44 46 42 46 48 40 27 25 21 23
58 58 58 58 58 58 57 57 57 57 56 56 55 55 52 54 53 54 48 37 24 35 37 46 45 44 39 43 42 42 39 37 42 39 36 32 30 39 42 42 39 41 39 28 21 19 25
57 57 57 57 58 57 57 57 57 56 56 55 54 47 47 51 54 50 41 26 27 36 47 44 45 39 40 43 42 40 39 38 41 42 35 31 31 40 43 44 43 38 34 42 32 30 23
57 57 57 57 57 57 57 56 56 56 55 55 42 43 46 53 52 47 36 32 34 46 48 47 38 43 40 41 40 39 38 44 42 47 45 40 31 38 41 43 44 41 44 32 28 22 22
56 57 57 57 56 56 56 56 56 56 55 54 42 40 47 52 51 43 31 33 42 50 49 44 40 40 43 41 44 41 40 44 47 46 47 44 36 34 38 35 37 37 35 35 35 29 23
56 56 57 56 56 55 55 55 55 55 55 47 38 36 48 49 38 41 31 41 47 47 49 47 45 44 40 41 40 40 39 44 52 49 43 46 38 31 35 44 45 43 38 38 27 27 27
55 56 56 56 55 55 55 55 55 55 55 44 34 38 48 46 37 35 42 45 47 46 46 46 44 46 45 41 37 40 41 48 50 46 44 45 33 28 30 37 41 36 39 41 38 34 27
55 56 56 55 55 55 54 54 54 55 55 44 36 33 40 41 42 43 39 42 42 47 46 48 46 46 43 40 43 39 39 45 47 47 50 48 36 29 25 30 35 31 38 41 37 26 31
55 55 55 55 55 55 54 54 54 54 54 42 37 37 37 34 36 39 41 46 42 42 46 47 43 44 41 38 39 39 40 41 45 48 45 42 28 29 36 39 37 36 37 39 32 37 31
55 55 55 55 55 54 54 53 53 53 53 39 32 31 36 36 38 38 40 41 41 45 44 45 41 45 43 40 41 38 41 39 38 40 40 40 26 29 26 37 36 32 37 38 39 40 37
54 55 55 55 54 54 53 53 53 53 49 36 36 38 36 37 36 36 40 40 43 44 47 47 45 43 42 44 45 45 46 46 44 40 38 37 28 23 22 35 32 27 34 37 38 41 41
54 54 55 54 54 54 53 53 53 53 50 39 37 35 30 30 37 37 40 42 40 43 41 44 47 47 49 51 49 47 47 46 45 42 44 36 33 27 22 27 18 36 42 42 41 42 43
54 54 55 54 54 53 53 53 52 52 53 40 39 35 30 26 34 38 37 37 39 40 40 43 46 46 47 46 40 37 35 38 42 44 43 44 39 28 24 27 32 37 40 41 38 38 45
55 55 54 53 53 53 53 52 52 52 52 41 39 39 33 28 29 39 36 37 33 32 39 44 48 47 47 41 38 33 31 34 31 36 42 45 43 32 31 25 22 38 42 46 46 34 46
55 55 54 53 53 53 53 53 52 52 52 43 44 44 36 29 35 37 33 32 37 33 35 40 40 40 44 36 34 32 32 38 29 30 31 35 35 28 30 28 32 43 45 47 33 36 46
54 54 53 53 53 52 53 52 52 52 51 44 42 45 41 32 33 39 40 36 36 35 30 35 38 38 38 34 33 32 30 34 32 35 33 31 28 27 29 29 23 46 44 38 44 44 44
54 54 53 53 52 52 52 52 52 52 52 49 41 46 46 37 34 40 42 43 42 40 34 35 34 37 36 34 35 36 33 33 32 28 35 31 36 32 33 33 43 45 45 46 48 47 44

GFSGBSN_sfc_temp_048.txt.gz
Temp
64 64 63 63 63 63 62 63 62 62 62 62 61 61 61 61 60 60 60 60 60 60 59 59 58 58 55 45 47 62 66 66 67 63 59 56 51 51 46 49 53 50 57 61 60 57 56
64 64 63 63 63 62 62 62 61 62 62 62 61 61 60 60 60 60 60 60 60 59 60 60 59 57 50 38 60 62 61 63 63 60 58 58 53 54 49 50 50 54 57 56 57 57 58
63 63 63 62 62 62 62 61 61 61 62 61 61 60 60 59 59 59 59 59 59 59 60 60 60 57 48 43 56 61 61 57 64 60 57 61 59 54 52 49 53 54 50 52 55 58 57
63 63 63 62 62 62 61 61 61 60 60 61 60 60 59 59 59 59 59 59 59 59 59 59 60 53 42 61 60 59 61 56 57 58 61 63 62 55 51 54 52 48 49 42 52 56 59
62 63 62 62 62 61 61 61 61 61 60 60 60 59 59 58 58 59 59 59 59 59 59 59 50 47 40 63 54 58 58 54 55 56 57 63 58 51 50 44 40 42 36 42 47 56 55
62 62 62 61 61 61 61 60 60 60 60 60 59 58 59 58 58 58 59 59 58 56 55 57 55 42 49 48 53 56 58 57 53 53 51 52 49 45 43 42 35 38 37 45 43 51 53
61 61 61 61 61 60 61 61 61 60 59 59 59 58 58 58 58 58 53 48 42 41 46 43 44 43 47 53 57 52 57 52 52 48 41 48 42 39 42 43 44 44 40 41 45 52 50
61 61 61 60 60 61 60 60 60 60 60 58 58 57 57 58 58 58 50 43 44 45 37 48 48 47 50 52 45 50 56 46 43 40 43 42 39 45 48 48 46 44 40 37 45 52 50
60 60 60 60 60 60 60 60 59 59 59 58 57 57 57 57 57 51 45 46 51 51 38 43 46 44 47 50 44 46 51 47 42 39 39 41 45 49 48 44 42 39 38 37 40 46 47
59 60 60 60 59 59 59 59 59 59 58 58 57 57 57 56 49 47 45 51 51 50 32 38 41 45 49 49 41 52 51 47 43 40 41 44 47 46 45 43 44 35 46 45 43 39 33
59 59 59 59 59 59 58 58 59 58 57 57 56 56 56 56 45 44 49 51 50 45 22 40 42 53 49 44 45 46 52 50 43 39 43 38 42 42 41 44 47 42 48 44 41 36 35
58 58 59 58 58 58 59 57 58 58 57 56 56 56 55 50 47 50 54 53 47 25 18 35 42 41 39 43 45 48 47 50 49 44 43 41 47 43 42 46 48 48 43 40 37 33 23
58 58 58 58 58 58 58 57 57 57 57 56 55 55 54 53 44 52 53 44 23 22 38 36 39 41 41 42 43 44 42 40 38 33 32 38 39 44 44 41 47 43 37 22 24 23 24
57 58 58 57 58 58 57 57 57 57 56 55 55 54 53 52 51 52 48 32 19 33 37 45 43 41 38 43 42 41 40 36 42 38 33 32 30 39 43 41 39 41 36 25 21 20 24
57 57 57 57 57 57 57 57 57 57 56 55 53 46 45 49 52 52 40 21 25 32 44 42 43 38 39 42 42 40 38 39 40 37 34 32 30 41 44 45 42 38 32 37 28 26 20
56 57 57 58 57 57 56 56 56 56 56 55 41 42 44 51 52 48 35 30 32 44 46 45 35 41 35 38 38 39 38 44 42 43 42 36 30 38 41 45 42 38 43 32 26 20 20
56 56 57 57 56 56 56 56 56 56 55 53 41 39 46 51 52 43 25 28 39 48 47 42 38 38 39 39 40 38 36 42 46 43 44 40 34 34 39 37 37 37 35 36 36 32 22
56 56 56 56 55 55 55 55 55 55 55 46 37 38 46 50 39 39 29 38 47 45 47 45 44 42 38 40 37 36 37 41 47 47 40 42 35 30 34 42 45 43 38 39 30 25 26
55 56 56 55 55 55 55 54 55 55 55 41 34 36 46 48 37 32 40 43 45 44 44 44 42 44 43 39 35 38 39 45 48 45 42 44 32 26 28 34 41 37 39 41 37 33 25
55 55 55 55 55 54 54 54 54 55 55 42 36 30 39 42 44 37 38 39 40 45 45 46 44 45 41 39 41 36 37 44 46 45 50 47 34 29 26 30 34 32 37 39 36 26 33
55 55 55 55 55 54 54 54 54 54 54 42 34 33 34 34 39 40 41 43 40 39 44 45 41 42 39 35 37 35 38 39 44 47 43 41 28 28 33 37 35 34 35 38 34 38 33
55 55 55 55 55 54 54 53 53 53 52 36 30 29 33 31 36 39 40 39 39 45 42 44 39 42 41 37 38 36 39 36 37 38 38 38 25 28 25 36 35 32 35 37 39 39 37
54 54 55 54 54 54 53 53 53 53 47 34 34 35 34 34 33 35 37 39 40 43 45 45 41 40 40 42 43 43 44 44 42 39 36 35 27 22 20 32 32 27 33 35 37 40 39
54 54 54 54 54 53 53 53 53 53 47 37 35 33 29 28 30 33 37 40 39 40 39 42 44 44 44 47 46 45 44 42 42 38 41 34 29 25 20 26 17 35 39 41 40 41 43
54 54 54 54 53 53 53 53 53 53 52 39 37 34 29 26 30 34 34 36 39 40 39 43 45 47 47 44 38 34 34 36 39 40 39 40 34 26 21 20 31 37 38 37 35 36 44
54 54 54 53 53 53 53 53 52 52 52 40 37 37 32 28 27 36 32 36 30 34 37 43 48 46 44 39 36 28 25 30 30 35 43 43 43 32 29 25 21 35 41 44 44 32 44
55 54 54 53 53 53 53 52 52 52 51 42 39 40 33 28 32 33 30 31 36 32 33 38 38 40 42 34 32 30 27 35 29 29 31 34 35 31 27 26 30 40 43 46 30 34 44
54 54 53 53 52 52 52 52 52 52 51 42 39 44 39 32 31 37 38 32 34 33 29 34 36 37 37 33 33 31 29 32 29 32 31 31 29 28 29 26 23 43 41 37 42 43 43
54 54 53 53 52 52 52 52 52 52 52 46 39 46 45 34 33 38 39 40 40 39 34 34 32 35 35 34 35 35 32 31 30 27 32 31 34 30 33 33 43 44 44 46 46 46 43

GFSGBSN_sfc_temp_051.txt.gz
Temp
64 64 64 63 63 62 63 62 62 61 62 62 62 62 61 61 61 60 60 60 60 60 59 59 58 58 54 45 44 60 65 65 63 61 56 55 50 49 49 54 53 47 55 59 58 57 56
64 64 63 63 62 62 62 62 62 61 61 62 62 61 61 60 60 60 60 60 60 60 60 59 59 58 50 37 56 60 59 59 59 58 56 57 52 56 50 49 51 51 55 55 56 55 57
63 63 63 62 62 61 62 61 61 61 61 61 61 60 60 59 59 59 59 60 59 59 59 60 60 55 46 43 56 57 56 55 61 60 54 58 60 54 51 46 52 51 48 49 52 54 53
62 63 63 62 62 61 62 61 61 61 61 61 59 59 59 59 59 59 59 59 59 59 59 59 59 51 42 57 55 54 56 56 59 63 59 61 61 54 50 51 49 46 44 40 49 53 55
62 62 62 61 61 61 61 61 61 60 60 60 60 59 59 59 58 58 59 59 59 59 60 59 49 46 40 61 50 56 56 53 55 57 58 63 57 51 48 43 38 39 34 38 44 55 53
61 61 62 61 62 61 61 61 60 60 60 59 59 59 58 58 58 58 58 59 58 55 55 56 53 40 47 47 54 55 58 56 53 52 53 53 50 44 40 39 34 37 34 42 42 49 51
61 61 61 61 61 61 60 60 59 60 60 59 58 57 58 57 58 58 53 47 42 40 44 40 42 42 47 52 55 52 56 52 50 49 43 47 41 38 41 41 42 41 38 38 42 51 50
60 60 61 60 60 60 60 60 60 59 59 59 58 57 58 57 58 58 49 41 43 43 36 46 47 46 49 51 44 49 56 45 42 38 44 41 37 43 46 47 45 43 37 36 42 50 50
60 60 60 60 60 60 60 59 59 59 58 58 57 57 57 57 57 49 44 44 50 49 37 42 45 43 46 49 44 46 51 46 40 38 39 39 43 48 47 44 42 37 37 35 38 44 47
59 59 59 59 59 60 59 58 59 58 58 58 57 57 56 56 48 46 43 50 50 48 25 38 41 44 48 49 41 51 52 47 42 38 39 42 47 46 43 41 42 34 44 43 42 38 33
59 59 59 59 58 59 59 58 58 58 57 57 57 56 56 56 44 43 48 50 49 45 11 39 42 53 49 44 45 45 52 48 39 41 41 37 44 42 41 42 45 40 45 43 39 34 33
58 58 58 58 58 58 58 58 58 57 57 57 56 56 56 50 50 48 54 53 48 23 19 36 42 40 40 43 44 47 46 49 49 43 43 41 45 44 41 45 47 47 41 39 36 32 23
58 57 58 58 57 57 58 58 58 57 57 56 56 55 54 51 43 51 53 46 24 16 37 35 38 40 39 40 42 43 42 40 34 32 33 40 39 42 44 41 44 43 38 27 26 27 22
57 57 57 58 57 57 58 57 57 57 57 56 55 53 53 51 49 53 48 35 18 30 37 46 42 42 38 43 39 42 40 37 41 39 35 32 30 40 42 40 37 38 37 25 21 21 23
56 56 57 58 58 57 57 57 57 57 56 55 52 44 45 48 53 52 41 19 23 29 41 40 42 38 37 42 41 39 39 38 38 39 33 29 31 42 44 42 40 35 29 36 27 23 18
56 56 57 57 57 56 56 56 56 56 56 55 40 41 43 49 54 48 37 30 30 42 44 43 32 37 35 38 38 37 36 40 40 41 40 34 29 39 42 45 41 37 40 31 24 16 19
56 56 57 56 56 55 55 56 56 56 55 53 41 40 45 52 52 42 29 26 38 46 45 40 37 35 36 37 40 37 38 41 44 41 42 37 34 34 40 37 38 36 34 34 33 27 22
55 56 56 55 55 55 55 55 55 55 55 46 36 34 48 47 39 40 27 37 46 43 45 43 42 40 36 38 35 34 36 39 46 45 38 40 35 30 34 41 45 41 38 35 30 25 23
55 55 55 55 55 55 54 54 55 55 55 40 34 37 48 48 36 31 38 41 43 43 42 42 41 43 41 37 34 35 37 44 47 44 40 42 33 28 30 35 40 37 40 39 38 31 25
55 55 55 55 55 54 54 54 54 55 54 41 35 30 39 43 43 36 35 37 38 44 43 44 42 43 40 37 39 36 37 42 45 47 49 48 34 30 26 28 32 34 37 39 36 29 31
55 55 55 55 55 54 54 54 54 54 52 40 32 30 32 33 36 36 37 38 38 39 43 44 40 40 38 33 35 34 36 38 42 47 41 40 28 29 33 36 34 32 33 38 34 36 32
55 55 55 54 54 54 53 53 53 53 50 35 30 30 32 30 33 36 38 36 37 38 43 40 38 40 39 35 36 35 37 36 36 37 36 37 25 28 25 33 33 32 34 35 38 38 38
55 54 54 54 54 53 53 53 53 53 46 33 33 34 32 32 30 33 31 36 38 40 45 45 39 38 38 40 41 42 42 42 40 38 35 34 27 22 19 30 31 27 33 34 35 38 39
54 54 54 54 53 53 53 53 53 53 46 36 33 32 30 28 30 31 34 37 38 39 37 42 42 41 42 45 43 42 41 40 40 37 39 32 28 24 18 26 15 33 38 39 37 41 40
54 54 54 53 53 53 53 53 52 53 51 38 35 32 29 25 28 31 32 33 35 37 37 41 45 46 45 44 38 34 32 35 36 38 37 38 32 24 20 18 28 35 35 36 34 36 41
54 54 54 53 53 52 52 52 52 52 51 39 36 35 31 28 27 33 30 31 26 28 34 41 47 46 46 39 36 27 25 29 28 33 42 42 39 30 26 24 19 34 39 42 40 30 41
55 54 54 53 52 52 52 52 52 52 51 41 38 38 33 28 30 31 28 28 32 28 28 36 36 38 42 37 33 29 25 33 27 28 29 34 34 28 31 27 29 38 41 43 28 33 42
54 54 54 53 52 52 52 52 52 52 52 42 38 44 35 31 30 35 36 30 31 30 27 33 35 36 36 33 31 31 28 30 27 30 30 30 27 27 29 28 23 41 39 35 41 42 43
54 54 53 53 52 52 52 52 52 52 51 45 39 44 45 32 32 36 38 38 37 37 32 32 32 34 34 33 34 34 34 29 28 26 30 29 33 30 31 32 42 42 43 45 44 43 43

GFSGBSN_sfc_temp_054.txt.gz
Temp
64 64 63 63 63 63 62 62 62 62 62 62 62 62 61 61 60 60 60 60 61 60 60 59 59 58 54 44 43 60 63 62 61 60 57 53 51 47 43 47 49 46 50 56 58 59 58
63 63 63 63 63 62 62 61 61 61 62 62 61 61 60 60 60 60 59 60 60 60 60 60 59 58 49 37 53 58 57 58 58 56 54 54 53 53 47 48 48 54 55 54 56 57 57
63 63 63 63 62 63 62 62 62 61 61 61 62 60 60 59 60 59 59 59 60 59 59 60 60 54 44 43 55 55 56 55 56 57 53 56 58 54 50 45 53 53 50 49 50 54 52
62 62 63 62 62 62 61 61 61 61 61 61 60 60 59 59 59 59 59 59 59 59 59 59 60 49 41 57 56 55 55 55 56 58 60 60 58 54 50 50 48 45 46 42 47 51 54
62 62 62 62 62 61 61 60 61 61 61 60 60 59 59 59 58 58 58 59 59 59 59 59 48 44 40 58 50 56 55 53 55 58 58 60 56 51 50 43 39 42 35 35 41 52 49
61 61 61 61 61 61 61 60 60 60 60 59 59 58 58 58 57 58 58 58 58 55 54 55 52 40 48 46 53 54 57 55 53 53 50 50 48 45 42 40 32 36 32 35 36 46 48
61 61 61 61 61 60 60 60 59 60 59 58 58 58 58 58 57 58 52 46 41 39 43 40 41 41 45 51 55 52 56 51 50 50 41 45 39 36 39 38 40 39 37 36 39 47 46
61 60 60 60 61 61 60 60 59 59 59 58 57 57 57 57 57 57 47 41 42 42 35 45 45 45 48 49 43 49 55 45 43 39 43 40 36 42 45 45 43 40 36 33 40 46 46
60 60 60 60 60 60 59 59 59 58 58 58 57 57 57 57 57 49 43 43 48 48 37 42 45 43 45 48 43 44 50 47 40 38 36 37 41 46 45 42 40 35 36 35 37 42 43
60 59 59 59 60 59 59 59 58 58 57 57 57 56 57 57 48 44 42 49 48 48 26 37 41 45 48 48 40 51 51 45 40 37 38 40 47 45 42 41 41 33 42 42 40 37 30
59 59 58 58 59 58 58 58 58 58 57 57 56 57 57 56 43 42 47 49 47 44 16 39 42 53 48 44 43 45 52 48 37 38 37 37 43 42 40 42 46 39 44 41 38 33 31
59 58 58 58 58 57 57 57 57 57 57 57 56 56 56 51 50 47 53 52 45 23 19 35 43 41 40 42 43 46 46 49 48 41 41 41 46 44 42 45 45 44 40 38 34 32 22
58 57 57 57 58 57 58 57 57 57 57 56 56 55 54 50 42 51 52 45 22 18 37 34 37 40 40 40 42 43 40 38 35 32 33 39 40 40 44 40 42 41 37 24 25 22 22
57 57 57 57 58 58 57 57 57 57 56 56 55 52 54 50 51 53 48 34 18 28 37 44 42 41 37 41 40 40 39 36 41 38 34 32 30 38 41 40 37 39 38 25 20 20 23
57 56 56 57 57 56 57 57 57 56 56 55 52 43 45 49 53 51 41 17 22 32 42 40 41 37 38 41 39 40 39 37 40 40 34 32 32 42 43 41 40 35 33 35 25 21 18
57 56 56 56 56 56 56 56 56 56 55 54 40 41 43 50 53 47 37 29 29 39 43 44 34 39 35 37 38 38 37 40 41 42 39 33 31 40 42 42 41 37 40 29 24 16 18
56 56 56 56 55 55 55 55 56 56 55 52 40 40 45 52 51 42 31 25 36 45 44 39 36 37 37 36 40 37 36 39 43 41 41 37 35 34 40 37 37 35 31 33 32 26 20
56 56 55 55 55 55 55 55 55 55 54 45 37 37 48 50 38 40 34 35 45 42 45 42 41 40 36 39 37 35 35 37 44 43 37 38 34 31 34 42 44 42 35 34 25 23 22
56 56 55 54 54 54 54 54 54 55 53 39 34 37 48 47 35 33 36 41 42 41 41 42 40 42 40 37 35 38 39 43 44 42 38 39 30 28 29 36 40 38 40 40 35 30 22
56 55 55 54 54 54 54 54 54 54 53 40 34 30 39 43 41 36 32 35 37 43 42 43 40 41 38 37 38 34 37 43 46 44 49 45 32 28 24 28 33 33 38 40 37 30 31
55 55 55 54 54 54 54 53 54 53 51 40 31 29 31 27 34 37 36 36 35 36 42 42 39 38 36 32 34 32 36 37 43 47 42 41 28 28 31 34 33 33 34 37 34 36 32
55 55 54 54 54 53 53 53 53 53 49 34 30 29 31 29 31 33 37 36 34 37 38 38 36 38 37 34 34 32 35 34 35 37 36 37 26 29 27 33 32 31 33 33 37 38 38
55 55 54 54 53 53 53 53 53 52 46 32 31 33 31 31 29 34 30 37 37 40 43 42 39 36 36 37 38 38 40 40 38 37 34 35 28 22 20 29 30 25 32 33 33 37 39
55 54 54 54 53 53 53 52 53 51 45 35 32 31 30 29 30 30 32 36 35 36 35 42 41 40 40 43 41 40 39 38 39 35 38 31 27 24 18 24 15 33 36 38 36 38 39
55 54 54 53 53 53 53 52 52 51 49 36 33 32 29 26 29 30 31 31 33 34 35 39 44 42 41 42 38 34 32 33 34 36 34 36 31 23 19 18 28 33 34 34 33 35 38
55 54 54 53 52 52 52 52 52 51 49 38 35 34 31 28 26 30 28 29 25 25 31 40 45 45 42 37 35 27 24 28 28 31 40 41 36 29 25 19 18 32 37 40 39 29 40
55 54 54 53 52 52 52 52 52 52 50 40 37 36 32 28 29 29 26 27 30 27 25 34 35 37 42 36 33 29 25 30 26 27 28 31 34 25 27 27 29 37 40 41 27 32 41
54 54 54 53 52 52 52 52 52 52 50 41 37 40 34 29 30 33 35 28 30 28 25 30 33 35 36 33 32 30 28 28 25 28 28 29 25 25 27 27 21 39 38 33 41 41 42
54 54 53 53 52 52 52 52 52 51 50 45 37 41 41 32 31 35 36 36 36 35 30 29 29 34 33 33 33 34 34 31 26 25 30 28 32 28 30 30 40 39 40 43 42 42 42

GFSGBSN_sfc_temp_057.txt.gz
Temp
64 63 63 64 63 62 62 62 62 62 62 62 63 62 61 61 61 61 60 60 61 61 60 60 59 59 54 45 44 59 62 61 61 56 55 52 51 50 46 49 51 50 53 56 59 59 59
63 63 63 63 62 62 62 62 61 61 61 61 62 61 61 60 60 61 60 60 60 60 60 60 60 58 48 37 55 57 57 58 58 54 54 54 54 54 50 50 50 53 54 54 56 58 58
63 63 63 63 63 62 61 61 61 61 61 61 61 61 60 60 60 60 60 60 60 60 59 60 60 54 44 42 56 55 55 55 58 55 52 56 56 54 53 47 54 53 50 50 52 55 54
63 62 62 63 62 62 61 61 61 61 61 61 60 60 60 59 59 59 59 59 60 60 59 59 59 50 39 57 57 54 56 54 57 56 57 58 56 54 51 53 51 47 48 43 50 52 54
62 62 62 62 62 62 61 61 61 60 61 60 60 60 60 59 58 58 58 59 59 59 59 59 49 45 39 58 51 57 55 52 55 54 58 58 53 51 50 45 41 43 38 40 42 52 52
61 62 61 61 61 61 61 61 60 60 60 60 59 59 59 59 57 57 58 58 57 55 54 55 52 40 46 46 51 55 57 55 52 52 51 50 47 45 43 43 33 36 36 39 40 48 50
61 61 61 61 61 61 61 61 59 59 59 59 59 58 58 58 57 57 51 45 42 40 44 40 41 41 45 51 55 52 56 52 52 49 41 45 37 37 43 43 44 42 40 40 44 48 48
61 61 61 60 60 60 60 60 59 59 58 58 58 57 58 57 57 57 47 40 43 45 37 45 44 44 47 49 44 49 55 44 44 40 41 36 34 43 46 47 44 44 38 39 45 47 48
61 60 60 60 60 60 59 59 59 58 58 58 58 57 57 57 57 48 43 43 49 48 34 42 45 43 45 48 43 44 50 44 44 39 35 35 40 47 46 43 41 39 40 37 40 44 48
61 60 60 59 59 59 59 58 58 58 57 57 57 57 57 57 47 43 42 48 48 47 24 36 41 45 48 48 41 51 52 46 41 37 38 40 46 44 43 41 43 38 44 43 41 40 35
59 60 59 58 58 59 59 58 58 57 57 57 56 56 56 56 44 41 46 49 47 43 15 39 41 53 49 44 43 45 51 47 39 38 39 38 41 41 40 42 46 41 45 42 40 37 37
60 60 58 58 58 58 58 58 58 57 57 57 56 56 55 52 50 46 52 52 44 24 18 35 43 39 39 41 43 46 46 48 47 42 41 40 48 46 44 45 47 44 42 40 37 36 29
60 59 58 57 57 58 58 57 57 57 57 56 56 54 53 50 42 52 52 45 23 17 37 36 37 40 39 39 41 43 40 37 35 32 32 39 40 43 45 41 46 44 39 29 29 28 27
59 58 57 57 57 58 57 57 57 57 56 56 53 55 52 49 51 52 48 35 20 32 35 44 42 41 37 39 39 40 37 35 39 38 34 33 30 40 43 41 39 41 40 28 22 23 28
58 57 57 56 57 56 56 56 57 56 56 55 52 46 43 49 53 51 41 18 29 34 41 41 41 37 37 41 39 39 38 37 40 39 33 33 32 42 43 43 42 39 35 38 27 26 25
58 57 56 56 56 55 55 56 56 56 55 52 41 40 42 50 52 47 37 30 33 41 43 43 34 38 34 36 37 37 36 41 40 43 43 37 31 40 42 44 43 40 42 33 29 20 22
57 57 56 56 55 55 55 55 55 55 55 51 40 40 45 52 51 42 33 32 38 46 44 40 37 36 36 36 37 36 36 41 44 42 42 38 35 35 42 38 36 36 33 34 35 30 25
57 56 56 55 54 54 54 54 55 55 53 45 37 38 48 50 38 40 35 38 45 44 43 42 43 42 37 39 37 35 34 39 45 44 38 39 36 30 34 41 44 43 37 36 29 25 26
57 56 56 55 54 54 54 54 54 55 53 38 34 41 48 47 34 35 39 41 43 41 40 40 40 42 40 36 33 35 36 43 44 42 39 40 31 28 31 37 41 38 40 38 34 31 24
56 56 55 54 54 54 53 54 54 54 52 40 34 29 39 43 42 37 36 36 37 42 41 42 39 41 38 35 37 35 37 43 44 44 48 45 33 29 26 30 34 33 39 41 38 32 35
56 56 55 54 54 53 53 53 53 53 52 39 31 30 31 26 31 37 37 36 34 35 40 41 38 37 34 32 33 33 37 39 44 46 42 40 28 28 33 35 35 34 35 38 36 38 32
56 55 55 54 54 53 53 53 53 52 49 34 31 29 29 28 30 31 38 37 35 37 37 36 35 37 36 34 33 32 35 34 35 40 39 38 28 30 26 34 34 32 33 34 37 39 39
55 55 55 54 53 53 52 52 52 51 46 32 30 32 32 30 28 34 33 36 34 38 41 40 37 36 35 36 36 38 38 38 38 37 33 34 28 24 23 30 31 28 34 34 34 36 38
55 55 54 54 53 53 52 52 52 51 44 34 31 30 31 28 30 32 31 37 34 34 35 39 39 38 38 41 40 40 39 38 39 35 37 31 29 29 20 26 17 34 37 37 36 38 39
55 55 54 54 53 53 52 52 51 50 48 35 32 32 30 25 29 30 30 29 34 34 36 40 40 40 40 40 39 34 33 34 35 37 36 36 31 24 21 20 28 33 35 35 34 36 39
55 55 54 53 53 52 52 52 52 50 48 36 34 33 32 29 25 30 28 28 25 25 32 40 44 44 42 37 34 28 24 28 28 33 41 41 38 31 25 20 20 33 38 41 40 31 42
55 55 54 53 53 52 52 52 52 51 49 39 37 35 33 27 28 28 26 26 29 26 25 29 35 36 41 33 31 29 26 30 26 28 28 31 34 26 27 24 30 37 40 41 28 33 42
55 54 54 53 52 52 52 52 52 51 49 41 38 38 34 28 29 33 33 28 29 27 24 28 32 35 36 33 31 30 29 27 25 27 27 28 26 25 28 25 22 39 38 35 39 41 42
54 54 53 53 52 52 52 52 52 51 49 44 35 40 39 32 31 34 35 35 35 34 29 28 31 34 32 33 33 35 34 32 26 24 30 28 31 29 30 30 39 39 39 40 39 38 40

GFSGBSN_sfc_temp_060.txt.gz
Temp
64 64 64 64 63 63 63 63 62 62 62 62 62 62 62 61 61 61 61 61 61 61 61 61 60 60 58 50 51 63 62 63 63 56 53 51 53 56 55 58 58 52 61 64 68 65 66
64 64 63 63 63 63 63 62 62 62 62 62 62 62 61 61 60 60 61 60 61 61 60 60 61 59 54 43 62 64 61 61 60 55 54 52 55 61 60 59 56 60 58 60 63 61 65
64 63 63 63 63 63 62 62 62 61 62 62 62 61 61 60 60 59 60 60 60 60 60 60 60 59 50 50 63 64 61 59 61 57 52 54 57 58 63 57 64 62 55 57 55 59 57
64 63 62 63 63 62 62 62 62 61 61 61 61 60 60 60 59 59 59 59 60 60 60 60 60 57 47 61 65 60 62 58 59 60 56 55 56 57 61 63 59 55 56 47 56 58 59
64 63 62 62 62 62 62 62 62 61 61 61 60 60 60 59 59 59 58 59 59 60 60 60 55 52 46 60 55 60 61 55 58 57 56 56 52 56 56 53 49 52 48 50 51 60 59
64 63 61 62 61 61 62 62 61 60 60 60 60 59 59 59 58 58 58 58 58 58 58 59 57 45 52 48 54 56 61 58 55 52 50 49 44 48 52 50 40 46 49 52 51 54 57
63 62 61 61 61 61 61 61 61 60 59 59 59 58 58 58 57 57 56 57 51 48 51 47 47 46 50 55 57 54 59 56 53 48 41 44 37 38 50 54 54 54 51 50 55 56 53
63 61 60 61 61 61 61 60 60 59 59 58 58 58 57 58 57 57 56 50 50 51 44 50 49 49 53 54 44 50 57 48 45 39 44 40 36 40 53 53 51 51 49 49 52 56 55
62 61 60 60 60 60 60 60 59 58 58 58 58 57 58 57 57 54 52 51 56 55 44 45 48 48 50 51 46 44 49 48 42 39 44 39 41 44 51 50 49 50 49 47 49 51 54
62 60 60 60 60 59 59 59 59 58 57 57 57 57 57 57 51 53 51 55 56 55 36 39 42 47 50 51 44 52 50 46 42 39 43 40 44 42 48 48 52 43 54 51 48 49 44
61 61 60 60 59 59 58 58 59 58 57 57 57 56 56 56 53 50 52 55 55 52 27 41 42 55 52 46 47 45 51 50 42 41 41 38 39 42 46 49 54 46 52 52 50 49 47
61 60 60 59 58 58 58 58 58 58 57 57 56 56 55 54 55 55 55 55 53 34 26 36 43 41 42 45 46 50 48 54 53 45 42 42 48 50 50 51 52 52 50 50 50 48 36
60 60 59 58 58 57 58 57 57 57 57 57 55 55 55 57 51 56 56 51 34 30 41 38 39 39 38 39 43 45 44 41 38 33 32 40 44 49 51 47 51 52 48 35 33 32 36
60 60 59 58 57 57 57 57 57 57 57 56 54 55 53 55 56 55 52 42 30 35 37 46 45 42 38 40 41 41 39 38 42 42 37 33 31 44 49 51 45 46 49 39 29 32 39
59 59 58 57 57 57 56 56 56 56 56 54 54 55 54 54 56 54 47 34 33 37 44 43 45 40 37 40 39 39 39 40 42 42 38 34 32 44 47 49 51 45 41 47 38 37 38
59 58 58 57 57 56 56 56 56 56 55 53 53 52 52 54 56 50 42 34 36 43 45 44 37 38 36 37 36 37 38 43 41 46 47 43 32 43 45 50 50 49 51 39 39 29 30
58 57 57 57 56 55 55 55 55 55 55 52 52 48 53 54 55 44 36 35 40 50 49 45 40 36 38 38 41 39 37 41 46 43 47 45 43 35 46 43 41 44 42 44 45 42 35
57 56 57 57 55 55 54 54 55 55 53 52 49 41 54 53 41 41 38 40 45 48 50 48 47 44 40 41 40 39 39 41 48 47 40 46 44 33 36 45 50 49 47 48 39 34 39
56 56 57 56 55 54 54 54 54 54 53 51 47 44 50 50 38 39 42 43 46 46 47 47 45 47 48 43 38 40 43 48 47 48 45 48 41 31 32 40 45 43 46 48 45 42 36
55 56 56 55 54 54 54 53 54 54 53 53 47 38 43 44 45 41 40 41 42 48 47 48 46 48 46 43 45 41 41 46 50 49 48 50 42 38 37 38 45 39 44 46 44 35 39
55 56 56 55 54 54 53 53 53 53 52 53 46 42 42 36 42 43 43 42 40 41 47 48 45 44 44 42 42 41 43 43 47 48 48 48 35 36 41 41 41 41 42 44 39 43 37
55 56 55 55 54 54 53 53 53 52 51 48 44 43 42 41 40 42 42 41 39 40 43 43 43 44 46 42 41 41 44 44 42 47 46 46 35 37 33 39 40 37 42 43 44 45 45
54 55 55 55 54 53 53 52 52 52 51 46 41 43 47 37 40 43 41 39 36 40 45 45 43 45 43 42 44 46 48 48 49 46 42 42 38 35 33 37 38 34 40 42 43 45 46
54 54 55 55 54 53 53 52 52 50 50 49 44 46 46 37 42 40 38 40 36 37 38 44 46 45 44 49 47 48 49 47 48 45 48 42 39 38 33 35 28 40 46 45 44 46 48
54 54 55 54 54 53 53 52 51 50 47 46 42 46 46 36 40 37 38 37 40 38 36 41 45 47 49 47 46 42 42 43 43 45 45 47 43 34 33 33 39 41 43 43 42 43 49
54 54 55 54 53 53 52 52 51 50 48 46 42 44 47 41 36 37 37 36 39 39 40 41 47 47 49 48 44 36 34 37 36 38 45 44 46 42 35 29 29 42 47 49 48 39 48
54 54 54 54 53 53 52 52 52 51 49 47 42 43 46 38 38 38 38 38 38 37 39 39 38 42 47 43 39 38 36 40 35 35 36 38 39 35 36 33 39 47 48 49 36 38 47
54 54 54 53 53 53 52 52 51 50 49 47 42 45 46 39 37 39 39 37 37 39 39 38 39 41 37 38 39 38 39 38 38 38 38 37 36 36 36 32 29 47 47 41 42 47 46
54 54 53 53 53 52 52 52 51 50 49 47 43 45 47 42 39 42 42 43 42 41 40 38 37 35 36 34 39 39 37 39 37 35 40 36 40 39 40 40 45 47 46 46 46 44 45

GFSGBSN_sfc_temp_063.txt.gz
Temp
65 65 64 64 64 63 63 63 62 62 63 63 63 62 62 61 61 61 61 62 61 61 61 61 61 60 61 54 55 66 63 65 66 60 52 50 51 52 54 61 58 55 59 66 66 66 68
65 65 64 64 63 63 63 63 63 62 62 63 63 62 61 61 60 60 60 60 61 61 61 60 61 59 57 46 66 68 65 64 64 59 53 52 52 60 61 62 57 61 54 59 64 62 65
65 65 64 63 63 63 63 62 62 62 62 62 62 61 61 61 60 60 60 60 60 61 61 60 60 62 54 52 67 67 65 62 65 60 53 54 56 50 62 61 67 61 50 52 61 59 65
64 65 64 63 63 63 63 62 62 62 62 61 61 60 60 60 60 59 59 59 59 60 60 60 60 60 49 65 69 64 65 61 63 62 57 55 55 49 51 68 62 56 54 40 58 60 62
64 65 64 62 62 62 62 62 61 61 61 61 61 60 60 59 59 58 59 59 59 60 60 60 57 55 49 62 58 63 64 57 59 58 54 56 52 47 58 53 49 52 47 41 47 61 61
65 64 64 61 61 62 62 62 61 61 60 60 60 59 59 59 58 58 58 58 59 58 60 63 61 47 55 52 58 58 63 60 55 53 48 47 43 41 52 50 40 47 50 53 47 55 58
65 65 63 61 60 61 62 61 61 60 60 59 59 59 58 58 58 58 56 59 53 50 54 51 51 51 53 59 61 56 61 57 54 48 38 41 34 39 51 56 58 57 53 54 56 60 54
65 65 63 61 59 61 61 61 60 60 59 59 59 58 58 58 58 57 56 53 54 54 47 54 53 53 57 55 46 52 60 48 44 38 42 39 34 48 55 58 55 57 53 53 58 57 56
65 65 62 61 59 61 61 60 60 59 59 58 58 58 58 57 57 55 53 55 60 59 47 49 52 51 53 53 46 47 51 49 41 38 42 39 39 47 50 52 51 55 52 52 51 55 57
65 64 62 60 60 60 60 59 59 59 58 58 57 58 57 56 51 57 54 60 60 60 36 42 44 49 53 53 43 50 51 48 39 40 47 45 46 44 43 50 54 46 57 56 53 49 43
64 63 61 60 60 60 59 59 58 58 58 57 57 57 57 55 53 53 56 60 60 55 28 43 43 58 55 47 45 45 54 51 44 43 47 40 42 38 41 51 57 51 58 54 52 50 52
63 62 61 59 60 59 59 58 58 58 57 57 57 56 55 56 56 59 59 59 55 34 26 39 46 43 46 48 46 48 50 57 54 44 43 43 50 44 49 56 56 57 53 52 52 50 37
63 61 60 59 59 59 58 58 57 57 57 56 55 56 56 61 55 61 60 52 34 31 44 40 38 39 40 44 46 47 46 45 39 33 32 38 39 45 52 49 54 54 48 35 34 34 36
63 61 59 59 58 58 58 57 57 57 57 56 54 55 54 59 62 60 55 43 30 38 41 49 45 40 38 42 42 45 43 39 44 44 35 34 31 47 54 52 48 51 51 40 31 34 40
62 60 59 58 58 58 58 57 56 56 56 54 55 59 57 59 59 59 45 34 35 41 46 45 47 38 34 38 42 40 40 42 47 47 35 34 33 48 51 54 55 48 42 51 42 45 41
61 59 58 58 57 58 57 56 56 56 55 54 58 57 55 59 60 53 41 37 40 47 47 48 39 39 36 37 37 37 40 45 44 49 52 42 33 44 48 53 53 51 55 41 42 31 32
61 59 58 56 56 57 56 56 56 55 55 54 56 49 54 60 58 46 38 37 44 52 51 47 42 38 39 36 41 41 39 42 47 48 51 51 43 36 48 45 45 46 44 47 48 43 36
60 59 57 55 55 55 56 55 55 55 54 52 54 42 56 58 43 45 42 44 46 50 53 51 50 48 42 44 41 42 38 41 51 51 46 50 43 33 36 47 52 52 49 50 40 36 43
60 58 56 55 54 55 55 55 55 55 54 57 51 47 57 53 39 43 46 46 49 49 49 49 48 49 51 47 40 44 44 48 50 49 46 49 41 32 33 43 48 46 50 51 50 45 38
58 57 55 54 54 54 55 54 54 55 55 55 51 38 46 48 49 46 45 45 45 51 50 51 50 52 49 47 49 44 43 46 51 51 49 51 46 41 37 41 48 42 47 50 48 37 41
57 56 55 54 54 55 54 54 54 54 55 55 53 50 50 37 46 49 48 48 45 44 51 52 49 48 48 45 46 44 45 45 50 50 51 51 38 38 44 45 45 44 46 48 41 44 39
57 56 55 53 54 55 54 54 53 54 53 53 49 48 48 49 49 48 46 46 45 45 47 46 46 49 50 46 45 44 45 46 46 50 49 50 36 40 35 43 43 40 45 47 47 48 47
56 55 54 53 54 54 54 53 53 53 54 53 51 52 53 44 47 47 47 46 44 45 47 49 48 50 46 45 49 50 53 52 53 48 47 46 40 36 35 41 40 36 43 45 46 49 48
55 54 53 53 54 54 53 53 52 53 53 57 55 56 51 43 47 47 45 45 39 43 43 47 51 50 48 53 52 53 54 53 52 50 53 45 42 41 34 38 29 42 50 48 46 48 50
55 54 53 53 54 54 53 53 52 53 52 54 52 53 53 45 48 43 43 44 42 41 43 46 48 50 53 51 48 44 44 45 46 49 50 51 47 38 34 36 43 42 45 46 45 41 50
54 53 53 53 54 53 53 52 51 51 50 53 51 52 56 46 43 47 44 46 44 43 42 45 51 53 53 51 47 38 36 41 38 40 48 48 49 43 38 31 31 43 49 52 51 39 48
54 53 53 53 53 53 53 52 51 51 51 53 48 49 54 43 42 45 44 43 45 45 46 45 45 47 51 47 41 40 38 45 37 37 38 40 42 37 36 34 41 47 49 52 36 37 47
53 53 53 53 53 53 53 52 51 51 51 53 46 50 53 44 41 44 44 43 43 45 45 42 43 45 42 41 41 42 42 43 42 44 42 40 38 37 37 32 31 48 49 41 44 48 48
53 53 53 53 53 53 52 52 51 50 50 53 45 52 55 47 41 47 46 46 45 44 45 44 42 42 43 37 42 43 39 43 42 36 45 37 43 41 42 41 47 50 49 49 49 47 47

GFSGBSN_sfc_temp_066.txt.gz
Temp
66 65 65 65 64 64 64 63 63 63 63 63 63 63 63 62 62 61 61 61 61 62 62 61 61 61 58 52 53 65 64 66 65 60 53 50 47 49 47 52 55 49 58 62 63 60 65
66 66 64 65 64 64 63 63 63 62 62 62 62 63 62 61 61 61 60 60 61 60 61 61 61 60 54 43 67 68 65 64 63 57 51 50 48 52 53 53 53 56 57 60 58 57 59
66 66 64 64 64 63 63 63 63 62 62 62 62 62 61 60 60 61 60 61 60 61 61 61 61 59 52 50 68 67 65 62 63 61 51 52 53 47 50 52 61 58 50 51 53 55 59
66 66 66 64 64 63 62 62 62 62 62 62 61 61 61 60 60 60 59 60 59 60 60 61 61 57 46 66 66 64 65 61 63 62 57 54 54 49 48 58 58 52 51 42 52 53 55
66 66 66 65 64 62 61 61 62 62 62 61 61 60 60 59 59 58 58 59 59 60 60 61 55 52 46 63 57 63 63 56 60 58 55 56 51 47 47 44 47 48 39 42 43 51 51
66 66 66 65 64 62 61 61 62 61 61 60 60 59 59 59 58 58 58 59 59 58 59 62 60 47 53 52 58 59 62 60 54 52 47 46 43 39 40 42 34 40 40 43 42 47 47
66 66 65 65 64 62 61 61 62 61 60 60 59 59 59 58 58 58 56 54 49 47 53 49 51 50 54 59 61 55 60 55 52 48 37 40 35 34 37 45 51 49 47 40 44 51 46
65 66 65 64 62 61 60 61 61 60 60 59 59 58 58 58 58 57 55 48 53 53 43 55 54 53 57 53 46 53 60 47 44 37 40 36 32 41 43 47 53 51 48 46 48 53 50
65 65 65 64 62 61 60 60 61 60 59 59 58 58 58 58 57 55 52 53 60 59 43 49 53 51 53 52 45 47 53 48 42 35 37 37 38 43 45 49 50 50 48 46 43 49 48
61 65 65 64 62 60 59 60 60 59 59 58 57 58 57 57 52 54 52 61 60 59 34 41 45 50 53 52 42 51 52 47 40 35 40 40 42 43 44 42 51 45 56 52 49 44 37
61 61 64 64 61 60 59 60 59 58 58 57 58 57 57 56 52 51 56 60 59 53 25 45 44 58 54 47 46 44 54 47 38 40 43 37 39 41 44 50 54 47 55 50 48 44 43
60 61 63 62 61 59 58 59 59 58 57 57 57 56 56 54 54 56 60 58 53 32 22 39 47 44 46 48 47 48 49 49 53 45 45 42 46 44 43 53 55 55 50 48 47 42 27
59 59 59 62 60 59 57 58 58 57 57 56 55 56 55 61 50 60 59 49 33 28 44 39 39 41 42 41 44 47 45 42 38 33 32 39 38 46 48 46 50 50 43 28 26 24 25
59 59 59 61 60 58 57 58 58 57 57 56 55 55 55 60 60 59 53 39 29 39 41 49 44 41 39 43 44 46 43 38 45 42 34 32 29 40 51 48 43 44 43 30 25 23 30
58 58 58 60 59 58 57 58 57 57 56 55 55 54 55 57 59 57 43 32 32 39 47 45 39 34 33 40 43 41 42 40 44 46 34 33 32 45 51 52 49 43 35 44 35 35 30
57 57 58 59 59 58 56 57 57 56 55 54 52 53 53 59 59 51 39 36 40 48 48 49 39 40 34 37 38 38 41 45 44 48 49 41 31 44 48 50 49 46 49 35 32 25 27
56 56 56 58 58 56 55 56 56 56 55 55 51 47 53 59 56 44 35 37 44 52 51 46 42 39 36 35 39 41 39 43 48 47 48 45 39 36 44 41 40 41 38 43 41 33 27
55 54 55 57 57 55 55 55 56 56 55 52 51 40 54 56 39 43 38 44 47 50 53 51 50 45 42 42 41 40 38 42 50 48 43 46 39 33 36 45 49 46 44 44 32 31 33
54 53 54 57 56 55 54 54 55 55 55 52 47 45 54 52 37 40 46 47 49 49 49 49 48 49 51 45 38 43 42 48 50 48 43 45 36 30 32 40 45 42 46 47 44 38 31
53 53 54 56 55 54 53 54 55 55 56 50 47 37 44 46 47 42 44 45 44 50 50 51 50 51 48 45 49 42 41 46 49 51 49 49 41 34 30 33 40 36 44 47 42 29 35
51 53 55 56 55 54 53 54 55 55 55 49 47 43 46 36 41 45 46 47 45 43 50 51 47 48 47 42 44 41 44 44 47 48 47 46 35 31 40 42 41 40 41 44 37 40 32
50 51 56 55 54 53 53 53 54 55 55 46 44 43 45 46 48 45 44 44 45 45 46 46 45 48 48 42 43 42 44 44 41 46 44 45 32 33 28 40 39 33 41 42 43 44 44
50 52 54 55 54 53 53 54 54 54 54 47 47 49 46 45 43 44 44 46 45 47 47 49 48 47 43 43 47 47 49 49 47 44 44 42 33 29 29 36 35 28 37 40 41 43 42
50 51 56 54 53 53 53 54 54 54 54 50 49 49 44 39 42 44 46 45 42 43 44 47 49 47 46 50 48 48 45 47 48 46 49 40 36 32 25 28 18 36 44 45 43 45 45
50 51 53 54 53 52 53 53 53 54 54 49 49 47 45 40 43 43 44 42 42 41 42 46 47 48 50 47 42 38 37 39 42 45 42 46 42 30 25 25 35 38 41 41 39 39 44
49 52 54 53 52 52 53 53 53 54 54 49 48 47 46 42 38 46 42 43 38 39 39 44 49 50 48 44 41 33 30 36 33 36 44 45 43 35 30 24 23 37 44 47 45 32 43
49 54 54 53 52 52 52 53 53 53 53 49 44 47 46 38 39 41 39 38 41 41 40 42 42 43 46 40 36 33 32 38 32 33 32 34 35 29 29 26 33 42 45 47 29 30 43
49 50 51 52 52 52 52 52 52 52 53 49 44 47 45 38 38 43 43 39 39 40 37 38 39 40 39 36 38 34 33 35 33 35 34 32 29 29 31 26 22 43 42 35 37 42 42
50 51 52 52 52 52 51 52 52 52 52 52 42 50 50 40 38 44 44 44 42 42 37 39 38 39 38 35 37 36 34 35 35 28 37 30 34 32 36 33 41 42 42 44 43 40 39

GFSGBSN_sfc_temp_069.txt.gz
Temp
67 66 66 66 65 64 64 64 64 63 63 63 63 63 63 62 61 62 62 61 61 62 61 62 61 61 55 47 48 63 65 66 64 59 53 50 46 46 46 50 49 48 52 58 62 60 57
67 67 66 66 65 64 63 63 63 63 63 63 63 63 62 61 61 61 61 61 62 61 61 61 61 61 50 38 61 65 63 62 61 57 51 50 49 49 47 48 49 52 53 56 57 58 56
67 67 67 66 65 65 64 63 62 62 63 63 63 62 61 61 61 60 60 60 61 60 60 60 61 58 48 44 61 62 63 60 60 58 50 51 51 46 47 47 55 53 47 51 53 55 54
67 67 67 66 66 65 63 62 61 61 63 62 62 61 61 60 60 59 59 59 60 60 60 60 61 53 41 61 58 61 61 58 61 59 56 53 52 48 46 49 51 46 48 42 48 52 53
64 66 66 66 66 66 64 62 61 61 62 62 61 60 60 60 59 59 59 59 59 59 60 60 52 49 42 63 55 59 58 54 58 56 53 55 50 46 46 40 40 42 38 41 42 51 50
63 64 65 66 66 66 65 62 61 60 62 61 60 60 59 59 58 58 58 59 58 58 56 59 56 45 50 50 55 57 58 59 53 49 46 45 42 39 39 39 32 36 38 43 41 45 49
62 62 63 64 65 65 65 62 61 61 61 61 60 59 58 58 58 59 54 48 44 42 47 44 46 46 51 55 59 54 59 53 49 44 38 41 35 33 36 39 42 46 43 41 46 48 46
62 62 62 62 63 65 65 62 60 60 60 60 59 58 58 58 58 58 51 43 49 48 38 50 51 52 56 52 44 52 57 44 41 36 40 36 32 41 44 43 42 47 40 40 45 49 46
61 62 62 61 61 62 64 61 60 58 59 59 58 58 58 58 57 53 46 49 55 53 37 47 52 50 51 51 44 45 50 47 39 36 37 35 39 44 41 41 41 44 42 41 42 47 48
60 61 61 61 59 60 63 61 59 58 58 59 57 57 58 57 50 52 49 54 55 52 33 40 44 49 52 48 42 51 51 46 41 36 35 37 43 43 41 41 45 37 50 49 45 41 34
59 60 59 59 60 60 62 60 59 58 57 58 57 57 57 57 48 49 54 54 53 47 17 43 42 56 54 45 46 44 51 45 37 38 40 36 38 41 40 44 49 46 52 48 45 40 40
58 59 58 58 59 59 60 60 58 57 57 57 57 56 56 52 50 54 54 53 47 32 13 38 45 43 44 46 44 46 46 46 46 44 43 40 44 43 43 47 53 51 48 45 43 41 26
57 57 57 56 59 58 59 59 57 57 57 57 55 56 54 56 49 54 53 44 32 25 41 38 39 40 41 40 43 45 42 39 35 31 32 36 39 44 47 44 48 48 40 28 26 25 27
55 56 56 55 58 57 57 58 57 57 56 56 55 55 54 59 54 53 49 35 28 38 40 45 42 41 38 42 43 45 40 34 42 39 34 27 27 39 47 44 40 40 41 29 22 20 28
56 54 54 55 57 56 57 58 56 56 56 55 55 48 49 53 55 51 41 31 29 37 46 42 39 33 34 38 40 40 38 37 42 42 34 32 32 43 47 48 46 42 31 41 32 31 24
55 55 54 55 56 55 57 57 56 55 55 55 45 46 49 55 53 48 38 33 37 47 47 46 36 38 34 38 35 34 38 42 42 46 44 38 31 42 46 48 48 44 45 31 28 20 24
56 56 55 56 55 54 56 56 55 56 55 55 46 42 49 54 49 42 34 36 43 51 49 45 40 36 37 36 36 36 35 41 44 44 45 41 37 35 42 38 37 40 38 40 37 31 26
56 56 55 54 53 54 56 56 55 56 55 51 45 36 52 50 37 40 36 43 48 48 49 49 48 45 37 39 38 36 34 38 46 45 39 42 35 30 31 42 45 42 42 42 31 30 30
55 55 55 53 52 54 56 55 55 55 55 46 42 41 52 48 30 36 44 43 48 47 46 48 46 47 49 42 38 40 38 47 48 47 39 41 31 28 29 37 42 38 42 44 40 36 28
55 54 53 52 52 54 55 54 54 55 56 49 42 35 41 42 41 35 37 39 41 47 46 48 46 46 44 41 46 39 41 45 46 47 50 47 36 29 24 29 38 34 41 43 38 24 32
55 54 52 52 52 55 54 54 54 55 56 48 42 36 39 34 34 37 39 43 42 40 45 47 43 44 45 40 42 40 43 43 46 47 44 43 30 30 37 40 38 38 39 40 35 37 30
55 53 52 51 52 53 54 53 54 54 55 44 39 37 39 36 39 37 39 40 43 42 42 42 41 44 42 39 37 39 42 43 39 42 41 42 29 31 28 39 38 33 38 39 40 41 40
54 53 51 51 52 54 53 53 53 54 52 42 42 43 41 39 35 35 36 40 44 43 44 45 44 41 39 40 41 41 45 47 44 41 40 38 30 25 24 34 32 27 35 37 38 40 41
54 52 51 51 51 54 52 53 53 54 53 46 44 41 37 33 34 38 41 42 42 40 40 44 44 42 42 45 44 44 43 44 44 42 46 38 33 28 21 27 17 34 40 41 40 40 41
53 51 50 51 54 53 53 53 53 54 54 46 43 42 38 32 36 39 39 37 38 39 39 41 43 43 45 42 38 34 34 36 39 41 40 42 36 27 23 22 31 34 38 38 37 34 40
52 50 49 54 54 53 52 53 53 54 55 46 41 41 40 36 31 36 36 37 34 34 35 41 45 46 43 40 37 28 26 32 30 33 41 42 40 31 27 21 22 34 41 45 44 30 40
52 50 49 49 53 52 52 52 53 54 54 46 41 42 39 31 33 36 34 34 37 35 33 38 39 40 43 35 32 29 26 36 28 28 29 31 32 26 27 22 29 38 42 44 28 28 40
52 50 49 51 52 52 51 51 53 54 53 46 41 44 39 31 33 37 37 33 35 34 33 35 37 38 36 33 32 30 29 32 30 33 32 30 26 26 27 24 21 40 40 33 35 38 39
51 49 49 52 52 51 50 51 53 53 52 48 41 46 45 35 33 41 40 40 39 37 36 36 35 35 35 32 33 32 31 31 30 26 34 31 33 31 31 30 39 40 38 38 38 36 35

GFSGBSN_sfc_temp_072.txt.gz
Temp
66 67 67 67 66 66 65 64 63 62 63 64 63 63 63 63 62 61 62 61 62 62 61 61 61 61 54 44 45 62 66 65 62 57 52 49 45 46 40 44 47 45 50 55 59 60 57
64 64 65 66 66 66 65 65 63 62 62 63 63 63 62 61 61 61 61 61 61 62 61 61 60 60 48 36 57 62 62 60 59 55 51 50 47 50 45 45 46 48 51 52 56 57 56
64 64 63 64 65 66 66 65 64 62 61 62 63 63 62 61 61 61 60 61 61 61 60 60 60 57 46 43 58 59 60 58 59 56 49 50 49 45 46 44 51 51 45 49 51 54 55
63 63 63 63 64 64 65 65 64 62 61 61 62 62 61 60 60 60 59 60 59 60 60 60 60 52 40 58 56 57 58 56 59 58 56 52 50 47 44 47 47 46 46 40 50 53 53
62 63 63 62 62 63 63 65 65 62 61 60 62 61 60 60 59 59 58 59 59 59 60 60 50 46 40 61 53 57 57 53 56 55 53 54 49 45 44 40 40 41 36 40 43 53 49
62 62 62 62 63 62 62 62 64 62 61 60 60 59 59 59 59 58 59 59 58 57 56 58 55 43 47 48 54 56 58 57 51 48 46 45 41 38 38 37 30 37 36 42 39 45 47
61 61 61 61 62 62 61 61 60 62 61 59 58 59 58 58 58 59 53 47 43 41 46 42 44 44 49 55 58 53 58 52 49 43 37 41 34 31 36 41 39 39 40 39 42 47 46
60 60 61 61 61 61 61 60 61 62 60 58 58 58 58 58 58 58 49 42 46 47 37 48 49 49 53 52 45 51 56 43 41 34 39 35 32 38 42 42 40 40 40 39 45 46 46
59 60 60 60 60 60 60 61 60 61 59 58 57 58 58 58 57 52 45 47 53 51 36 45 49 48 49 51 43 45 50 46 39 37 37 33 38 44 42 40 38 39 40 39 39 45 47
59 59 59 59 59 59 59 59 59 60 58 57 57 57 57 57 49 48 45 54 52 51 25 38 42 48 49 50 42 50 51 45 40 35 36 35 43 42 41 37 40 34 46 45 41 39 34
58 59 59 58 58 58 57 59 60 59 58 56 57 57 57 57 46 45 52 53 52 45 12 42 41 55 52 44 45 44 51 45 37 35 36 35 39 39 38 39 45 42 49 47 43 36 36
58 58 58 58 57 56 57 56 59 58 57 55 57 57 57 52 48 52 53 51 46 25 13 36 43 41 42 45 44 45 44 46 45 39 41 39 45 45 43 47 47 49 44 43 42 38 30
58 58 58 57 55 56 56 56 58 57 56 56 56 56 54 54 45 53 51 43 25 17 39 35 37 39 40 40 41 41 41 39 36 30 29 36 38 44 46 43 45 45 38 29 28 27 26
57 57 57 57 55 54 57 57 56 57 56 55 55 56 54 56 53 51 46 38 16 33 36 43 41 41 36 39 40 42 41 35 42 40 34 31 29 38 47 42 39 41 38 28 24 24 27
57 57 56 56 56 54 57 56 56 56 55 55 55 49 49 50 53 49 40 27 24 32 44 39 38 34 32 37 37 37 35 37 40 41 32 30 32 43 46 46 45 40 34 38 31 30 29
57 57 56 56 56 55 56 55 56 56 54 55 47 46 46 52 52 45 37 30 34 45 45 41 34 37 29 33 32 34 35 39 41 44 43 35 30 40 44 46 46 43 45 31 27 21 25
56 56 56 56 55 54 55 54 55 55 55 54 47 42 47 52 49 41 28 29 40 49 47 45 37 37 33 33 35 34 33 38 43 43 43 38 34 33 39 36 34 38 35 37 34 29 24
55 56 56 56 55 54 54 54 54 54 54 51 45 37 50 50 38 39 34 42 47 47 47 47 47 41 34 36 34 33 32 36 43 43 37 38 34 29 31 41 42 40 37 37 26 26 27
55 55 55 55 54 53 53 53 55 54 54 47 41 41 50 48 33 35 43 42 47 45 46 47 46 46 44 37 33 35 36 43 45 43 37 39 30 20 27 35 40 37 41 42 38 32 26
54 55 55 55 54 53 52 53 56 55 55 48 41 35 41 43 42 38 39 38 41 48 45 49 45 47 42 41 40 35 37 45 45 44 49 46 34 29 24 29 35 32 38 40 36 25 31
54 54 55 55 53 51 52 52 55 54 54 48 42 35 39 33 35 36 38 40 39 38 43 44 41 43 43 38 40 38 42 42 44 47 44 41 29 28 34 37 36 35 37 38 32 34 29
54 54 54 54 52 51 51 52 54 54 54 44 39 35 37 33 36 37 39 37 39 39 41 40 39 40 41 37 36 36 42 42 36 39 38 39 26 30 27 36 36 32 35 37 38 38 37
54 54 54 53 52 51 52 53 53 53 52 43 41 42 40 36 32 36 36 38 42 41 42 43 42 39 37 39 39 40 45 43 42 39 37 36 30 25 23 31 33 28 33 35 36 38 39
54 54 54 52 51 51 53 53 53 53 51 45 43 40 37 32 33 36 40 41 41 39 39 41 42 40 41 44 43 44 46 43 42 40 42 35 31 27 20 26 17 33 39 39 37 37 38
54 54 53 51 51 53 53 53 52 52 52 45 43 41 36 30 34 37 38 37 41 38 38 40 41 41 43 42 37 34 32 35 37 41 43 40 34 26 23 20 29 33 36 36 34 32 37
53 54 52 51 51 53 53 52 52 53 53 45 41 40 38 35 29 35 35 35 33 32 34 38 43 44 43 38 35 27 25 29 28 31 38 40 37 31 26 21 22 33 38 42 41 28 36
53 53 51 51 52 53 52 52 52 52 53 46 41 41 38 30 31 34 33 34 36 34 32 35 37 39 41 34 31 28 25 34 27 27 29 30 34 26 26 21 28 36 39 41 27 29 36
53 52 51 50 53 53 52 51 51 53 53 46 40 42 38 30 32 36 36 33 35 34 32 35 37 37 35 32 31 30 28 30 28 30 29 29 25 25 26 25 22 38 37 33 34 35 36
53 52 50 50 52 52 51 51 52 53 53 49 38 44 43 34 33 39 38 38 38 37 35 34 34 34 35 32 31 30 30 29 28 25 32 29 32 29 30 30 35 34 35 35 37 35 33

GFSGBSN_sfc_temp_075.txt.gz
Temp
64 64 64 64 64 64 65 65 65 65 64 63 62 63 63 63 62 62 61 61 62 62 61 61 61 60 53 43 43 59 66 65 60 56 51 47 43 43 39 41 44 44 46 53 54 58 56
63 63 63 64 64 63 63 64 64 65 65 63 62 62 62 62 61 61 61 61 61 61 61 60 61 60 47 35 55 60 60 58 58 53 50 48 45 46 43 43 41 46 47 49 55 54 56
62 63 63 63 63 63 63 62 63 63 64 63 62 61 61 61 61 61 60 61 61 60 60 60 60 57 46 42 55 57 57 56 57 54 47 49 49 44 45 42 48 46 41 47 50 51 53
62 62 62 62 62 62 62 63 62 62 63 64 62 60 61 59 60 60 60 60 59 59 60 60 60 52 39 56 54 54 56 54 57 56 53 51 51 46 42 46 44 40 43 37 49 49 53
61 61 61 62 62 62 62 63 62 62 62 63 61 60 58 60 60 59 59 59 59 59 59 60 51 45 38 59 52 56 55 52 54 54 54 54 49 43 42 35 36 39 34 36 43 51 50
60 61 60 60 61 62 62 61 61 61 61 62 60 59 58 59 59 58 58 59 58 57 55 57 54 42 46 46 52 54 55 55 49 48 45 45 41 35 37 34 29 34 33 39 41 46 49
61 60 60 60 60 60 61 61 60 60 61 60 60 58 57 57 58 58 53 47 44 41 46 41 43 43 47 53 55 51 56 50 47 44 36 41 34 30 34 37 40 40 36 38 41 48 45
60 60 60 59 59 59 60 60 60 59 60 60 59 57 57 57 58 58 49 42 45 46 37 46 47 47 51 51 43 49 54 42 40 32 38 35 31 38 41 39 39 41 36 38 41 45 45
60 60 60 60 59 59 59 58 59 59 59 60 58 56 56 58 58 52 45 46 51 50 35 43 47 46 47 49 44 44 48 44 37 36 37 32 37 42 40 39 37 38 36 38 39 41 45
60 60 59 59 59 59 58 57 58 59 59 58 57 56 56 57 49 48 44 52 51 49 23 36 40 46 49 50 42 50 49 45 39 34 36 35 40 40 39 37 40 35 42 43 41 37 34
59 59 58 58 58 58 57 57 57 58 58 57 57 56 56 56 47 45 50 51 50 45 12 40 40 53 50 44 44 44 49 45 37 37 36 34 37 39 38 39 44 38 46 41 40 35 36
59 59 58 58 58 58 57 57 56 56 57 56 56 55 56 52 48 50 51 51 46 25 13 35 42 40 40 44 43 44 43 45 44 36 36 37 45 43 43 45 45 46 44 41 40 35 28
58 58 58 58 57 57 57 55 54 56 57 55 55 55 53 53 45 51 50 43 26 15 37 34 36 38 38 38 41 41 41 38 36 31 31 38 40 45 46 40 45 43 37 29 27 27 27
57 58 57 57 57 57 57 56 55 56 56 55 55 54 53 54 52 51 45 35 16 30 34 41 39 38 33 37 38 40 39 34 42 37 34 31 29 39 46 39 37 38 38 29 24 24 28
57 57 57 56 56 57 57 56 55 54 54 55 54 49 48 50 52 48 38 28 24 30 41 38 38 29 27 35 36 36 37 37 41 41 32 31 32 41 44 43 43 37 32 40 31 31 28
57 56 55 55 56 57 56 56 54 54 56 54 47 46 47 52 51 44 34 30 31 41 41 42 34 34 27 30 31 31 33 38 39 44 43 38 32 41 43 46 45 41 43 32 28 24 24
56 56 55 56 56 55 55 55 54 54 53 53 47 42 47 51 49 39 31 28 38 47 47 40 35 33 31 31 33 32 31 37 41 41 42 38 34 35 38 36 33 38 37 36 33 29 24
55 54 55 55 55 55 55 55 54 53 53 50 45 36 48 49 38 35 28 37 46 44 45 44 42 38 33 34 36 30 31 34 42 41 35 37 32 29 32 38 40 38 35 34 26 26 25
55 54 55 55 54 54 54 54 54 53 53 47 41 41 49 48 30 30 38 41 45 45 45 44 42 42 40 36 31 33 35 41 43 41 35 38 29 19 27 34 38 35 38 38 35 30 24
54 55 54 54 54 54 53 53 53 53 54 48 41 34 41 43 38 33 37 40 41 47 46 45 42 44 39 36 37 33 35 42 43 43 49 44 32 29 23 28 33 31 36 38 34 23 28
54 55 54 54 54 54 54 53 53 52 54 48 41 36 40 33 35 34 40 42 40 40 45 43 40 42 40 35 35 34 37 38 42 45 41 39 28 28 33 35 34 34 34 36 30 33 29
54 54 54 54 54 54 53 52 53 52 54 46 38 36 38 32 35 35 39 39 40 39 39 38 38 39 40 36 35 35 38 36 34 39 36 37 25 29 26 34 34 32 33 36 36 35 35
54 54 53 53 53 53 52 53 53 53 53 44 41 42 37 37 31 36 38 37 40 40 40 41 41 38 37 37 38 38 43 41 39 37 36 34 28 24 23 30 32 26 31 33 35 37 38
54 53 53 54 53 53 53 54 54 54 49 44 42 40 34 31 32 39 41 40 40 39 38 39 41 39 40 42 42 47 46 41 40 38 40 33 30 26 19 26 18 31 35 38 35 35 35
54 54 54 54 53 53 54 54 54 52 51 43 42 39 35 29 33 38 39 39 41 38 37 38 40 40 43 41 36 34 33 34 36 40 39 38 32 25 21 19 28 31 35 34 33 31 35
54 54 54 52 52 53 53 53 53 53 53 44 40 38 37 35 29 31 34 40 37 34 34 37 42 42 42 37 34 26 24 27 27 32 41 41 35 29 26 21 21 31 36 40 38 28 35
54 54 53 52 53 53 53 53 53 53 51 46 41 39 36 30 29 31 32 37 37 35 31 34 36 38 40 32 31 27 24 31 26 26 27 33 34 30 26 21 28 34 37 39 26 29 35
53 54 53 51 52 52 52 52 52 52 52 46 41 41 36 30 31 34 34 33 34 35 32 35 36 37 34 31 31 29 28 29 26 28 28 28 25 24 27 27 21 35 36 32 33 33 35
53 53 52 51 53 52 51 51 51 53 52 49 40 43 42 34 32 37 36 36 36 36 34 33 33 34 35 31 30 30 30 27 27 24 29 28 31 28 30 29 33 32 32 33 35 34 32

GFSGBSN_sfc_temp_078.txt.gz
Temp
63 63 63 63 63 63 63 63 63 63 64 65 65 65 62 62 62 62 61 62 62 62 62 61 61 60 55 42 43 58 66 64 59 55 50 46 41 41 37 39 41 39 43 48 51 53 54
62 62 62 63 62 63 63 62 62 63 63 63 65 65 62 61 61 60 61 61 61 61 61 61 60 57 49 35 53 58 58 57 56 52 49 47 43 45 40 40 41 42 44 46 49 51 53
62 62 62 62 62 62 63 63 62 62 62 63 63 63 62 60 60 60 60 61 61 61 60 61 60 56 47 42 53 55 56 54 55 53 47 49 48 44 43 40 45 44 38 43 47 49 49
61 61 61 61 62 61 62 62 61 61 61 61 62 62 61 60 59 59 60 60 60 59 59 60 60 53 40 55 52 54 54 53 55 54 52 50 50 47 42 46 42 37 39 33 44 49 50
61 62 61 61 61 61 61 60 61 61 61 62 61 61 61 59 59 58 58 59 59 59 60 60 52 48 38 58 50 54 54 52 53 55 52 53 49 43 43 35 33 35 28 31 39 49 49
61 61 61 60 60 60 60 60 60 60 61 60 60 60 60 58 58 57 57 58 58 57 55 57 54 41 44 45 51 53 56 54 49 47 46 44 41 35 36 34 25 29 29 35 37 44 47
61 61 60 60 61 60 60 60 59 59 60 60 59 59 59 57 56 57 54 48 44 42 45 40 41 41 46 51 54 50 53 48 47 42 34 40 33 30 32 35 36 33 34 33 39 45 44
60 60 60 60 59 59 60 59 59 59 59 59 58 58 58 57 57 56 50 43 46 48 37 45 45 45 49 50 43 48 53 41 38 31 36 34 29 37 40 38 36 33 35 34 40 47 45
60 60 60 60 60 59 59 59 59 57 58 58 57 57 57 56 56 51 47 47 52 51 36 41 45 44 46 48 44 42 47 42 35 32 33 30 35 41 39 35 35 34 35 35 37 41 42
60 60 60 59 59 59 58 58 58 58 57 57 57 57 56 55 49 48 45 51 51 50 25 35 39 45 47 49 42 49 48 43 40 34 35 34 41 38 36 34 39 33 39 41 39 36 31
59 58 58 58 59 58 58 58 58 57 56 56 56 56 56 55 47 45 50 51 51 46 12 38 38 52 49 42 43 44 50 44 36 37 36 33 35 36 34 38 41 37 44 42 39 34 35
58 58 57 57 58 58 58 58 57 57 56 54 56 55 55 50 48 50 52 52 47 26 12 33 40 38 38 42 43 45 43 45 43 35 35 35 43 43 43 44 42 44 41 40 38 36 28
58 57 57 57 57 56 57 57 57 57 56 55 55 54 53 52 45 51 51 45 27 16 35 33 34 37 37 37 40 41 40 37 34 30 31 36 39 44 43 38 44 43 37 28 26 26 26
57 57 57 57 56 56 55 56 56 56 56 54 53 53 53 52 51 51 47 34 20 28 31 40 37 37 32 35 36 39 36 34 37 37 34 29 28 39 42 39 37 40 37 30 24 24 27
56 56 55 56 56 56 56 56 56 56 53 52 54 50 48 50 51 50 39 24 23 30 39 36 37 28 27 34 34 35 34 36 40 41 31 30 32 41 42 43 42 39 33 41 31 32 27
56 56 55 55 56 56 55 56 56 55 52 54 47 46 45 51 53 47 36 31 31 39 41 40 30 32 27 30 30 31 31 38 39 42 43 35 31 39 42 44 42 40 43 32 30 24 24
56 55 55 56 55 55 55 55 55 55 53 52 46 40 47 51 50 41 31 27 35 44 44 39 33 33 29 30 31 30 30 36 40 40 39 35 33 36 40 34 32 36 34 33 33 30 26
55 55 55 55 55 55 54 54 55 54 53 50 44 34 47 50 37 38 31 34 44 42 44 42 40 37 32 33 34 30 29 33 41 39 34 36 32 30 32 37 38 36 35 34 27 26 24
55 55 55 54 54 54 54 54 54 55 53 47 39 40 48 47 33 34 35 38 42 42 42 42 39 40 38 34 30 31 33 41 42 40 34 37 29 19 26 33 37 35 37 36 33 30 24
55 55 54 54 54 54 54 54 54 54 53 48 40 33 40 43 40 32 31 35 38 44 43 44 41 42 37 34 36 31 34 41 42 42 47 43 31 28 22 28 32 32 34 35 33 22 27
54 55 54 54 54 54 54 53 54 53 52 47 40 36 39 33 36 31 34 38 38 37 42 43 39 40 38 32 33 31 35 38 41 44 39 38 28 27 31 33 34 33 34 34 30 31 28
54 54 54 54 54 53 53 53 53 53 53 45 38 36 38 34 38 33 38 40 40 37 38 36 37 38 38 34 33 32 36 34 32 39 35 36 25 28 26 33 34 32 34 33 34 33 33
54 54 53 53 53 53 53 53 53 53 52 44 41 42 40 38 34 32 37 40 41 40 40 39 39 37 37 36 38 37 39 39 37 34 34 33 28 23 22 29 31 26 29 32 33 33 34
54 54 54 53 52 55 55 54 54 54 51 45 42 41 38 32 31 33 41 42 39 38 37 38 40 38 39 41 40 42 43 39 39 36 38 32 29 25 19 26 17 31 34 35 34 34 34
54 55 54 53 54 54 54 55 54 54 51 43 42 40 34 29 31 39 40 39 38 36 36 37 38 38 41 39 35 33 32 33 34 38 36 36 31 24 21 18 27 29 32 32 31 31 34
54 55 54 53 53 54 53 53 52 52 51 44 39 38 35 33 32 32 37 40 36 31 33 37 41 41 40 36 33 25 24 26 27 30 40 38 35 29 26 20 19 28 34 37 36 28 33
54 54 54 52 53 53 53 53 53 53 53 45 38 38 35 28 29 33 35 36 37 36 31 32 35 37 38 32 31 27 23 28 25 25 26 30 32 30 30 20 27 32 36 38 25 28 33
54 54 53 53 53 53 53 52 52 53 53 45 38 39 35 29 32 33 35 35 36 37 33 34 36 37 34 31 30 28 27 27 25 26 26 28 24 24 29 27 20 32 35 29 33 31 33
54 53 53 52 53 52 52 52 53 53 53 49 38 41 41 33 31 36 35 39 35 34 34 32 33 33 34 31 30 29 29 26 25 24 28 27 30 28 29 29 32 30 31 32 34 33 31

GFSGBSN_sfc_temp_081.txt.gz
Temp
62 63 62 63 62 62 62 62 62 62 63 63 63 63 64 63 63 62 60 61 62 62 62 61 61 60 55 44 44 59 64 64 59 56 52 48 44 43 38 41 43 41 45 48 50 51 52
62 62 62 63 62 62 62 62 61 61 62 62 62 62 63 62 62 61 60 61 61 62 61 60 61 58 50 39 55 58 57 57 57 54 50 49 45 46 41 41 40 44 45 46 48 48 50
62 61 62 61 61 61 61 61 61 61 62 62 61 62 61 62 61 60 60 60 60 60 60 60 61 56 47 45 56 55 56 55 56 54 48 50 50 46 45 41 45 44 38 43 45 47 47
61 61 61 61 61 61 61 61 60 60 61 62 61 61 61 60 61 59 59 58 59 59 59 60 60 53 43 56 54 54 55 54 56 55 53 52 51 46 43 45 42 39 38 32 44 46 49
61 61 61 61 60 60 60 60 60 60 60 61 59 60 60 60 59 58 58 58 58 59 60 60 51 49 40 58 50 54 54 52 55 54 53 55 48 43 43 35 32 35 29 31 36 48 48
61 61 60 60 60 60 60 59 59 59 60 60 59 59 58 59 58 57 57 57 57 57 56 57 54 42 45 45 51 54 54 55 50 48 46 44 42 36 36 32 24 29 29 33 33 44 46
61 60 60 60 60 60 60 59 59 59 59 58 59 58 58 59 57 57 53 50 45 42 46 41 42 42 46 52 55 50 53 49 49 44 35 40 34 30 32 35 34 33 32 33 39 45 44
60 60 60 59 59 60 60 60 59 58 58 58 58 58 58 57 57 56 51 45 47 47 37 46 46 45 49 50 43 49 53 42 39 33 36 35 29 38 40 36 35 33 31 32 38 46 45
59 60 59 59 58 58 59 59 59 59 59 58 57 57 57 56 56 51 47 46 51 51 37 42 45 44 46 48 43 43 48 44 37 33 33 29 35 41 38 36 34 34 31 33 36 42 43
59 59 58 59 58 58 58 58 58 58 58 58 57 56 57 55 49 49 45 52 52 50 30 37 39 44 47 49 42 50 50 44 39 34 34 33 40 37 37 35 34 33 41 41 40 38 33
59 58 58 58 58 58 58 57 57 57 57 56 56 56 56 55 47 45 49 51 50 47 19 38 39 52 47 43 44 44 51 44 37 36 36 32 36 36 35 35 40 36 44 41 40 36 37
59 57 58 57 57 57 57 56 56 56 56 56 56 56 54 50 49 50 51 51 47 30 20 34 40 37 38 41 43 45 44 46 43 35 34 35 42 39 40 44 43 44 43 41 39 36 27
58 57 57 56 56 56 56 56 55 56 56 56 55 55 53 51 45 50 50 45 29 23 37 33 33 36 36 36 39 40 40 36 33 30 30 35 37 43 44 40 44 42 38 28 27 27 27
58 57 57 57 56 57 55 56 56 56 56 54 51 51 52 51 50 50 46 35 24 32 33 39 36 36 33 36 36 39 37 34 37 37 33 28 22 38 42 40 37 38 36 29 24 24 28
57 57 55 56 55 55 55 55 56 55 55 52 51 49 47 48 50 49 39 28 28 33 38 35 36 28 27 34 34 35 36 36 40 41 32 31 31 42 42 43 42 37 33 40 32 33 30
56 56 55 55 56 55 55 56 55 55 54 52 45 46 45 50 51 45 36 32 33 39 40 39 31 32 28 31 31 32 33 37 36 42 43 36 31 40 43 44 43 40 45 34 32 24 24
56 56 56 56 55 55 55 55 55 55 53 52 45 39 46 50 49 40 32 32 36 42 42 37 32 31 29 30 32 30 31 39 40 40 40 36 34 35 40 35 34 38 37 36 35 31 28
56 55 56 55 55 54 55 55 55 55 54 50 43 35 47 49 35 36 33 36 43 40 42 41 39 35 31 32 32 30 30 35 41 39 35 37 37 31 33 38 40 38 37 36 30 28 27
56 55 54 54 54 54 54 54 55 55 53 46 38 39 47 47 33 34 38 38 43 41 40 40 38 39 37 33 30 32 34 41 41 39 35 38 30 23 29 35 38 36 38 36 34 32 27
55 54 54 54 54 54 54 54 53 54 54 47 40 32 39 42 40 36 33 38 39 44 42 43 39 40 36 34 36 32 34 40 42 41 46 42 31 29 24 29 34 34 37 37 35 27 30
55 54 54 54 54 54 53 53 53 54 53 47 40 36 39 33 35 33 32 38 38 36 41 42 38 38 36 31 32 31 35 38 41 43 39 38 28 27 31 33 35 35 35 36 32 33 31
55 55 54 54 54 54 54 53 53 53 53 44 38 37 38 36 37 30 36 38 39 36 37 37 36 36 37 34 33 31 35 35 32 38 36 36 25 29 27 33 34 34 35 35 37 36 36
55 55 55 54 56 55 55 53 53 53 53 43 42 42 41 37 31 31 36 40 41 39 38 38 38 36 35 36 37 37 38 37 36 34 34 33 28 24 23 29 32 28 30 34 35 36 36
55 55 54 54 55 55 54 54 54 54 51 44 40 38 33 31 32 34 40 41 40 38 36 37 38 37 37 40 40 41 40 38 38 36 36 32 29 26 21 27 19 32 35 36 36 35 36
55 55 55 54 54 55 55 54 54 53 52 42 40 38 32 33 31 39 39 38 39 36 35 35 37 37 39 38 35 33 32 33 34 36 36 36 31 25 22 20 28 31 34 34 33 33 36
55 55 55 54 54 53 54 54 53 53 52 41 37 36 35 32 32 33 36 39 34 30 33 36 40 41 39 35 33 26 23 26 27 31 38 38 34 30 26 21 21 31 35 38 38 30 35
54 54 54 53 54 54 53 53 54 54 53 43 37 36 35 29 32 33 34 33 35 32 30 32 35 37 38 32 31 27 23 28 25 25 26 29 29 27 28 22 28 34 37 38 27 30 35
54 54 53 53 53 53 53 54 54 53 52 43 37 37 35 29 31 35 36 32 34 34 33 34 35 37 34 31 30 28 27 27 24 25 25 28 25 25 26 23 20 33 35 31 34 33 35
53 53 53 52 53 53 53 53 54 54 53 47 37 40 39 33 32 38 38 36 34 34 33 32 34 33 34 31 29 29 29 25 25 24 27 26 30 29 29 29 33 32 33 33 34 34 34

GFSGBSN_sfc_temp_084.txt.gz
Temp
62 62 62 62 62 62 62 62 62 62 62 63 63 63 63 62 63 62 63 62 61 62 62 62 61 61 59 49 51 65 64 66 65 62 57 54 51 50 46 49 49 47 51 55 57 56 56
62 62 62 62 61 61 62 62 61 61 61 61 62 62 61 61 62 62 61 60 62 62 61 61 61 60 54 44 63 63 62 62 63 60 56 56 52 52 48 47 46 52 50 51 53 53 54
62 62 61 61 61 61 61 61 61 60 60 60 61 61 60 60 60 62 60 60 61 60 61 61 60 60 51 51 63 62 61 62 62 61 54 57 57 51 50 46 52 49 43 48 50 52 51
62 62 61 61 61 61 61 60 60 60 60 60 60 60 60 59 60 59 60 60 59 60 60 60 61 58 47 61 64 59 63 60 62 62 59 59 58 52 49 52 48 43 44 35 50 52 52
62 62 61 61 61 61 59 60 60 60 60 60 60 60 59 59 59 59 58 59 59 59 60 60 56 54 46 61 54 62 63 57 59 58 57 58 54 48 47 38 36 38 33 38 42 52 51
61 60 60 60 60 60 59 60 60 60 59 59 59 59 58 59 58 58 58 58 58 57 58 60 57 47 51 49 56 58 60 60 54 53 49 49 47 40 40 34 25 33 30 38 39 48 48
61 61 59 59 59 59 59 59 59 60 60 59 58 58 58 58 58 57 55 50 45 44 51 48 47 47 50 56 60 55 58 55 53 47 38 43 34 31 36 39 39 37 33 32 41 49 46
61 60 60 59 58 59 59 58 58 58 59 59 58 58 57 57 56 57 52 47 48 49 40 49 49 50 52 55 47 52 58 48 45 37 41 36 31 43 45 43 36 34 33 35 42 47 46
60 60 59 59 58 58 58 58 58 58 58 58 58 57 57 57 56 52 49 47 52 53 45 44 49 47 49 52 47 49 53 49 42 36 37 34 41 45 41 38 32 33 31 33 35 43 48
60 60 60 59 58 57 57 57 57 57 57 56 56 56 57 56 49 49 48 51 53 55 36 39 41 47 49 51 44 54 55 50 43 37 38 36 45 39 38 35 35 32 39 36 35 35 33
59 59 59 58 58 57 57 56 53 56 56 56 56 56 55 54 48 46 52 53 52 52 27 41 41 55 52 46 47 46 55 46 40 39 37 38 38 37 34 35 38 40 45 37 33 38 41
59 59 57 57 57 57 56 56 52 56 55 56 56 54 54 51 50 52 53 52 50 33 26 36 42 42 41 45 45 45 44 47 42 36 36 37 46 40 41 47 46 49 46 40 43 41 31
58 58 56 56 56 56 56 56 56 56 55 55 54 53 52 50 44 52 52 46 32 29 40 34 37 41 42 41 42 42 39 36 34 31 31 38 39 46 47 42 47 44 41 32 30 32 30
58 57 56 56 57 56 56 56 56 56 56 55 53 52 52 51 51 51 47 37 28 34 36 43 41 41 39 43 42 42 38 35 37 38 35 32 30 42 47 43 39 41 41 35 27 29 30
57 57 56 56 56 56 56 56 56 55 54 52 51 47 46 51 51 50 41 31 32 36 43 40 41 37 36 41 42 41 37 36 41 41 34 33 32 45 45 47 44 41 37 46 38 39 36
57 56 55 54 55 55 56 56 56 55 53 52 47 46 45 54 51 46 37 33 35 43 45 46 38 41 37 39 40 41 36 37 36 41 43 37 32 42 41 45 45 41 48 38 40 30 28
56 56 55 55 55 55 55 55 56 55 53 52 45 40 46 52 50 40 34 35 40 46 48 44 40 39 40 39 41 39 36 40 45 45 47 45 42 37 44 41 39 44 43 43 42 40 37
56 55 55 55 55 55 55 55 55 55 54 49 44 34 47 50 36 37 35 38 43 44 48 47 46 43 42 41 41 40 39 42 49 46 43 46 46 37 40 47 47 45 43 44 41 36 39
56 55 55 54 54 54 54 55 55 54 55 49 39 37 48 47 33 34 41 42 42 44 46 46 43 46 45 42 39 41 42 49 49 47 44 47 42 35 38 44 47 45 45 46 44 44 36
56 55 55 55 55 55 55 54 53 54 54 51 42 33 38 42 41 41 39 37 38 48 48 48 45 48 45 43 45 41 42 47 49 48 46 49 42 37 36 36 41 41 44 46 45 40 42
55 56 55 56 56 56 56 54 54 54 54 51 43 37 41 35 38 43 41 39 42 41 48 50 46 46 45 41 42 41 44 46 48 47 47 48 36 36 40 41 42 42 42 45 40 43 41
55 56 55 56 56 56 55 54 54 54 54 48 42 42 42 41 42 43 42 40 42 41 43 44 44 44 47 43 44 41 44 45 43 49 46 46 36 38 35 42 43 39 43 43 44 44 45
55 55 55 56 56 55 54 54 54 54 54 48 47 48 50 40 40 43 42 42 43 45 45 44 46 47 44 44 48 48 50 48 47 46 44 43 40 36 34 39 40 38 40 42 43 44 45
55 55 55 56 55 55 54 54 54 54 52 50 47 51 47 38 43 42 42 44 42 42 43 44 46 47 46 51 50 53 52 50 50 47 47 43 39 38 35 39 31 40 44 43 42 43 44
55 55 55 55 55 55 55 54 54 53 52 48 48 50 47 39 43 44 44 43 44 45 42 42 44 46 50 49 46 42 43 44 45 46 47 47 44 36 36 37 38 39 42 42 41 41 44
55 55 54 55 54 54 54 54 54 53 52 49 45 45 50 46 39 37 41 44 44 43 44 43 49 51 50 47 44 35 35 36 37 41 47 46 47 43 38 32 32 40 44 46 46 40 44
54 54 54 54 54 54 54 54 54 52 51 49 45 44 49 41 38 38 43 42 44 43 43 43 45 48 49 46 41 38 37 38 36 35 37 40 41 37 38 35 39 44 45 46 36 40 45
54 54 53 54 54 53 53 54 54 54 51 50 45 45 48 41 38 39 39 41 43 44 45 44 45 46 45 42 41 39 39 39 38 38 38 37 37 38 37 33 31 44 43 41 44 43 45
53 53 53 53 53 53 53 53 54 54 52 50 47 47 47 44 39 43 43 43 41 41 43 43 44 43 46 43 42 42 40 39 38 38 39 36 42 41 41 42 43 44 43 44 44 45 44

GFSGBSN_sfc_temp_087.txt.gz
Temp
62 62 62 62 62 62 62 62 61 61 61 62 62 62 62 61 62 62 62 63 62 62 63 62 62 61 60 54 57 68 65 67 67 64 60 57 55 54 49 54 55 51 53 57 60 60 60
62 62 62 62 62 62 62 62 61 61 60 61 62 61 61 61 61 60 60 63 62 62 61 61 61 61 58 48 67 68 67 66 65 62 59 59 56 57 51 51 50 55 54 54 56 56 57
63 62 61 61 61 61 62 60 60 61 61 60 61 61 60 60 60 60 61 61 61 61 61 61 61 62 55 56 68 68 66 64 65 63 57 60 60 53 55 49 56 53 45 49 52 54 53
62 63 62 61 60 60 60 59 59 60 61 61 60 60 59 59 59 60 59 60 60 59 60 61 61 61 52 65 69 64 66 63 65 65 61 62 61 54 51 54 50 46 46 38 51 55 55
62 62 62 61 61 59 59 59 59 60 60 60 60 60 59 59 59 58 59 58 59 59 60 60 57 57 51 62 57 65 66 59 61 62 61 62 57 50 48 39 36 41 34 40 45 55 53
61 62 61 61 60 59 58 59 58 58 59 60 59 59 59 58 58 58 58 57 57 58 58 59 59 49 55 52 59 62 65 63 57 56 53 51 46 40 43 35 28 36 36 40 40 50 52
60 61 61 61 60 59 58 58 58 58 58 58 58 59 58 58 57 57 55 54 46 44 51 49 51 52 54 60 63 58 61 58 56 51 42 45 34 33 40 44 43 39 38 37 44 50 45
58 59 61 60 59 59 57 57 57 57 58 58 57 58 57 58 57 56 53 49 50 51 42 53 54 53 57 60 50 54 60 49 47 41 44 37 32 44 48 46 42 38 34 36 43 48 45
57 59 60 59 59 58 58 57 55 55 56 57 57 57 57 57 56 52 48 50 53 52 45 47 51 51 53 55 49 50 55 51 44 41 40 34 43 48 44 41 37 36 32 33 33 43 46
56 57 59 57 57 57 57 57 56 54 54 56 56 56 56 56 50 49 46 54 51 55 37 40 44 50 52 54 46 58 57 51 45 40 41 38 46 43 40 36 36 31 41 36 35 35 32
56 58 59 57 57 57 57 56 56 55 54 55 56 56 56 55 52 46 49 56 53 51 26 43 44 58 54 48 49 48 58 50 41 39 39 39 43 40 36 36 38 37 41 39 38 37 35
57 58 58 57 57 57 56 56 56 56 55 54 54 53 54 55 55 56 56 56 52 33 27 36 44 42 43 48 47 47 45 47 43 37 38 37 47 44 43 46 46 46 36 35 38 33 29
58 58 57 57 57 56 56 56 56 56 56 55 54 51 51 56 50 57 55 47 32 29 42 35 38 43 45 43 44 43 38 36 34 30 31 42 44 48 49 38 47 45 37 31 29 30 32
58 57 57 57 56 56 56 56 56 56 55 53 52 53 53 56 55 53 49 36 29 36 36 45 44 45 42 46 44 40 38 35 39 39 37 33 33 45 50 45 40 42 41 32 26 30 31
57 57 57 56 56 56 57 56 56 54 52 52 51 50 49 53 55 49 40 32 31 36 44 43 44 40 39 44 42 42 40 39 42 43 33 33 34 48 48 47 45 41 36 43 35 39 34
57 57 56 56 56 56 56 56 56 54 55 55 47 46 47 56 52 46 36 33 37 46 49 50 41 46 39 42 39 41 40 38 38 43 44 40 33 41 41 47 47 41 46 36 40 30 30
57 57 56 56 55 55 55 55 56 56 55 55 51 41 48 52 49 40 33 35 38 49 52 48 45 43 45 42 44 43 40 41 44 45 48 47 42 39 40 40 42 43 44 46 44 42 33
57 56 57 56 56 56 56 55 55 56 55 55 49 35 48 51 37 38 36 37 43 47 52 50 50 49 47 46 44 44 40 46 52 50 46 51 47 40 43 51 51 48 47 49 41 39 44
56 56 56 56 56 56 56 55 55 55 55 56 39 39 48 50 36 36 43 41 41 45 49 49 47 50 50 46 42 46 46 52 53 51 48 51 46 37 41 46 49 48 51 52 49 49 42
56 56 56 57 56 56 56 55 54 55 55 57 45 34 40 44 46 45 43 37 39 51 51 52 49 52 49 47 50 45 46 50 53 52 47 51 47 40 36 37 44 43 47 51 49 40 43
56 56 56 56 56 56 55 54 54 54 55 57 49 40 45 37 44 49 46 41 46 45 52 53 49 50 49 45 47 45 48 50 53 51 52 52 39 39 44 45 45 45 45 47 43 48 43
56 56 56 56 56 55 55 54 54 55 55 56 50 47 49 48 49 49 45 47 46 46 48 48 47 50 52 46 49 45 49 50 48 54 51 52 39 42 38 46 46 42 46 48 47 48 48
56 56 56 56 56 55 55 54 55 54 53 56 54 56 57 45 48 48 44 46 47 49 49 50 51 51 47 46 52 54 55 54 52 50 49 48 43 38 36 44 44 40 42 45 46 48 47
55 56 56 56 55 55 55 54 54 54 54 59 55 58 53 43 49 47 47 49 47 47 47 49 51 51 50 56 56 57 56 55 54 53 54 47 44 42 36 41 32 42 48 46 44 46 49
55 55 55 55 55 55 55 55 54 54 53 56 55 56 55 46 49 48 49 48 50 50 47 47 49 52 55 53 50 45 46 46 48 50 51 52 48 41 36 40 41 42 45 45 44 45 48
55 55 55 55 55 54 54 54 55 54 53 57 51 52 57 49 47 47 49 50 50 49 48 47 53 56 54 52 48 39 39 40 41 44 51 51 51 45 42 34 34 43 47 50 49 41 49
54 54 54 55 54 54 54 54 54 54 53 55 51 51 54 48 46 45 49 49 50 50 49 49 50 51 53 49 44 42 41 43 39 39 40 43 44 40 41 38 42 48 49 50 37 40 49
54 54 53 54 54 54 54 54 54 54 52 54 51 52 51 49 44 44 45 48 49 50 49 49 49 50 50 45 44 44 43 45 41 44 43 41 40 41 41 36 33 50 47 42 46 48 50
53 53 53 53 53 53 53 54 54 54 53 53 52 54 53 49 44 47 47 47 45 46 48 49 48 49 51 47 48 48 44 45 43 41 45 40 45 43 43 44 48 50 49 49 49 49 48

GFSGBSN_sfc_temp_090.txt.gz
Temp
62 63 62 62 61 61 61 62 61 61 62 62 62 61 61 61 62 61 62 62 62 63 62 63 62 62 58 53 55 66 67 67 67 65 60 57 53 52 46 50 52 48 51 55 56 56 56
63 63 63 63 62 61 61 61 60 60 61 61 62 61 61 61 60 60 61 60 62 62 61 62 62 61 55 47 67 68 67 65 65 62 59 58 55 55 48 48 47 51 50 51 53 52 54
63 63 63 63 62 62 60 60 59 59 60 61 61 61 61 60 60 60 60 61 61 61 62 62 62 61 55 54 68 67 66 64 65 63 57 60 59 52 51 46 53 51 43 46 48 50 49
62 62 62 62 62 61 60 59 59 59 59 60 60 60 60 60 60 59 58 60 60 61 61 61 61 60 50 66 67 65 65 63 65 65 61 60 59 53 48 51 47 42 42 34 46 49 51
61 60 61 61 62 61 60 59 58 58 58 58 59 60 59 59 59 58 59 59 59 60 60 59 56 54 50 61 58 64 65 59 60 61 60 62 56 48 48 37 34 37 29 34 40 52 50
58 57 56 59 61 60 59 58 58 58 58 58 58 59 58 59 58 56 58 58 57 58 58 60 59 48 54 52 59 62 65 63 56 55 52 50 46 39 40 34 21 30 32 37 37 46 49
54 55 56 56 59 59 59 58 57 57 56 57 58 58 58 58 58 57 54 51 45 43 49 47 49 52 54 60 62 58 62 57 56 51 40 45 32 31 36 39 38 37 33 32 38 46 44
54 54 56 56 58 58 58 58 58 54 54 56 57 57 57 57 57 57 52 46 48 51 40 53 55 55 58 59 50 54 61 49 46 38 44 38 30 40 45 44 41 38 33 32 38 44 42
56 56 58 59 58 58 58 58 57 56 56 55 56 56 56 57 57 52 48 47 51 53 44 45 49 51 52 55 50 50 54 50 43 40 41 35 40 47 42 40 36 34 32 32 32 39 41
58 59 59 59 58 58 57 57 57 57 55 55 55 56 56 56 51 48 46 50 51 52 35 37 42 50 52 54 46 58 56 51 45 39 42 38 44 41 40 36 37 30 41 37 34 32 26
60 59 58 58 58 58 57 57 57 56 56 56 55 55 55 55 51 46 48 51 52 48 25 41 44 59 54 48 48 48 58 50 41 42 38 36 42 39 35 36 40 35 41 38 36 33 32
59 58 58 58 58 58 57 57 56 56 56 55 55 54 54 54 53 54 52 52 50 32 24 35 43 42 43 46 47 48 47 48 43 37 38 36 45 41 40 46 46 44 37 38 38 33 25
58 58 58 58 58 57 57 57 57 56 55 54 53 53 53 54 46 55 54 47 32 27 40 34 38 43 44 42 43 43 39 37 34 31 31 39 41 46 46 41 47 42 33 27 24 22 27
58 58 57 57 56 56 56 56 56 54 53 53 54 53 53 55 54 54 50 37 27 34 35 45 43 43 37 44 44 42 38 35 38 37 34 32 27 43 49 43 38 40 37 30 23 25 28
58 57 57 57 57 58 56 56 56 56 55 53 54 50 50 53 54 52 42 31 30 34 43 42 43 38 38 44 44 41 39 39 42 41 33 31 30 46 46 46 45 39 34 39 32 33 31
57 57 57 57 57 57 57 56 55 56 54 54 46 47 47 54 53 47 36 32 35 44 49 48 39 45 36 40 39 38 38 39 40 45 45 39 31 42 44 47 46 39 44 32 33 26 26
57 57 57 58 57 57 57 56 56 56 56 54 51 40 47 53 51 40 32 34 40 51 52 46 45 43 43 41 41 41 39 41 44 44 45 42 38 37 41 39 40 39 39 41 41 37 28
57 57 57 57 57 57 56 56 56 56 56 55 47 35 47 51 37 38 35 39 44 46 53 50 50 49 45 44 43 42 41 45 50 49 43 47 41 34 40 47 48 45 43 43 29 31 33
57 57 57 57 57 56 56 56 56 56 57 52 39 40 49 49 35 36 41 40 43 48 50 50 47 50 49 45 40 44 46 50 51 48 43 45 37 28 32 39 44 42 46 46 45 40 31
56 57 57 56 56 55 55 55 55 56 57 54 44 34 42 44 44 43 40 38 42 51 50 52 50 51 48 45 47 42 44 49 49 49 48 46 41 33 25 31 39 36 42 45 40 28 33
56 57 57 56 56 55 55 55 55 56 56 52 49 40 45 36 42 46 44 43 45 44 51 52 48 49 47 42 44 42 45 47 50 49 46 45 33 31 39 42 41 41 41 42 37 40 31
56 57 57 56 56 56 55 55 54 55 54 52 46 43 46 45 49 47 44 46 45 46 46 47 46 49 49 42 43 42 46 45 42 48 44 47 32 33 29 42 41 36 41 42 42 42 43
56 56 56 56 56 56 55 54 54 54 54 52 52 53 49 45 46 44 43 46 46 48 48 49 47 47 44 44 48 49 48 49 44 43 43 42 35 29 27 38 37 29 37 39 41 42 40
56 56 56 56 56 55 55 55 55 54 53 53 51 50 47 40 44 45 48 49 46 47 45 48 48 47 46 52 52 51 49 48 48 45 48 41 38 32 25 30 21 35 43 43 41 44 44
55 55 55 55 55 55 55 55 55 54 54 51 50 47 47 41 45 47 48 47 48 47 45 46 47 48 51 47 42 40 39 40 43 45 44 45 40 30 25 25 35 37 40 39 37 37 43
55 55 55 55 54 54 54 54 55 54 54 53 47 47 47 44 39 47 47 48 44 43 43 45 49 51 48 44 41 30 29 33 33 38 45 46 44 35 32 25 24 35 42 45 43 31 42
54 54 54 54 54 54 54 54 54 54 54 51 46 48 45 42 41 43 41 42 46 44 42 43 45 45 46 40 36 32 30 36 30 29 30 35 36 30 31 26 33 41 43 44 27 30 42
53 54 54 53 53 54 54 54 54 54 54 52 46 49 45 42 40 44 45 41 43 44 41 43 42 43 42 36 35 34 32 35 32 36 33 33 30 30 31 25 23 43 40 34 39 40 42
53 53 53 53 53 53 54 54 54 54 53 54 46 51 51 42 39 46 45 45 42 41 37 44 42 44 42 37 37 37 34 35 35 30 36 30 37 32 35 34 42 42 40 41 43 42 40

GFSGBSN_sfc_temp_093.txt.gz
Temp
63 64 63 63 63 63 62 62 60 60 61 61 62 62 62 61 61 61 61 61 61 62 62 61 62 62 57 48 51 66 68 68 65 62 58 54 49 46 41 43 46 42 46 51 52 52 52
63 62 62 63 63 62 62 61 60 59 60 60 61 61 61 61 61 61 60 61 61 61 62 62 62 62 53 43 61 66 64 63 63 59 56 54 50 51 43 43 41 45 46 47 49 49 50
61 60 60 58 58 61 62 61 60 59 58 59 59 60 60 60 60 60 60 60 61 61 60 61 60 60 53 50 63 63 64 61 62 60 54 56 55 48 46 42 48 46 39 42 45 47 46
62 59 56 56 57 58 59 59 59 59 58 58 59 59 59 59 59 59 58 60 60 60 60 60 62 58 47 62 61 62 62 60 62 61 58 57 56 49 45 46 43 38 37 29 42 46 47
58 58 58 57 56 57 59 59 59 59 58 58 58 58 59 59 59 58 59 59 60 60 61 61 54 51 46 63 57 61 61 56 58 57 57 61 53 44 43 33 26 31 22 29 36 47 46
58 59 58 58 58 58 59 59 58 58 57 57 57 58 58 58 58 57 56 58 58 58 57 58 59 46 52 50 56 60 60 59 54 52 50 48 42 31 33 26 15 24 25 32 31 41 43
59 59 60 59 59 59 59 58 58 58 57 56 56 57 57 57 58 57 53 51 45 41 47 46 46 50 53 57 60 56 59 55 55 50 37 44 27 25 30 34 35 33 30 29 35 42 39
60 60 60 59 59 59 59 58 58 57 57 56 56 56 57 57 57 56 51 45 45 46 40 49 53 53 56 57 48 52 58 46 46 38 42 34 27 37 40 40 37 34 30 30 36 42 40
60 60 59 59 59 59 58 58 57 57 56 56 55 56 56 57 57 51 47 46 51 50 39 43 51 51 52 54 49 47 52 50 43 40 40 35 36 44 41 36 32 31 28 31 32 37 39
59 60 59 58 58 59 58 57 57 57 56 56 56 56 56 56 49 48 45 50 50 50 33 36 42 48 52 51 46 55 54 50 45 39 41 37 42 39 36 34 35 30 40 39 35 33 22
58 59 59 57 56 55 57 57 57 57 56 56 55 55 55 55 47 45 48 51 51 45 20 39 43 57 51 46 46 47 55 50 40 40 38 32 37 36 34 34 39 35 42 37 36 33 31
58 59 59 58 58 58 56 56 57 56 54 54 53 54 55 50 50 50 52 51 48 31 21 35 43 40 41 46 45 48 46 48 44 38 39 37 42 39 38 42 43 43 36 34 35 33 21
58 59 58 58 59 58 57 55 56 54 53 53 53 54 52 53 44 51 51 45 30 20 38 33 36 41 40 41 40 43 39 36 34 29 25 36 37 42 43 36 43 41 34 26 23 22 22
58 58 58 58 59 58 57 57 57 56 54 54 55 54 53 53 49 50 45 35 21 34 33 43 40 41 36 42 40 41 37 34 38 36 32 27 23 40 46 41 36 38 35 29 22 25 27
58 57 58 59 59 58 57 57 56 55 54 55 53 44 44 48 52 48 38 27 29 34 41 40 41 34 36 41 42 40 38 38 41 37 32 30 29 45 45 45 43 39 34 39 32 33 27
58 58 58 58 58 57 58 57 56 55 55 54 42 44 43 49 49 42 35 32 35 39 44 44 34 39 30 35 37 35 36 39 41 44 44 38 30 41 43 45 44 40 43 29 30 25 26
58 58 58 58 57 57 57 57 56 55 56 55 45 41 46 50 46 38 32 34 40 47 49 42 40 40 37 36 37 37 36 39 44 44 44 41 35 36 40 37 38 37 35 36 36 32 26
57 58 57 57 56 56 56 57 57 57 57 50 43 35 46 46 33 38 34 40 43 44 48 47 46 43 39 41 42 41 40 42 46 48 40 43 37 30 37 45 45 41 38 38 27 28 28
57 57 57 56 56 56 56 56 57 57 56 43 39 40 46 44 33 36 41 39 43 44 45 46 44 45 45 40 36 39 40 48 49 45 40 41 33 23 29 36 41 38 43 42 39 34 27
57 57 57 56 56 56 56 56 56 56 56 45 37 28 36 39 37 38 36 35 39 47 47 48 46 46 42 40 43 38 40 46 48 47 49 45 36 30 23 30 36 33 38 41 36 25 28
57 57 57 57 56 56 56 55 55 55 55 46 38 32 37 29 36 37 39 39 40 40 45 48 45 45 42 37 39 38 42 43 46 49 43 42 31 29 36 40 39 37 37 38 34 35 28
56 57 56 56 56 56 55 55 55 55 55 45 37 36 38 36 41 38 40 39 40 41 42 41 40 43 42 37 37 36 41 39 37 43 41 42 29 31 27 39 39 33 37 38 39 39 38
56 56 56 56 56 56 55 55 55 55 53 42 43 44 41 40 37 36 37 40 42 43 44 45 42 41 39 40 42 42 42 45 42 38 39 38 31 25 25 34 34 28 33 35 37 38 37
55 56 56 56 55 55 55 55 55 55 52 44 41 40 37 34 37 39 43 44 42 42 40 43 43 41 43 47 46 45 44 45 43 41 43 38 34 28 21 29 20 34 39 40 38 40 40
55 55 55 55 55 55 54 54 55 55 55 43 41 39 37 33 38 42 42 41 41 41 40 42 43 44 45 43 38 36 35 37 40 42 40 41 36 27 23 20 31 34 38 36 34 34 39
54 55 54 54 54 54 54 54 54 55 55 43 40 40 39 35 34 39 39 42 37 35 38 42 46 47 44 40 36 28 27 30 31 36 43 43 39 31 28 23 23 34 39 42 40 28 39
54 54 54 54 54 54 54 54 54 54 54 45 41 42 40 35 35 37 36 36 40 37 36 39 42 43 43 35 32 29 26 34 28 27 29 31 32 28 28 23 31 38 41 42 26 31 40
53 53 53 53 53 53 54 54 54 54 54 46 42 43 40 34 35 40 41 37 37 37 35 39 40 40 38 33 32 31 29 32 29 33 31 31 27 27 28 24 22 41 38 34 38 38 41
53 53 53 53 53 53 53 54 54 53 54 51 41 45 45 38 37 42 42 42 41 40 36 37 39 38 38 33 33 32 32 30 30 27 33 30 34 31 33 32 40 40 39 39 41 40 39

GFSGBSN_sfc_temp_096.txt.gz
Temp
64 63 62 61 59 57 57 61 61 60 60 60 60 61 60 61 61 61 61 61 61 62 62 61 61 62 57 47 49 64 68 68 63 61 56 52 47 44 39 40 44 40 43 48 49 49 49
61 60 60 59 57 57 56 57 58 59 60 60 60 60 60 60 61 61 61 61 61 61 62 61 61 60 54 45 59 65 63 61 61 58 54 52 47 48 42 41 39 42 43 44 46 46 47
61 61 61 60 59 57 57 58 58 59 59 59 59 59 59 60 60 60 60 60 60 61 61 61 61 60 54 50 61 61 62 59 60 58 52 53 52 47 44 40 45 43 37 40 43 44 44
61 61 60 60 59 59 59 59 59 58 58 58 58 58 59 59 59 59 59 59 60 61 61 61 61 57 47 61 59 61 61 58 59 59 56 55 55 48 43 44 41 36 35 28 40 43 45
61 60 61 61 60 60 60 59 59 59 58 58 58 56 57 58 58 58 58 58 60 61 60 60 54 52 46 63 56 59 59 55 56 56 56 60 52 42 42 31 25 29 22 27 33 44 43
62 61 61 60 60 60 60 59 58 58 58 57 57 57 57 57 57 56 53 60 60 58 57 59 57 46 51 49 55 58 58 58 53 51 49 47 39 29 31 23 14 23 23 29 30 38 41
61 61 60 60 60 59 59 58 58 58 57 57 57 56 57 57 57 54 51 49 46 44 48 46 47 48 50 56 59 55 58 54 53 46 34 39 26 24 28 32 33 31 28 26 34 40 37
60 59 60 59 59 59 58 58 58 58 57 56 56 56 57 57 55 54 50 44 44 47 40 51 51 52 56 57 47 51 57 45 43 35 39 32 23 35 38 37 34 32 29 29 35 40 37
60 59 59 59 58 56 56 57 57 57 57 56 56 56 56 57 55 51 47 45 50 49 39 43 51 51 51 53 46 46 51 48 44 40 39 34 35 42 39 35 31 28 24 29 29 38 40
59 59 59 59 59 57 56 55 56 57 56 56 56 56 56 56 49 48 45 49 50 49 33 34 42 48 52 51 45 55 54 49 44 39 40 35 40 38 35 32 33 28 37 37 35 33 27
59 59 59 59 59 58 57 54 56 56 56 55 55 55 56 54 47 44 48 50 51 46 21 37 41 55 50 45 45 46 53 50 40 40 38 32 35 34 33 33 37 32 41 38 37 33 30
59 59 59 59 59 58 57 56 55 55 54 54 54 54 55 49 47 49 51 50 47 29 22 34 42 40 42 45 44 46 46 48 43 38 39 36 41 37 36 41 41 43 38 36 35 33 18
58 59 60 59 58 58 58 57 55 54 54 54 54 55 52 51 43 50 49 43 28 22 38 31 35 39 39 40 38 42 39 37 34 26 27 34 35 39 41 35 41 38 33 24 17 23 21
59 59 59 58 58 57 57 57 56 55 55 55 54 52 51 50 48 49 44 33 23 33 33 41 39 40 37 40 40 41 37 34 39 36 32 29 23 38 42 38 36 36 35 28 21 24 26
59 58 58 58 58 57 57 56 56 56 55 55 52 43 43 47 49 45 36 29 29 32 39 38 39 34 34 40 39 39 37 38 40 38 31 31 25 42 44 44 42 38 34 39 31 32 23
59 58 58 58 58 58 57 57 56 55 55 54 41 41 43 48 47 41 34 34 34 40 43 41 32 36 29 34 37 35 36 38 41 42 43 37 31 40 42 44 43 40 42 31 31 21 25
58 58 57 58 57 57 58 58 57 56 56 56 42 36 45 48 46 38 32 33 37 45 46 41 37 35 35 34 35 34 34 39 44 44 44 38 36 34 39 35 36 37 34 35 35 33 26
58 58 57 57 57 57 57 57 57 57 56 49 40 30 45 46 34 35 29 39 43 42 46 44 43 41 37 37 36 36 34 39 45 44 36 42 36 29 34 42 44 39 37 34 26 28 28
58 58 57 57 56 56 56 56 57 57 54 42 36 35 44 43 29 31 37 38 40 42 43 44 42 44 43 38 34 37 38 45 45 43 37 39 31 21 28 35 39 35 39 39 36 32 25
57 57 57 57 56 56 56 55 56 56 55 44 35 30 36 38 36 32 34 35 38 46 45 46 44 45 42 39 40 36 38 44 45 45 49 45 34 29 22 30 34 33 36 38 33 24 27
56 57 57 57 56 56 56 55 55 55 55 45 37 32 36 28 35 35 36 38 38 38 45 45 42 41 39 35 36 35 39 41 44 47 42 40 30 29 33 36 37 35 34 36 32 31 27
56 56 56 56 56 56 55 55 55 55 55 43 37 36 36 35 37 36 38 38 39 40 40 39 38 41 40 36 36 34 37 36 35 41 38 39 29 30 26 36 36 35 36 36 36 36 35
56 56 56 56 56 55 55 55 55 55 52 41 40 41 40 38 35 34 36 39 40 41 42 43 41 39 37 39 41 41 41 40 39 37 37 36 30 24 24 31 33 28 33 33 34 36 35
55 55 55 55 55 55 54 54 55 55 50 42 39 39 37 34 35 38 41 42 41 41 38 42 41 39 42 45 44 42 40 41 41 41 41 36 32 27 22 27 18 32 37 38 35 37 37
54 55 55 55 55 54 54 54 55 55 53 41 39 39 36 32 35 40 40 40 39 40 39 40 42 44 43 41 37 34 34 35 38 40 39 39 33 26 21 20 30 32 37 36 34 35 38
54 54 55 54 54 54 54 54 54 54 54 42 39 39 38 35 35 39 37 38 35 33 37 40 44 45 43 38 35 27 26 29 30 34 39 40 36 30 25 22 22 33 37 40 39 28 39
54 54 54 54 54 54 54 54 54 54 54 44 40 40 39 34 35 36 36 38 38 35 34 36 40 41 41 34 32 28 25 32 27 27 28 30 30 26 27 23 29 37 39 40 25 31 39
53 53 53 53 53 53 53 54 54 53 53 45 41 41 40 33 34 39 40 36 37 37 35 39 38 39 36 32 31 30 28 30 28 30 29 30 26 25 26 23 21 39 37 33 38 36 39
53 53 53 53 52 53 53 53 53 53 54 50 40 43 43 38 37 40 41 40 39 40 38 36 38 37 37 33 31 30 31 28 28 26 32 29 33 30 31 31 39 39 39 39 39 39 38

GFSGBSN_sfc_temp_099.txt.gz
Temp
62 62 62 61 60 59 58 58 58 58 59 60 60 60 59 59 61 61 61 60 61 61 62 61 62 61 57 49 48 62 69 68 62 59 54 51 46 43 38 38 42 38 41 45 46 46 46
62 62 61 60 61 59 59 58 58 58 59 59 60 59 59 59 59 60 60 61 60 60 62 61 60 58 53 45 57 63 61 60 60 56 51 50 46 47 40 39 38 39 41 42 44 44 45
63 61 61 62 60 60 60 60 59 58 58 59 59 58 59 59 59 60 60 60 60 59 60 61 60 59 53 49 59 60 61 57 58 56 50 52 51 46 42 38 43 42 36 39 41 42 42
62 62 62 61 60 61 60 60 59 59 59 58 58 58 58 58 58 58 59 59 58 59 60 60 60 56 46 61 60 60 59 56 58 57 54 54 53 47 42 42 39 34 33 28 39 42 44
62 62 62 61 61 61 59 59 59 58 58 57 57 57 57 57 58 58 57 57 59 60 60 59 53 51 45 62 55 58 58 53 54 55 55 58 50 41 40 29 25 29 22 26 32 42 41
61 61 60 60 59 59 59 59 59 58 57 57 57 57 56 57 57 55 55 60 61 59 56 56 55 46 51 49 54 56 57 57 52 50 47 45 37 29 29 23 15 22 22 28 28 37 39
61 61 60 60 59 57 56 58 58 58 57 57 56 56 57 56 55 55 52 51 47 44 49 46 46 47 49 55 58 53 56 53 51 45 34 38 27 21 29 31 31 29 26 25 32 39 35
60 60 60 60 60 58 55 56 57 58 57 56 56 56 57 55 56 54 50 45 44 47 39 49 51 49 55 56 46 50 56 44 42 34 36 31 22 34 37 36 32 29 26 28 33 39 39
60 61 61 60 60 59 55 54 56 57 57 56 56 56 57 56 55 51 46 46 50 50 38 42 49 49 51 52 45 45 50 46 41 35 34 29 35 41 37 33 30 28 25 27 28 38 41
60 61 61 60 60 59 56 55 57 57 56 56 56 56 56 56 49 48 45 49 50 49 33 34 41 48 50 50 43 53 52 46 42 35 37 32 39 37 34 31 31 26 35 34 33 33 29
61 61 60 59 58 58 56 57 57 57 56 55 55 56 56 55 46 44 47 50 50 47 19 37 41 53 50 43 44 45 53 49 40 40 36 31 34 33 32 31 35 32 39 36 36 34 32
60 60 59 59 58 58 57 56 56 56 55 55 55 56 54 49 49 49 50 50 46 28 17 34 41 39 40 43 43 46 47 48 45 39 40 34 40 37 35 39 39 42 35 35 35 32 19
59 59 59 59 58 58 57 56 56 56 55 55 55 55 51 50 42 49 49 43 27 23 36 31 34 38 39 39 38 42 39 37 35 22 23 32 33 38 39 33 39 37 33 22 19 17 20
59 59 59 58 58 58 57 57 56 56 56 55 54 52 49 51 48 47 43 34 22 32 33 40 38 40 37 39 40 39 38 34 37 37 32 21 23 36 40 37 34 34 36 28 21 17 25
58 58 58 58 58 58 57 57 57 56 55 55 52 43 43 46 48 44 37 27 28 34 38 36 40 34 33 40 38 36 36 37 40 39 30 30 25 41 41 42 40 35 33 40 32 31 28
59 58 58 58 58 58 58 57 56 56 55 55 41 40 42 48 46 40 33 33 33 38 41 39 31 34 31 34 35 35 33 39 41 42 43 36 29 37 41 43 41 38 41 31 30 23 23
58 58 58 58 57 57 58 58 58 57 57 55 41 37 45 47 45 38 30 32 37 43 44 39 35 33 33 32 34 32 33 38 42 44 43 40 35 34 38 35 34 35 33 34 33 31 26
58 58 58 57 57 56 56 56 57 57 56 48 38 33 45 45 35 32 31 35 43 41 44 42 41 39 36 36 34 33 33 37 43 42 36 40 35 30 33 40 39 38 35 33 24 26 27
57 57 57 57 56 56 56 56 56 56 54 41 35 35 44 43 29 28 36 38 39 42 42 42 40 42 41 37 33 36 37 43 43 41 36 37 29 20 28 34 38 34 36 36 33 29 25
57 57 57 57 56 56 56 56 56 56 56 42 36 32 38 38 35 32 33 35 38 44 43 44 41 42 39 36 38 35 36 43 43 43 49 44 32 29 22 30 32 32 35 35 31 22 26
56 56 57 56 56 56 55 55 55 55 55 44 36 32 35 28 35 35 35 36 37 37 42 43 39 39 36 33 34 33 36 39 42 46 40 39 29 28 32 34 33 34 34 34 30 30 25
56 57 56 56 56 56 55 55 55 55 54 42 37 36 35 33 35 35 37 36 37 39 38 39 37 39 38 34 34 32 35 34 34 38 36 37 28 30 26 34 33 32 35 35 34 33 32
55 56 56 56 55 55 55 54 55 55 51 40 39 39 40 37 34 33 34 37 39 39 41 41 39 37 37 38 39 40 40 39 37 35 36 34 29 24 23 30 31 27 32 34 34 35 35
55 55 55 55 55 54 54 54 54 55 49 41 38 38 36 34 34 36 39 40 38 38 37 41 39 37 40 43 42 38 36 37 37 37 38 34 30 26 22 26 17 32 35 37 35 37 37
55 54 55 55 54 54 54 54 54 54 52 40 38 38 35 32 34 37 38 37 39 39 37 39 41 43 42 40 36 34 32 34 35 37 36 37 32 25 20 18 29 31 35 34 33 34 38
54 54 54 54 54 53 53 54 54 54 54 41 38 38 38 35 34 37 37 36 35 32 36 39 43 44 41 37 34 27 26 28 30 33 37 36 34 29 25 20 21 31 35 38 37 28 37
55 54 54 53 53 53 53 53 54 54 54 43 39 39 38 34 35 36 35 36 37 34 34 35 39 39 39 33 32 28 25 30 26 26 27 30 28 26 26 22 28 35 38 38 26 31 37
54 54 54 53 53 53 53 53 53 53 53 44 40 40 39 34 35 38 39 37 36 35 35 38 37 37 35 32 30 29 27 29 25 29 29 30 25 24 25 22 21 38 36 33 37 34 37
54 54 53 53 52 52 52 53 53 53 53 48 39 42 42 37 38 39 40 40 39 39 37 35 36 36 36 32 30 29 30 26 27 26 29 28 33 30 30 30 38 38 38 38 38 39 37

GFSGBSN_sfc_temp_102.txt.gz
Temp
64 63 61 61 62 61 60 60 59 59 59 60 60 60 57 56 59 61 61 61 60 60 61 62 61 58 55 50 48 61 68 67 61 58 53 50 44 41 37 37 40 37 38 43 44 44 44
63 62 63 62 61 61 61 60 59 59 59 59 59 59 57 57 58 59 60 60 60 60 60 61 60 60 53 43 59 61 61 60 58 54 50 49 45 45 40 38 37 37 40 40 43 43 43
62 63 62 62 61 60 60 60 59 59 59 59 59 59 57 56 58 59 59 60 60 60 59 60 58 57 51 47 59 59 59 55 57 54 49 51 50 45 41 37 41 39 35 38 39 40 41
62 62 61 61 60 58 58 58 58 59 58 58 58 58 57 57 58 58 58 59 59 58 60 59 58 53 44 55 59 59 58 54 56 56 53 52 52 46 41 40 37 33 32 30 39 40 43
62 61 61 61 60 60 54 56 57 58 57 57 58 57 55 57 58 56 57 58 58 58 60 58 53 49 43 60 55 57 58 53 53 53 54 56 48 39 38 29 26 28 23 26 32 41 40
62 62 62 61 60 56 53 55 57 58 58 57 56 57 57 56 55 56 57 59 60 58 56 56 55 46 50 47 54 55 56 56 51 49 46 43 36 29 28 23 16 22 21 27 27 36 37
62 62 62 61 59 56 55 56 58 58 57 57 57 57 57 57 56 55 52 52 47 44 49 45 45 45 50 54 58 53 56 53 51 44 33 36 27 22 28 29 31 27 24 24 30 38 34
62 61 61 60 59 57 57 57 58 58 57 57 57 57 56 56 56 55 51 45 44 46 38 48 51 51 55 55 46 50 56 44 42 33 35 31 23 33 37 35 31 28 24 25 31 37 37
61 61 60 60 59 58 57 57 58 57 57 57 56 56 56 56 55 51 47 46 50 49 38 42 47 47 50 52 44 45 50 45 39 34 33 28 34 39 36 32 28 25 23 25 26 37 40
61 60 60 59 59 58 58 57 57 57 56 56 56 56 56 56 50 47 45 50 50 49 32 34 41 48 50 49 42 51 50 45 40 34 34 31 37 36 32 31 30 25 33 33 33 31 27
60 60 59 59 59 58 58 57 57 56 56 56 57 56 56 54 46 44 47 50 51 46 20 38 41 53 49 43 43 44 53 49 40 38 34 30 32 32 31 30 34 32 37 35 36 32 31
60 60 60 59 58 57 57 57 56 56 56 56 55 55 55 50 48 49 50 50 46 30 19 33 40 39 39 42 41 46 47 48 45 38 38 34 39 36 34 37 37 40 35 36 35 32 19
59 59 59 58 58 57 57 57 57 57 56 56 55 55 51 50 44 49 48 41 27 22 36 31 33 37 40 38 37 42 37 35 33 20 19 31 32 36 38 33 37 37 32 20 16 14 19
59 59 59 59 58 58 58 57 57 57 56 55 54 52 50 50 46 46 41 32 20 32 33 38 37 41 38 38 37 37 34 28 35 37 26 22 23 34 39 36 34 36 36 28 18 15 22
59 58 58 58 58 58 58 57 57 56 56 55 52 42 43 46 47 43 36 26 23 31 36 35 37 32 30 37 36 34 32 34 39 39 29 30 24 39 39 40 39 34 32 40 31 31 26
58 58 58 58 57 57 57 57 57 57 57 55 41 39 41 47 45 40 33 33 31 37 40 38 31 32 27 30 32 33 30 38 41 43 41 37 30 37 40 41 40 36 38 27 31 18 17
58 58 58 58 57 57 57 57 57 57 56 53 40 39 46 46 44 38 31 32 36 42 42 37 32 31 30 30 32 29 30 37 40 43 43 40 34 32 35 34 34 33 31 33 32 28 24
58 58 58 57 56 56 56 56 57 56 55 47 38 34 47 45 35 31 32 33 42 40 43 41 39 37 34 34 31 30 31 36 42 41 37 40 37 30 31 37 37 35 32 31 23 24 26
57 57 57 57 56 56 56 56 56 56 53 41 35 35 45 45 30 28 35 37 39 40 40 41 39 41 39 35 31 33 35 42 42 40 36 37 29 20 28 33 35 32 34 34 32 28 24
57 57 57 56 56 56 55 55 56 56 55 42 37 32 38 37 35 33 32 34 37 43 41 42 39 41 38 34 36 34 35 41 41 41 48 43 31 28 22 30 32 31 32 33 30 20 25
56 57 56 56 56 56 55 55 55 55 55 43 36 32 34 29 34 33 33 35 36 36 41 41 39 38 35 32 33 32 35 38 39 45 39 37 29 26 30 32 32 33 33 33 30 29 26
55 56 56 56 56 55 55 54 55 55 54 41 36 35 34 33 34 34 36 35 36 38 37 37 36 38 36 33 34 31 34 33 33 36 36 36 27 28 24 33 31 31 33 33 33 33 32
55 55 56 55 55 55 54 54 54 54 51 39 37 38 39 35 33 33 34 36 37 37 39 40 38 36 34 38 40 40 40 39 37 33 34 33 28 24 23 29 30 27 30 32 34 34 34
55 55 55 55 55 54 54 54 54 54 48 40 37 37 36 33 33 35 38 40 39 39 37 40 39 36 39 41 40 37 34 36 35 35 36 32 30 26 21 26 16 32 33 35 35 36 36
55 55 54 54 54 54 54 54 54 54 52 40 37 38 35 32 33 36 37 37 37 36 37 40 42 43 40 38 35 33 31 32 32 34 33 35 31 24 19 17 29 31 32 34 32 34 36
55 55 54 54 54 53 53 53 54 54 53 40 37 38 37 34 33 37 36 35 33 31 35 38 41 42 39 35 33 28 27 26 29 31 34 34 32 28 23 19 20 30 33 37 36 27 36
56 55 54 54 53 53 53 53 53 53 53 43 38 39 38 33 34 35 35 35 37 33 32 33 37 37 38 32 31 28 25 28 26 26 28 28 27 25 25 22 27 34 36 38 24 31 35
56 55 54 54 53 53 53 53 53 53 53 44 39 39 39 33 35 37 38 36 35 34 34 37 36 36 33 31 30 28 26 27 24 27 26 28 24 23 23 21 20 36 35 32 37 33 37
56 55 54 53 53 52 52 53 53 53 53 47 38 41 40 36 37 38 40 39 39 39 37 35 35 35 36 31 30 29 29 24 25 25 27 27 32 29 30 30 37 37 38 39 38 38 37

GFSGBSN_sfc_temp_105.txt.gz
Temp
63 63 63 63 62 61 61 61 60 59 59 60 60 59 58 57 56 56 61 61 61 61 61 61 59 58 55 49 48 61 67 66 60 58 53 51 47 45 41 42 44 42 41 45 46 45 45
63 63 63 62 61 60 57 59 60 59 59 59 59 58 58 56 55 56 60 60 60 60 61 61 58 58 53 43 59 61 61 59 57 54 51 51 48 48 43 41 41 42 42 42 44 44 45
62 62 62 62 61 60 54 56 58 59 59 59 59 58 57 57 54 57 59 59 59 58 60 59 58 57 51 47 60 59 59 55 56 55 50 52 52 47 45 40 43 42 40 41 43 44 43
63 63 63 61 59 55 54 55 58 59 58 58 58 57 56 57 57 58 58 58 59 58 60 58 58 54 46 56 57 59 59 55 57 56 53 53 52 47 43 44 40 36 37 36 42 42 44
63 62 62 60 57 55 56 56 58 58 58 58 57 57 57 57 57 57 57 58 59 58 60 59 53 53 44 58 55 57 58 53 54 54 53 55 49 41 41 34 32 33 33 32 36 43 42
62 62 61 59 58 57 58 58 58 58 58 57 58 57 56 57 56 58 59 60 59 57 56 57 55 48 47 46 54 55 57 56 51 50 47 44 38 34 33 30 25 31 30 31 31 39 40
62 61 60 60 59 58 59 59 59 58 58 58 57 57 57 56 56 56 52 52 46 44 48 44 45 45 46 55 56 52 56 53 51 45 37 38 31 29 34 34 34 31 29 28 32 39 35
61 61 60 60 59 59 59 59 58 58 57 57 57 56 57 57 56 56 51 45 44 46 39 48 50 51 55 55 46 49 55 45 43 35 38 34 28 36 37 36 34 31 27 27 34 37 38
61 61 60 60 59 59 59 58 58 57 57 57 57 56 56 57 55 52 48 46 50 49 37 41 49 48 50 52 44 45 50 46 40 37 36 32 36 39 37 34 31 28 26 28 31 36 40
61 60 60 59 59 59 58 57 57 57 57 57 57 56 56 56 50 48 45 50 50 49 32 34 41 47 49 49 41 51 51 46 42 36 36 35 39 37 35 32 32 26 34 34 33 32 29
60 60 59 59 58 58 57 57 57 57 56 56 56 56 56 54 47 44 47 50 50 46 19 38 41 53 49 42 43 45 52 48 39 38 35 32 34 34 33 32 35 35 38 36 36 32 32
60 60 59 59 58 58 58 57 57 57 56 56 56 56 55 50 48 48 49 48 46 27 20 33 40 39 40 41 42 45 45 47 44 38 36 35 40 37 36 38 37 40 37 37 36 32 23
59 59 59 59 59 58 58 58 57 57 57 56 55 55 51 49 42 47 46 41 27 24 35 31 34 39 40 36 38 41 37 35 30 23 20 32 35 38 39 35 38 38 34 26 20 18 23
59 59 58 58 58 58 58 58 58 57 57 56 55 52 49 49 45 45 41 34 21 31 32 38 39 42 35 37 36 37 34 28 36 34 24 21 23 35 39 37 36 37 36 28 21 19 24
59 58 58 58 58 58 58 58 57 57 56 56 52 42 43 46 46 43 37 27 23 31 36 34 36 32 30 39 35 34 33 33 37 37 27 27 25 40 39 41 41 37 33 40 31 31 26
58 58 58 58 58 57 57 58 58 57 56 54 41 39 41 46 44 40 33 32 30 37 39 37 31 32 28 31 31 31 31 37 38 41 40 35 28 37 40 42 40 38 40 29 31 23 20
58 58 58 58 57 57 57 57 57 57 56 52 40 39 45 44 43 38 27 29 35 41 41 36 32 31 30 31 32 30 31 37 40 40 41 40 35 32 37 34 35 34 32 34 34 31 24
57 57 58 57 56 56 56 56 57 57 54 46 38 34 46 43 35 30 33 34 42 39 42 40 38 36 34 33 31 30 31 36 42 41 39 41 36 30 31 38 39 37 35 33 27 26 28
57 57 57 57 56 56 56 56 56 56 53 41 36 36 45 45 30 25 33 36 38 39 38 39 38 40 38 34 31 32 34 41 42 40 36 38 32 25 28 34 36 35 36 36 33 30 26
56 57 57 56 56 55 55 55 55 56 55 41 37 32 38 36 34 33 33 33 35 41 40 40 38 40 37 35 35 33 34 40 41 41 47 44 32 29 23 31 34 32 33 35 33 24 27
56 56 56 56 56 55 55 55 55 55 55 43 35 32 33 29 34 32 33 34 34 34 39 40 37 37 34 31 32 31 35 37 39 44 39 38 29 27 30 33 33 33 34 33 30 31 28
56 56 56 55 55 55 55 54 54 54 54 40 36 35 33 31 33 31 35 34 36 36 37 35 37 37 36 34 36 33 35 34 34 36 35 35 28 29 24 33 32 29 32 32 33 33 31
56 55 55 55 55 55 54 54 54 54 50 39 36 37 38 34 32 31 32 34 37 36 39 40 38 35 34 38 40 40 40 39 38 36 34 33 29 25 23 29 29 27 31 31 33 34 35
56 55 55 55 55 54 54 54 54 54 48 39 36 37 36 33 33 34 35 36 36 37 36 39 37 34 39 41 39 36 33 35 34 34 36 31 29 26 22 26 19 34 36 36 35 36 37
57 56 55 55 54 54 54 54 54 54 52 39 36 38 35 32 32 34 35 35 35 34 34 36 39 40 40 38 34 33 31 31 31 32 31 34 31 25 20 18 30 32 34 35 33 35 37
56 56 55 55 54 53 53 53 53 54 53 39 36 37 37 34 33 36 35 34 33 30 33 37 39 41 39 34 32 27 26 26 28 28 32 32 32 28 23 20 22 32 35 39 39 30 38
56 56 55 55 54 53 53 53 53 53 53 42 37 37 37 34 35 36 35 35 35 32 32 32 35 35 37 32 31 27 24 27 25 25 25 27 26 25 25 22 28 35 37 37 27 34 38
56 56 55 54 54 53 53 53 53 53 53 43 39 38 37 33 34 37 39 36 34 34 33 36 35 34 32 31 30 28 26 26 24 26 26 27 24 22 23 21 20 37 36 34 39 36 38
55 55 55 54 54 53 53 53 53 53 53 46 37 40 40 36 37 38 39 38 41 41 37 34 35 34 35 31 29 29 29 24 25 24 26 27 32 29 29 30 38 37 39 39 39 40 40

GFSGBSN_sfc_temp_108.txt.gz
Temp
64 64 64 63 63 61 55 55 59 60 60 60 60 59 58 58 58 58 58 61 61 61 61 62 60 60 57 53 52 66 67 67 68 66 62 61 59 56 52 53 53 51 51 52 54 53 53
63 64 61 60 58 55 55 55 59 59 60 60 60 59 58 57 57 56 57 60 61 61 61 60 59 57 54 44 63 67 67 66 65 64 60 61 59 59 54 51 51 51 50 52 52 52 52
63 62 60 58 58 57 57 59 59 59 59 59 59 58 58 57 56 54 58 59 60 60 61 60 58 56 51 47 62 67 65 62 63 64 58 60 62 58 57 49 51 50 49 51 51 51 51
63 61 60 59 59 59 59 59 59 59 59 59 58 58 57 57 55 57 59 59 59 59 60 59 58 54 43 57 65 65 67 62 64 63 60 61 63 55 53 53 51 49 50 50 50 51 50
62 61 60 59 61 60 60 59 59 59 59 59 58 58 57 57 57 57 58 58 59 59 59 58 53 54 42 61 58 63 66 59 60 60 60 61 57 51 51 49 48 50 49 46 49 50 49
62 61 60 60 61 61 60 60 59 59 59 58 58 57 57 57 56 59 58 59 58 57 55 57 53 48 48 47 57 60 64 62 57 56 54 53 51 48 50 47 40 44 45 44 44 49 48
61 61 60 60 60 60 60 59 59 58 58 58 57 57 58 57 56 59 57 52 50 45 49 44 47 46 47 56 62 58 61 59 57 53 46 46 42 40 42 45 44 42 40 40 48 48 44
61 61 60 59 59 60 59 59 58 58 58 58 57 57 58 57 58 58 55 48 45 48 39 51 51 51 57 59 51 55 62 52 50 44 45 45 37 43 44 43 42 40 39 43 46 46 46
61 61 60 60 60 59 59 59 58 58 58 57 57 57 57 57 57 55 50 47 53 53 39 43 51 51 52 57 48 50 56 52 48 44 44 44 42 44 43 40 38 39 36 39 38 44 51
61 60 60 59 59 59 59 58 58 58 57 57 57 56 57 57 54 51 47 52 54 53 37 35 44 51 54 54 47 56 57 52 47 42 43 43 44 42 41 39 40 35 43 41 39 38 35
60 60 60 59 59 59 58 58 58 58 57 57 57 57 56 57 52 49 51 55 55 51 27 38 45 58 54 48 48 50 57 53 44 43 43 37 40 40 39 38 43 41 43 42 40 36 35
60 59 59 59 59 59 59 58 58 58 57 56 56 56 56 56 56 53 55 54 53 39 24 36 45 45 45 47 47 50 50 54 50 44 43 42 46 44 44 44 44 46 41 40 39 36 29
59 59 59 59 59 58 58 58 58 58 57 56 56 55 56 55 52 54 54 51 36 29 37 36 39 44 43 42 43 45 43 43 39 34 32 41 42 44 44 41 44 41 39 32 31 29 34
59 59 59 59 59 58 58 58 58 58 57 56 55 54 52 55 55 53 53 47 29 34 36 42 43 44 40 43 43 43 42 41 44 43 37 34 33 42 45 44 43 44 42 32 25 31 34
58 59 58 58 58 58 58 58 58 57 56 55 53 55 55 54 54 54 52 33 31 38 42 41 42 39 38 43 43 43 42 42 45 45 36 34 34 46 45 48 47 42 37 42 32 35 30
58 58 58 58 58 57 57 58 58 57 56 54 53 52 52 53 53 54 45 33 38 43 45 44 38 41 38 40 41 42 41 45 44 46 48 41 32 44 45 47 47 45 45 35 36 27 28
58 58 58 57 57 57 57 57 57 57 55 53 54 53 54 53 53 51 34 38 44 47 48 44 41 41 41 40 41 41 41 45 48 46 49 46 41 41 44 43 44 40 40 40 41 38 31
57 58 57 57 56 56 56 56 57 57 54 54 52 46 53 52 47 45 40 45 45 47 49 47 47 45 44 43 42 41 42 45 51 50 44 47 43 35 41 47 47 46 44 44 38 33 38
57 57 57 56 56 56 55 56 56 56 54 55 49 48 55 53 42 41 44 44 46 46 46 46 46 48 48 44 41 43 44 50 50 49 46 47 40 33 38 42 44 42 45 45 42 40 35
56 56 56 56 56 55 55 55 55 56 55 55 53 44 53 50 46 48 45 43 43 48 47 47 47 48 46 44 45 44 45 47 49 49 47 48 42 39 37 43 44 40 43 44 42 35 40
56 56 56 56 56 55 55 54 55 55 54 55 50 43 44 43 46 45 46 45 43 43 47 48 45 47 46 43 43 43 46 46 46 48 48 47 37 39 41 43 43 41 41 42 38 40 36
56 56 56 56 55 55 54 54 54 54 54 52 51 49 45 45 44 46 44 44 43 44 45 46 45 45 46 45 47 45 46 46 46 46 45 44 37 38 33 44 42 37 41 41 41 42 42
56 56 56 56 55 55 54 54 54 54 54 52 47 49 52 41 44 46 45 44 44 45 47 47 46 45 44 46 48 51 51 49 47 46 44 42 39 35 33 40 39 36 42 42 42 43 43
56 56 56 55 55 54 54 54 54 54 50 52 48 50 51 45 45 46 44 45 45 45 44 47 47 46 49 51 51 49 47 46 46 46 47 41 38 38 32 37 30 42 47 46 43 46 47
57 57 56 55 54 54 54 54 54 54 52 51 47 49 49 47 46 43 43 45 45 46 45 46 49 52 51 49 46 44 45 42 41 41 42 44 42 36 31 32 41 43 42 42 41 45 49
57 57 56 55 54 54 53 53 53 54 53 51 47 46 49 46 47 48 46 46 45 45 45 45 49 51 49 47 44 37 39 39 39 38 40 40 43 36 34 28 31 43 46 48 47 41 50
56 56 56 56 54 54 53 53 53 53 53 50 47 46 49 46 48 47 46 46 47 44 45 44 46 45 47 45 41 39 38 39 37 36 35 36 34 31 32 29 38 49 48 48 37 44 50
56 56 56 55 55 54 53 53 53 53 53 50 47 46 49 45 47 45 47 45 43 45 45 46 45 43 43 40 41 41 38 41 37 40 39 39 36 33 34 30 28 48 44 42 51 50 50
55 55 55 55 54 54 53 53 53 53 53 49 48 46 47 46 47 45 48 48 48 49 49 45 45 44 48 44 42 43 39 38 40 37 40 36 44 43 42 43 50 49 53 52 50 49 50

GFSGBSN_sfc_temp_111.txt.gz
Temp
62 61 60 60 59 58 57 56 60 60 61 60 60 60 59 60 59 59 59 61 61 61 62 61 59 58 57 55 52 69 68 68 71 69 67 66 64 63 58 59 59 57 57 58 59 57 58
62 61 60 61 61 61 60 60 60 60 60 60 60 59 59 59 58 59 58 60 61 61 61 60 60 59 54 44 66 71 69 69 68 68 65 67 65 66 60 58 58 58 56 57 57 57 57
62 61 61 62 61 61 61 60 60 60 60 60 59 59 58 58 57 57 59 60 60 60 61 61 61 61 51 46 67 71 69 66 68 68 62 66 68 63 63 55 58 57 53 55 55 56 55
62 61 61 62 61 61 60 60 59 59 60 59 59 58 58 58 57 55 59 59 60 60 60 60 61 56 43 60 66 69 70 67 68 68 65 67 68 61 60 60 57 54 54 52 55 55 54
62 61 61 61 61 61 60 60 59 59 59 59 59 58 58 57 57 58 58 59 59 58 58 61 57 52 42 60 61 67 69 62 64 65 65 65 63 57 56 54 52 55 52 52 51 55 53
62 61 61 60 60 61 60 60 59 59 59 58 58 58 58 58 57 57 58 59 58 56 56 59 54 46 46 47 59 64 68 65 60 60 58 58 57 53 54 49 42 50 51 51 50 54 52
62 61 60 60 60 60 60 60 59 59 59 58 58 58 58 58 59 58 58 54 47 44 50 46 47 46 47 56 64 61 64 62 61 58 52 52 46 43 47 50 49 49 48 48 54 53 48
61 61 60 60 60 60 60 59 59 58 58 58 58 58 57 58 58 57 54 48 47 48 38 49 49 50 56 61 54 58 66 56 55 49 51 50 42 48 49 47 46 46 45 48 51 50 50
61 61 60 60 60 60 60 59 59 58 58 58 58 58 58 58 58 57 55 50 57 56 41 44 50 51 54 60 52 52 60 56 53 49 51 48 47 49 47 44 42 45 41 44 41 48 54
61 60 60 60 60 60 59 59 59 58 57 57 57 57 58 58 54 53 50 56 58 58 39 38 47 52 56 56 49 60 60 55 51 47 49 46 48 46 45 43 44 40 47 45 44 41 38
61 60 60 60 60 59 59 59 59 58 57 56 57 57 58 58 57 52 55 59 59 55 29 43 48 61 58 52 51 53 61 58 48 47 48 42 44 44 43 41 47 44 48 46 44 38 38
60 60 60 60 59 59 59 59 59 58 57 57 56 56 57 61 61 58 60 59 56 39 25 40 49 48 49 52 51 54 54 58 54 48 49 46 50 48 47 48 48 49 45 43 43 41 32
59 59 59 59 59 59 59 59 58 58 57 57 56 56 60 61 57 59 59 54 38 30 41 40 43 49 48 46 48 50 49 47 43 34 32 45 45 48 48 46 49 47 43 35 33 32 35
59 59 58 59 58 58 58 58 58 58 57 56 55 56 56 60 61 59 57 50 30 35 39 46 47 49 43 47 47 48 47 45 49 48 42 37 34 46 49 47 45 47 45 34 26 33 37
58 58 58 58 58 58 58 58 58 57 56 55 55 63 61 60 59 59 56 35 33 41 46 45 46 44 42 46 47 47 47 46 48 49 40 37 36 49 49 51 50 45 40 46 34 40 32
58 58 58 57 57 57 57 58 57 57 56 55 63 61 58 60 59 57 48 37 42 49 49 49 43 46 42 44 45 47 46 49 47 50 52 46 36 48 49 50 50 47 50 37 37 28 29
57 58 58 57 57 56 57 57 57 57 56 55 60 59 58 60 58 58 39 43 46 52 52 48 46 45 46 44 47 46 45 49 51 50 53 50 44 44 47 45 46 42 42 42 44 42 33
57 57 57 57 56 56 56 56 56 56 56 54 60 50 60 61 52 53 45 49 49 50 52 51 52 50 49 48 47 47 47 50 55 53 48 51 47 39 46 52 53 50 49 49 40 38 42
57 57 57 56 56 55 55 56 56 56 55 59 60 58 62 58 45 46 49 48 51 49 50 50 50 52 52 49 45 48 49 54 54 51 50 51 45 37 41 46 49 44 48 48 49 45 36
57 57 56 56 56 55 55 55 55 55 55 61 60 47 59 60 57 54 50 48 47 51 51 52 51 53 50 48 51 48 48 51 53 52 48 50 46 41 38 44 48 43 46 48 46 36 39
56 56 56 56 56 55 55 55 55 55 55 60 58 50 50 48 52 52 52 51 48 47 51 53 50 50 50 47 48 47 50 51 50 49 50 49 40 43 45 47 46 44 44 46 42 43 37
57 56 56 56 56 55 54 54 54 54 54 60 57 56 55 54 51 52 48 49 49 48 50 49 47 51 51 48 50 47 49 50 50 50 48 50 39 43 35 45 47 42 45 46 45 45 45
57 57 56 56 55 55 54 54 54 54 57 59 57 57 56 47 52 52 54 51 50 50 51 52 51 50 49 52 54 55 56 56 54 51 47 46 41 37 34 45 43 38 46 46 46 48 47
57 57 56 56 55 54 54 54 54 54 53 59 55 57 56 52 51 53 50 51 49 50 50 52 52 50 54 57 56 55 52 52 53 52 53 47 42 40 33 39 30 45 52 50 48 50 52
57 57 57 56 55 54 54 54 54 54 53 57 56 55 55 52 53 51 49 50 51 52 48 50 54 57 57 54 49 47 47 45 46 49 48 50 45 37 33 36 43 47 44 45 43 47 54
57 57 56 56 55 54 54 53 53 53 53 57 53 52 55 51 53 53 51 52 49 51 50 50 53 56 54 51 47 40 41 45 42 39 45 46 46 40 40 30 31 47 50 52 50 40 55
56 56 56 56 55 54 54 53 53 53 53 54 53 51 53 49 56 53 51 51 54 51 49 50 50 48 52 48 43 43 42 45 40 40 35 37 35 32 34 32 39 53 51 52 38 45 54
56 56 56 55 55 55 54 53 53 53 52 53 51 51 50 50 53 51 53 51 49 50 48 50 49 47 46 43 45 46 42 47 41 48 44 42 38 34 37 33 29 53 48 43 53 55 54
56 56 55 55 55 55 54 53 53 53 53 51 52 50 51 47 50 52 55 56 55 55 53 52 51 49 53 47 48 48 43 46 44 40 51 40 49 46 45 44 55 54 56 57 56 53 54

GFSGBSN_sfc_temp_114.txt.gz
Temp
63 63 63 63 62 62 61 61 60 60 60 61 60 60 60 60 60 60 60 61 62 62 62 60 58 56 56 53 52 70 69 69 71 69 66 64 60 58 53 55 55 52 53 57 57 55 54
63 63 63 63 62 62 61 60 61 60 60 60 60 60 59 59 59 59 59 61 61 61 61 59 59 59 54 42 63 71 70 69 69 67 64 65 61 62 57 55 52 55 54 55 55 54 55
63 63 63 62 62 61 61 61 60 60 60 60 60 59 59 58 58 59 60 61 61 61 60 61 61 59 49 46 61 69 69 66 68 68 61 63 63 59 58 52 56 55 48 51 52 53 52
63 62 62 62 62 61 61 60 60 60 60 60 59 59 58 58 58 59 60 60 60 60 59 62 64 56 43 60 63 66 70 65 67 66 63 63 64 58 56 55 53 49 47 40 49 52 51
62 62 61 61 62 61 60 60 60 60 59 59 59 58 56 58 58 58 59 60 59 58 59 62 56 53 42 60 61 67 69 62 63 64 63 66 61 53 52 45 41 45 37 43 44 53 51
62 61 61 61 61 60 60 60 59 60 59 59 58 58 58 58 57 58 59 58 57 57 58 60 57 48 49 49 60 65 67 65 60 59 57 56 52 44 46 39 31 37 39 44 41 48 49
62 61 61 61 61 61 60 59 59 59 59 58 58 58 59 58 58 58 56 54 46 45 50 45 46 47 48 56 63 61 64 62 61 56 46 49 40 36 41 45 45 44 42 41 47 49 44
61 61 61 61 60 60 60 60 59 59 59 58 58 59 59 59 58 57 56 49 47 49 39 49 49 49 53 58 53 57 65 55 53 45 48 43 35 45 48 47 44 42 38 39 45 50 46
61 60 61 60 60 60 60 59 59 58 58 58 58 58 59 59 58 55 51 49 56 55 39 42 48 48 52 59 51 52 58 56 51 48 46 40 43 50 48 43 40 39 33 37 37 45 48
61 61 61 61 60 60 59 59 59 58 57 58 58 58 58 59 55 51 48 54 56 57 36 37 44 51 57 56 48 60 59 54 50 45 46 42 48 47 43 40 41 35 45 44 42 35 28
60 60 60 60 60 60 60 59 59 58 57 57 57 58 59 58 54 52 55 59 59 51 24 43 48 61 59 51 50 52 61 57 47 46 44 38 42 42 41 38 46 41 46 43 42 37 33
60 60 59 59 59 59 59 59 59 58 57 57 56 57 58 59 59 58 60 58 53 36 22 40 50 49 49 52 51 54 54 56 53 47 46 43 48 46 45 49 47 49 42 43 43 37 28
59 59 59 59 59 58 59 58 58 58 57 57 57 57 59 61 53 59 58 52 35 28 43 40 43 49 48 47 48 51 48 44 38 33 31 41 43 46 48 42 46 44 34 24 24 29 23
59 59 59 58 58 58 58 58 58 57 57 56 56 56 57 60 59 58 54 43 27 35 40 48 48 48 43 48 47 48 46 38 45 45 34 30 25 43 48 44 40 42 39 23 18 19 23
58 58 58 58 58 58 58 58 58 57 56 56 55 58 58 59 59 56 46 32 31 39 46 45 46 42 40 46 46 46 44 43 45 46 35 30 31 47 48 50 46 41 36 41 28 30 23
58 58 58 57 57 57 57 57 57 57 56 56 57 57 55 60 59 52 43 37 39 50 51 50 41 45 39 43 43 44 42 46 46 49 49 41 30 46 47 47 47 42 45 30 33 16 19
58 58 57 57 57 56 56 57 57 57 56 55 55 53 56 60 56 51 36 39 45 52 52 48 45 44 44 43 44 43 42 47 49 49 48 45 39 37 43 40 39 37 36 38 38 33 22
57 57 57 57 56 56 56 56 56 56 56 51 54 46 57 58 47 48 40 47 49 49 52 51 50 49 47 45 44 43 43 47 52 50 44 46 41 31 39 47 49 43 42 40 28 30 32
57 57 57 56 56 55 55 55 56 56 56 54 53 52 58 55 41 41 47 48 51 49 49 50 49 50 50 46 40 44 45 52 52 48 42 44 37 25 30 39 42 39 43 44 42 38 29
57 57 57 56 56 55 55 55 55 56 56 52 54 41 53 54 53 49 46 46 46 50 51 52 51 51 47 45 47 43 45 48 51 49 49 47 40 34 27 33 39 35 41 43 40 27 31
57 57 57 56 56 55 55 55 55 55 55 53 53 45 47 43 47 48 48 48 47 45 50 51 48 49 47 42 44 43 46 46 48 49 45 43 33 35 39 42 41 39 40 41 37 38 32
57 57 57 56 56 55 55 54 54 54 55 55 49 48 49 48 49 49 44 46 47 48 48 47 45 49 47 43 45 42 45 45 44 44 41 44 31 35 29 40 40 36 40 41 41 41 41
57 57 56 56 56 55 54 54 54 54 56 54 53 54 50 46 48 45 46 48 48 49 49 51 49 46 46 47 49 49 49 49 47 44 41 40 33 30 26 36 36 30 39 41 42 42 41
57 57 57 56 55 55 54 54 54 54 53 54 50 50 48 43 46 48 49 49 48 48 45 50 48 46 47 53 52 49 46 47 47 46 47 39 36 33 28 30 19 38 44 45 42 45 46
57 57 57 56 55 55 54 54 54 54 54 52 51 48 47 41 47 49 48 47 48 48 45 47 50 50 51 47 41 39 39 38 42 45 43 44 38 31 23 24 35 40 41 39 37 39 47
57 57 56 56 55 54 54 54 54 54 54 53 48 49 48 42 44 50 47 47 42 43 45 46 49 50 46 43 40 30 31 35 31 33 40 41 41 35 29 23 23 37 43 47 44 30 47
56 56 56 56 55 54 54 54 53 53 53 50 47 48 46 41 48 47 44 44 47 43 42 44 45 42 45 39 34 32 31 37 31 30 27 30 35 30 31 28 32 44 45 46 27 35 46
56 56 56 55 55 55 54 54 53 53 53 49 46 48 44 42 45 49 50 45 44 43 40 43 42 41 39 34 35 35 33 37 32 38 34 31 27 27 30 26 23 45 42 37 43 43 47
56 56 56 55 55 55 54 54 53 53 53 52 46 48 48 41 43 49 50 49 48 45 44 46 44 44 44 37 38 37 35 36 35 30 40 33 40 35 36 34 46 47 46 49 48 46 45

GFSGBSN_sfc_temp_117.txt.gz
Temp
64 64 63 63 62 62 62 61 61 61 61 61 61 60 59 60 61 61 61 62 62 62 61 61 61 59 57 50 48 62 70 70 67 65 62 60 55 53 48 50 52 48 49 54 53 52 50
63 63 62 62 62 62 61 61 60 61 61 61 60 60 59 60 60 60 61 61 62 62 61 61 61 61 54 41 59 63 65 66 65 62 60 58 56 57 52 51 48 49 51 51 51 51 52
63 63 62 62 61 60 61 61 60 60 60 60 60 59 59 59 60 60 61 61 62 61 61 61 61 58 49 47 59 60 63 61 62 62 57 59 58 56 53 48 53 51 45 46 47 50 49
63 62 62 62 61 61 60 60 60 60 60 60 59 59 59 59 59 59 60 59 60 61 61 61 60 54 43 60 60 60 64 61 62 63 59 60 59 55 52 51 50 45 43 35 45 48 49
62 62 62 62 62 61 60 60 60 60 60 59 59 58 58 59 59 59 59 59 59 59 62 63 55 51 42 60 57 63 62 58 59 60 58 65 57 49 49 40 35 40 32 37 41 50 48
62 62 62 61 61 61 60 60 60 59 59 59 58 58 58 58 58 58 59 59 58 57 58 60 57 46 49 49 56 61 62 62 57 54 53 52 46 37 38 34 26 30 32 40 38 45 46
61 61 61 61 61 60 61 60 60 59 59 59 59 59 58 58 58 58 55 51 47 45 50 45 46 46 49 55 60 58 61 58 56 51 40 46 33 26 33 38 41 39 36 34 41 46 42
61 61 61 61 61 61 60 60 59 59 59 59 59 59 59 59 59 58 55 45 46 49 40 49 50 48 53 56 51 55 60 50 48 40 44 36 28 40 45 44 41 39 33 33 40 47 44
61 61 61 60 60 61 60 60 59 58 59 59 58 59 59 59 59 53 48 48 54 53 41 45 47 48 51 56 49 50 54 51 46 41 40 33 39 47 46 40 37 35 32 32 34 41 43
60 60 61 60 59 60 60 59 59 58 58 58 58 59 58 58 53 50 47 53 54 53 32 37 45 52 55 54 46 57 57 50 47 40 40 38 44 44 41 38 38 32 42 41 39 32 24
60 60 59 60 59 59 59 59 59 58 57 57 58 58 59 58 50 49 54 56 55 48 21 42 47 60 55 48 48 50 58 53 43 43 41 35 39 39 39 37 43 38 43 40 39 32 28
60 59 59 59 59 59 59 59 59 58 57 57 57 58 58 55 52 53 56 54 49 32 20 38 48 47 47 49 49 52 51 53 50 43 42 39 45 43 41 46 45 46 40 40 43 38 24
59 59 58 58 59 59 59 58 58 57 57 57 57 58 56 56 47 53 52 45 28 22 41 37 40 46 45 43 45 47 44 40 33 25 23 37 39 43 46 39 43 41 32 18 24 22 21
58 58 58 58 58 58 58 58 58 57 57 56 57 56 55 57 52 52 47 36 21 32 34 44 44 44 40 43 43 44 41 32 42 40 28 22 23 40 44 41 37 38 35 20 16 15 21
58 58 58 58 58 58 58 58 58 57 56 56 55 49 50 52 55 49 40 26 24 33 43 41 43 36 35 42 41 41 38 38 41 42 30 24 27 44 45 46 44 38 30 38 24 23 17
58 58 58 57 57 57 57 57 57 57 56 56 46 47 48 53 52 45 35 32 34 46 47 45 34 39 32 37 37 38 37 42 42 46 44 38 27 42 44 45 44 39 41 28 27 14 17
58 58 58 57 57 56 56 57 57 57 56 55 46 44 50 54 49 41 28 31 42 49 48 42 40 39 38 37 39 37 38 42 45 45 44 41 36 34 40 36 35 35 33 35 34 29 20
58 58 57 57 56 56 56 56 56 56 56 50 45 37 51 50 39 36 30 41 48 45 48 46 44 44 40 41 38 38 38 41 48 47 39 42 37 27 34 43 45 40 37 36 25 27 27
57 57 57 57 56 55 55 55 56 56 55 45 43 43 51 50 32 29 40 43 46 45 45 45 44 46 45 41 36 40 41 47 49 45 39 41 33 21 29 36 40 37 39 40 38 33 26
57 57 57 57 56 55 55 55 55 56 56 46 44 35 44 45 42 40 39 41 41 46 46 48 45 46 43 40 42 38 41 46 48 46 50 46 35 31 26 31 35 32 38 39 36 24 29
57 57 57 57 56 56 55 55 55 55 56 48 43 38 41 33 40 40 41 42 42 41 45 46 43 44 41 37 39 38 42 42 44 47 43 41 30 30 35 37 37 37 37 38 35 37 29
57 57 57 56 56 55 55 54 54 55 56 45 41 40 41 40 43 40 40 41 43 43 44 42 41 44 43 38 39 37 41 40 40 38 39 40 29 30 25 36 35 32 36 37 38 38 39
57 57 57 56 56 55 54 54 54 54 53 43 42 44 43 41 40 37 38 41 43 44 45 47 44 41 41 43 42 44 44 44 44 39 37 37 30 27 24 32 32 27 35 36 37 38 39
57 56 57 56 55 55 54 54 54 54 52 44 42 41 39 36 39 42 44 44 43 43 41 45 44 40 44 48 47 44 40 41 41 40 42 36 32 29 23 27 18 35 41 44 40 42 43
57 57 56 56 55 55 54 54 54 54 54 44 42 41 39 34 40 42 42 42 43 42 41 43 45 45 46 44 37 34 34 35 37 38 38 40 34 26 21 20 31 36 39 38 36 37 43
57 57 56 56 55 54 54 54 54 54 54 46 41 42 40 37 39 45 41 41 37 35 39 42 45 46 44 39 36 27 28 32 31 31 38 39 37 30 25 21 22 35 39 43 42 30 42
57 57 56 56 55 55 54 54 54 54 54 46 42 43 40 36 43 44 41 40 42 37 36 38 40 40 42 34 32 28 27 35 30 28 26 28 30 29 31 28 30 40 42 43 29 37 43
56 56 56 56 55 55 55 54 54 53 53 47 43 44 42 36 40 46 47 44 42 39 36 41 40 40 36 32 31 32 30 34 31 33 30 29 25 26 29 27 22 42 41 38 43 42 45
56 55 55 55 55 55 54 54 54 53 53 51 42 45 44 38 40 44 46 48 49 47 42 41 41 41 40 35 34 34 32 33 34 30 34 31 37 32 33 33 42 44 45 47 45 45 44